[[[{"header":{"parameterUnit":"kt","parameterCategory":2,"dx":1,"dy":1,"la1":29.587661999999998,"la2":31.0,"lo1":-88.76705300000003,"lo2":-86.6583820000003,"nx":115,"ny":88,"refTime":"2022-09-30T18:00:00:Z","depth":0,"parameterNumber":1,"parameterNumberName":"U-component_of_WINDS"},"data":[13.1573,13.1573,13.1573,13.1573,13.1573,13.1573,13.2045,13.2897,13.3913,13.4371,13.4964,13.6523,13.7292,13.6342,13.7367,13.7815,13.7815,13.7815,13.7815,13.7815,13.7815,13.7815,13.7815,13.7815,13.7815,13.7815,13.7815,13.7815,13.7815,13.7815,13.7815,13.7815,13.7815,13.7815,13.7815,13.7815,13.7815,13.7815,13.7815,13.7815,13.7815,13.7815,13.7815,13.7815,13.7815,13.7815,13.7815,13.7815,13.7815,13.7815,13.7815,13.7815,13.7815,13.7815,13.7815,13.7815,13.7815,13.7815,13.7815,13.7815,13.7815,13.7815,13.7815,13.7815,13.7815,13.7815,13.7815,13.7815,13.7815,13.7815,13.7815,13.7815,13.774,13.7292,13.6843,13.5273,13.3329,13.1384,12.9665,12.8618,12.8094,12.8094,12.8094,12.787,12.7346,12.6898,12.6,12.4804,12.2635,12.1289,12.0093,11.9345,11.8523,11.8373,11.8149,11.801,11.801,11.8103,11.8028,11.7758,11.7758,11.8149,11.8074,11.7251,11.7326,11.7251,11.7027,11.616,11.4634,11.3213,11.2092,11.0746,10.9475,10.9175,10.9998,13.1573,13.1573,13.1573,13.1573,13.1573,13.1573,13.1709,13.2045,13.299,13.3487,13.3943,13.6582,13.7035,13.6865,13.7367,13.7666,13.7815,13.7815,13.7815,13.7815,13.7815,13.7815,13.7815,13.7815,13.7815,13.7815,13.7815,13.7815,13.7815,13.7815,13.7815,13.7815,13.7815,13.7815,13.7815,13.7815,13.7815,13.7815,13.7815,13.7815,13.7815,13.7815,13.7815,13.7815,13.7815,13.7815,13.7815,13.7815,13.7815,13.7815,13.7815,13.7815,13.7815,13.7815,13.7815,13.7815,13.7815,13.7815,13.7815,13.7815,13.7815,13.7815,13.7815,13.7815,13.7815,13.7815,13.7815,13.7815,13.7815,13.7815,13.7815,13.7815,13.7815,13.7591,13.7217,13.6469,13.4002,13.1609,12.9964,12.8319,12.8094,12.8094,12.8094,12.8094,12.787,12.7571,12.6823,12.5776,12.458,12.2785,12.1364,12.0467,11.9046,11.8373,11.8224,11.8103,11.8103,11.8149,11.8149,11.8149,11.8149,11.8149,11.8149,11.8149,11.8149,11.7924,11.7625,11.7326,11.6504,11.5276,11.3855,11.2316,11.097,11.0073,11.0821,13.1573,13.1573,13.1573,13.1914,13.2299,13.2469,13.2875,13.3463,13.4494,13.4531,13.4381,13.5937,13.6715,13.6491,13.7367,13.7815,13.7815,13.7815,13.7815,13.7815,13.7815,13.7815,13.7815,13.7815,13.7815,13.7815,13.7815,13.7815,13.7815,13.7815,13.7815,13.7815,13.7815,13.7815,13.7815,13.7815,13.7815,13.7815,13.7815,13.7815,13.7815,13.7815,13.7815,13.7815,13.7815,13.7815,13.7815,13.7815,13.7815,13.7815,13.7815,13.7815,13.7815,13.7815,13.7815,13.7815,13.7815,13.7815,13.7815,13.7815,13.7815,13.7815,13.7815,13.7815,13.7815,13.7815,13.7815,13.7815,13.7815,13.7815,13.7815,13.7815,13.7815,13.7815,13.7516,13.7292,13.5647,13.3155,13.1061,12.9464,12.8558,12.8558,12.8436,12.8436,12.8244,12.7945,12.787,12.6898,12.5327,12.3608,12.271,12.1589,11.942,11.8448,11.8448,11.8448,11.8373,11.8224,11.8149,11.8149,11.8149,11.8149,11.8149,11.8149,11.8149,11.8149,11.8149,11.7924,11.7251,11.6324,11.5083,11.3886,11.2391,11.112,11.3064,13.1573,13.1573,13.1573,13.2174,13.3083,13.3175,13.3728,13.4811,13.5979,13.615,13.5711,13.6267,13.6715,13.679,13.7591,13.7815,13.7815,13.7815,13.7815,13.7815,13.7815,13.7815,13.7815,13.7815,13.7815,13.7815,13.7815,13.7815,13.7815,13.7815,13.7815,13.7815,13.7815,13.7815,13.7815,13.7815,13.7815,13.7815,13.7815,13.7815,13.7815,13.7815,13.7815,13.7815,13.7815,13.7815,13.7815,13.7815,13.7815,13.7815,13.7815,13.7815,13.7815,13.7815,13.7815,13.7815,13.7815,13.7815,13.7815,13.7815,13.7815,13.7815,13.7815,13.7815,13.7815,13.7815,13.7815,13.7815,13.7815,13.7815,13.7815,13.7815,13.7815,13.7815,13.774,13.774,13.7666,13.5175,13.2656,13.1002,12.9457,12.9125,12.8932,12.8844,12.8566,12.8393,12.8169,12.7646,12.6,12.4281,12.3308,12.2336,12.0093,11.8747,11.8897,11.8897,11.8822,11.8747,11.8597,11.8373,11.8149,11.8149,11.8149,11.8149,11.8224,11.8149,11.8149,11.8149,11.7775,11.6952,11.5905,11.5307,11.3961,11.4485,11.6354,13.1573,13.1573,13.1573,13.2146,13.3083,13.3266,13.3828,13.4889,13.6848,13.7612,13.7463,13.7591,13.7591,13.7516,13.7666,13.7815,13.7815,13.7815,13.7815,13.7815,13.7815,13.7815,13.7815,13.7815,13.7815,13.7815,13.7815,13.7815,13.7815,13.7815,13.7815,13.7815,13.7815,13.7815,13.7815,13.7815,13.7815,13.7815,13.7815,13.7815,13.7815,13.7815,13.7815,13.7815,13.7815,13.7815,13.7815,13.7815,13.7815,13.7815,13.7815,13.7815,13.7815,13.7815,13.7815,13.7815,13.7815,13.7815,13.7815,13.7815,13.7815,13.7815,13.7815,13.7815,13.7815,13.7815,13.7815,13.7815,13.7815,13.7815,13.7815,13.7815,13.7815,13.7815,13.7815,13.7815,13.7591,13.617,13.3828,13.1902,13.0462,12.9396,12.9265,12.8957,12.8683,12.8539,12.8319,12.8094,12.6599,12.4729,12.3832,12.3159,12.099,11.927,11.957,12.0093,11.9794,11.942,11.9121,11.9046,11.9495,11.9046,11.8298,11.8298,11.8448,11.8298,11.8149,11.8149,11.7924,11.7401,11.7177,11.6653,11.7476,11.8747,11.9719,13.1573,13.1573,13.1573,13.1812,13.2371,13.3552,13.5119,13.6586,13.7467,13.7815,13.7815,13.7815,13.7815,13.7815,13.7815,13.7815,13.7815,13.7815,13.7815,13.7815,13.7815,13.7815,13.7815,13.7815,13.7815,13.7815,13.7815,13.7815,13.7815,13.7815,13.7815,13.7815,13.7815,13.7815,13.7815,13.7815,13.7815,13.7815,13.7815,13.7815,13.7815,13.7815,13.7815,13.7815,13.7815,13.7815,13.7815,13.7815,13.7815,13.7815,13.7815,13.7815,13.7815,13.7815,13.7815,13.7815,13.7815,13.7815,13.7815,13.7815,13.7815,13.7815,13.7815,13.7815,13.7815,13.7815,13.7815,13.7815,13.7815,13.7815,13.7815,13.7815,13.7815,13.7815,13.7815,13.7815,13.7292,13.6694,13.4974,13.2974,13.1442,13.0282,12.9466,12.9094,12.8804,12.8694,12.8468,12.8319,12.7197,12.5477,12.4654,12.443,12.2336,12.0392,12.114,12.1888,12.1738,12.1514,12.0841,12.0616,12.099,12.0766,12.0018,11.942,11.8897,11.8448,11.8149,11.8149,11.8523,11.8523,11.8373,11.9495,12.114,12.2037,12.1514,13.1573,13.1573,13.1573,13.1573,13.1812,13.3175,13.5043,13.6909,13.7633,13.7815,13.7815,13.7815,13.7815,13.7815,13.7815,13.7815,13.7815,13.7815,13.7815,13.7815,13.7815,13.7815,13.7815,13.7815,13.7815,13.7815,13.7815,13.7815,13.7815,13.7815,13.7815,13.7815,13.7815,13.7815,13.7815,13.7815,13.7815,13.7815,13.7815,13.7815,13.7815,13.7815,13.7815,13.7815,13.7815,13.7815,13.7815,13.7815,13.7815,13.7815,13.7815,13.7815,13.7815,13.7815,13.7815,13.7815,13.7815,13.7815,13.7815,13.7815,13.7815,13.7815,13.7815,13.7815,13.7815,13.7815,13.7815,13.7815,13.7815,13.7815,13.7815,13.7815,13.7815,13.7815,13.7815,13.7815,13.7666,13.7097,13.6436,13.4528,13.2891,13.1588,12.9925,12.943,12.9069,12.8903,12.8816,12.8692,12.7945,12.6524,12.5701,12.5851,12.443,12.3084,12.3458,12.3383,12.3533,12.3533,12.2785,12.2411,12.2411,12.2112,12.1589,12.0916,12.0093,11.9345,11.8597,11.8897,11.942,11.957,12.0467,12.271,12.4355,12.3981,12.3458,13.1573,13.1573,13.1573,13.1573,13.1677,13.1843,13.3083,13.5043,13.6969,13.7815,13.7815,13.7815,13.7815,13.7815,13.7815,13.7815,13.7815,13.7815,13.7815,13.7815,13.7815,13.7815,13.7815,13.7815,13.7815,13.7815,13.7815,13.7815,13.7815,13.7815,13.7815,13.7815,13.7815,13.7815,13.7815,13.7815,13.7815,13.7815,13.7815,13.7815,13.7815,13.7815,13.7815,13.7815,13.7815,13.7815,13.7815,13.7815,13.7815,13.7815,13.7815,13.7815,13.7815,13.7815,13.7815,13.7815,13.7815,13.7815,13.7815,13.7815,13.7815,13.7815,13.7815,13.7815,13.7815,13.7815,13.7815,13.7815,13.7815,13.7815,13.7815,13.7815,13.7815,13.7815,13.7815,13.7815,13.7815,13.7573,13.7052,13.5883,13.4221,13.2346,13.0598,12.9722,12.9263,12.9335,12.9728,12.9756,12.9814,12.8244,12.7571,12.772,12.7122,12.5776,12.5028,12.4729,12.4879,12.5402,12.4729,12.4355,12.3608,12.3308,12.3084,12.2635,12.1514,12.0616,12.0093,12.0168,12.0542,12.1514,12.2411,12.4355,12.5851,12.5552,12.5028,13.1573,13.1573,13.1573,13.1573,13.1709,13.2371,13.3447,13.4889,13.6909,13.7815,13.7815,13.7815,13.7815,13.7815,13.7815,13.7815,13.7815,13.7815,13.7815,13.7815,13.7815,13.7815,13.7815,13.7815,13.7815,13.7815,13.7815,13.7815,13.7815,13.7815,13.7815,13.7815,13.7815,13.7815,13.7815,13.7815,13.7815,13.7815,13.7815,13.7815,13.7815,13.7815,13.7815,13.7815,13.7815,13.7815,13.7815,13.7815,13.7815,13.7815,13.7815,13.7815,13.7815,13.7815,13.7815,13.7815,13.7815,13.7815,13.7815,13.7815,13.7815,13.7815,13.7815,13.7815,13.7815,13.7815,13.7815,13.7815,13.7815,13.7815,13.7815,13.7815,13.7815,13.7815,13.7815,13.7815,13.7815,13.804,13.7672,13.6424,13.482,13.2621,13.0729,13.0188,12.996,13.0336,13.0744,13.1452,13.1908,13.0637,12.9739,12.9889,12.9515,12.8468,12.7571,12.6748,12.6673,12.7122,12.7047,12.6823,12.6075,12.4954,12.4804,12.4505,12.3308,12.2262,12.1663,12.1589,12.2112,12.2935,12.4281,12.5627,12.6898,12.6973,12.6599,13.1573,13.1573,13.1573,13.1812,13.2317,13.3475,13.4509,13.549,13.7169,13.8046,13.7837,13.7815,13.7815,13.7815,13.7815,13.7815,13.7815,13.7815,13.7815,13.7815,13.7815,13.7815,13.7815,13.7815,13.7815,13.7815,13.7815,13.7815,13.7815,13.7815,13.7815,13.7815,13.7815,13.7815,13.7815,13.7815,13.7815,13.7815,13.789,13.789,13.7815,13.7815,13.7815,13.7815,13.7815,13.7815,13.7815,13.7815,13.7815,13.7815,13.7815,13.7815,13.7815,13.7815,13.7815,13.7815,13.7815,13.7815,13.7815,13.7815,13.7815,13.7815,13.7815,13.7815,13.7815,13.7815,13.7815,13.7815,13.7815,13.7815,13.7815,13.7815,13.7815,13.7815,13.7815,13.7815,13.789,13.8114,13.8189,13.7067,13.597,13.4036,13.2514,13.2135,13.1668,13.1814,13.2256,13.2978,13.3702,13.273,13.2207,13.2356,13.2057,13.1085,13.0113,12.8991,12.8692,12.8094,12.7945,12.8094,12.7795,12.6898,12.6599,12.6225,12.5028,12.3832,12.3308,12.2935,12.3533,12.458,12.6,12.7346,12.772,12.7571,12.7346,13.1573,13.1573,13.1573,13.2317,13.3754,13.517,13.6096,13.6941,13.8247,13.862,13.8136,13.8339,13.8339,13.789,13.8189,13.804,13.7965,13.7815,13.7815,13.7815,13.7815,13.7815,13.7815,13.7815,13.7815,13.7815,13.7815,13.7815,13.7815,13.7815,13.7815,13.7815,13.7815,13.7815,13.7815,13.7815,13.789,13.7965,13.8264,13.8413,13.8563,13.8713,13.8713,13.8787,13.8787,13.899,13.8787,13.8638,13.8413,13.8189,13.8114,13.7815,13.7815,13.7815,13.7815,13.7815,13.7815,13.7815,13.7815,13.7815,13.7815,13.7815,13.7815,13.7815,13.7815,13.7815,13.7815,13.7815,13.7815,13.7815,13.7815,13.7815,13.7815,13.7815,13.7815,13.7815,13.7815,13.7965,13.8413,13.804,13.7015,13.6095,13.4858,13.4019,13.3563,13.3761,13.3993,13.4476,13.525,13.5048,13.4974,13.4899,13.445,13.3329,13.2132,13.116,12.9889,12.8767,12.8244,12.8094,12.787,12.7646,12.772,12.7795,12.6823,12.5776,12.5028,12.4355,12.5327,12.63,12.772,12.8094,12.8094,12.787,12.7421,13.1573,13.1573,13.1573,13.3912,13.7464,13.8134,13.887,13.967,14.025,14.012,13.9705,14.0806,14.0208,13.8638,13.8915,13.914,13.8339,13.8114,13.7965,13.804,13.8114,13.7815,13.7815,13.789,13.7965,13.7815,13.7815,13.7815,13.7815,13.7815,13.7815,13.7815,13.7815,13.789,13.8189,13.8862,13.9663,13.9963,14.0561,14.1309,14.1255,14.1255,14.118,14.1085,14.101,14.101,14.0711,14.0037,13.9663,13.9289,13.8713,13.804,13.789,13.7815,13.7815,13.7815,13.7815,13.7815,13.7815,13.7815,13.7815,13.7815,13.7815,13.7815,13.7815,13.7815,13.7815,13.7815,13.7815,13.7815,13.7815,13.7815,13.7815,13.7815,13.7815,13.7815,13.7815,13.7815,13.8339,13.9117,13.8217,13.7273,13.6448,13.6448,13.66,13.7594,13.7353,13.7065,13.7198,13.6694,13.6768,13.6544,13.6245,13.5198,13.4002,13.2431,13.0936,12.9814,12.8842,12.8543,12.8094,12.8019,12.8019,12.8019,12.787,12.7496,12.6973,12.6374,12.7047,12.7945,12.8019,12.8094,12.8094,12.8019,12.7496,13.3496,13.4062,13.4536,13.6815,14.0207,14.0871,14.1386,14.1905,14.2415,14.22,14.135,14.2247,14.1704,14.0582,14.0935,14.0711,13.9909,13.9759,13.9834,13.9759,13.9535,13.9311,13.8862,13.8787,13.8413,13.789,13.7815,13.7815,13.7815,13.7815,13.7815,13.8114,13.8638,13.8638,13.9364,14.0411,14.1159,14.1608,14.2282,14.2805,14.2845,14.2845,14.2845,14.288,14.288,14.288,14.2805,14.1778,14.1459,14.1085,14.0411,13.9738,13.9161,13.9012,13.8563,13.7965,13.7815,13.7815,13.7815,13.7815,13.7815,13.7815,13.7815,13.7815,13.7815,13.7815,13.7815,13.7815,13.7815,13.7815,13.7815,13.7815,13.7815,13.7815,13.7815,13.7815,13.7815,13.7815,13.8317,14.002,13.9538,13.896,13.903,13.9106,14.0245,14.0972,14.0249,13.9501,13.8297,13.7516,13.7441,13.7217,13.7067,13.6245,13.4974,13.3553,13.1983,13.0786,12.9665,12.8917,12.8169,12.8169,12.8094,12.8094,12.7945,12.7795,12.7795,12.8019,12.8094,12.8019,12.8019,12.8094,12.8094,12.8094,12.787,13.6952,13.8671,13.9669,14.08,14.1875,14.3285,14.3669,14.3611,14.4788,14.4489,14.3498,14.3124,14.3124,14.2751,14.2656,14.2805,14.2676,14.2825,14.2451,14.2451,14.2676,14.1629,14.0956,14.0283,13.9759,13.8488,13.8339,13.8189,13.789,13.8339,13.8638,13.8339,13.9909,14.0411,14.0935,14.1758,14.2431,14.3124,14.3723,14.3742,14.3742,14.3685,14.3611,14.3536,14.3387,14.3237,14.3237,14.3088,14.2994,14.2934,14.241,14.1683,14.0732,14.0582,13.9685,13.8862,13.8413,13.8413,13.8189,13.8189,13.789,13.7815,13.7815,13.7815,13.7815,13.7815,13.7815,13.7815,13.7815,13.7815,13.7815,13.7815,13.7815,13.7815,13.7815,13.7815,13.7815,13.7815,13.8818,14.0719,14.1574,14.1707,14.1764,14.2523,14.3586,14.2979,14.2245,14.0099,13.8959,13.7965,13.789,13.774,13.7666,13.7067,13.5871,13.4974,13.3777,13.2506,13.0711,12.9515,12.8618,12.8169,12.8094,12.8094,12.8094,12.8094,12.8094,12.8094,12.8094,12.8094,12.8094,12.8094,12.8094,12.8094,12.8094,14.0785,14.4032,14.5242,14.5793,14.6124,14.6498,14.6541,14.6489,14.6863,14.6863,14.6265,14.5087,14.3966,14.3349,14.4077,14.4077,14.305,14.2845,14.29,14.2825,14.2751,14.2676,14.2377,14.2078,14.1275,13.978,13.9685,13.9161,13.9161,13.9984,14.1255,14.1629,14.1928,14.2152,14.2322,14.2975,14.3723,14.4639,14.5667,14.619,14.6209,14.6283,14.6283,14.6358,14.6508,14.6508,14.6283,14.5461,14.4639,14.4376,14.3852,14.3104,14.2377,14.2152,14.1405,14.0133,13.9909,13.9909,13.9311,13.8638,13.7965,13.7815,13.7815,13.7815,13.7815,13.7815,13.7815,13.7815,13.7815,13.7815,13.7815,13.7815,13.7815,13.7815,13.7815,13.7815,13.7815,13.7965,13.8818,14.0807,14.2396,14.3185,14.4877,14.5788,14.5636,14.4877,14.3076,14.0856,13.9514,13.8242,13.804,13.7815,13.774,13.7516,13.6694,13.617,13.5422,13.4076,13.1833,13.0337,12.9665,12.9141,12.8468,12.8169,12.8094,12.8094,12.8094,12.8094,12.8094,12.8094,12.8094,12.8094,12.8094,12.8094,12.8094,14.4568,14.6807,14.7462,14.7686,14.7686,14.7686,14.7686,14.7686,14.7686,14.7686,14.7536,14.6657,14.5835,14.5443,14.5816,14.5742,14.5218,14.5143,14.4994,14.5143,14.5069,14.462,14.4097,14.3797,14.2994,14.1798,14.1275,14.0657,14.0881,14.1928,14.2845,14.2845,14.3443,14.3891,14.3966,14.4564,14.5386,14.6134,14.7088,14.7686,14.7686,14.7686,14.7686,14.7686,14.7611,14.7611,14.7387,14.6657,14.634,14.6116,14.5592,14.4695,14.4097,14.3797,14.3199,14.1704,14.2003,14.1704,14.0507,13.9535,13.8638,13.8114,13.7815,13.7815,13.7815,13.7815,13.7815,13.7815,13.7815,13.7815,13.7815,13.7815,13.7815,13.7815,13.7815,13.7815,13.789,13.804,13.9046,14.1037,14.2939,14.5377,14.7458,14.7762,14.7458,14.6016,14.3747,14.1649,14.0018,13.8713,13.8189,13.789,13.7815,13.7815,13.7367,13.7067,13.6245,13.5198,13.288,13.2057,13.1085,12.9889,12.8991,12.8543,12.8393,12.8244,12.8094,12.8094,12.8094,12.8094,12.8094,12.8094,12.8094,12.8094,12.8094,14.791,14.7686,14.7686,14.7686,14.7686,14.7686,14.7686,14.7686,14.7686,14.7686,14.7686,14.7611,14.7536,14.7387,14.7536,14.7611,14.7536,14.7237,14.7162,14.7088,14.7162,14.6489,14.5667,14.5517,14.4564,14.3312,14.3144,14.3199,14.3573,14.3648,14.3667,14.3984,14.5087,14.5536,14.5685,14.6489,14.7686,14.7611,14.7686,14.7686,14.7686,14.7686,14.7686,14.7686,14.7686,14.7686,14.7686,14.7611,14.7462,14.7536,14.7536,14.6938,14.5816,14.5517,14.4695,14.4321,14.4097,14.4022,14.1704,14.0432,13.9535,13.8713,13.7965,13.7815,13.7815,13.7815,13.7815,13.7815,13.7815,13.7815,13.7815,13.7815,13.7815,13.7815,13.7815,13.7815,13.789,13.8114,13.9895,14.1871,14.3517,14.6269,14.8749,14.9053,14.8977,14.6699,14.4455,14.2392,14.0561,13.9289,13.8413,13.8114,13.7965,13.789,13.7516,13.7516,13.6918,13.617,13.4974,13.4151,13.288,13.1534,13.0337,12.9291,12.8842,12.8692,12.8618,12.8468,12.8169,12.8094,12.8094,12.8094,12.8094,12.8094,12.8094,14.9014,14.7686,14.7686,14.7686,14.7686,14.7686,14.7686,14.7686,14.7686,14.7686,14.7686,14.7686,14.7686,14.7686,14.7686,14.7686,14.7686,14.7686,14.7686,14.7686,14.7686,14.7611,14.7237,14.7013,14.6283,14.4938,14.4788,14.5443,14.6116,14.634,14.6639,14.6508,14.6789,14.7237,14.7088,14.7462,14.7611,14.7686,14.7686,14.7686,14.7686,14.7686,14.7686,14.7686,14.7686,14.7686,14.7686,14.7686,14.7686,14.7686,14.7686,14.7536,14.7237,14.7237,14.7088,14.6639,14.5742,14.5069,14.3573,14.2227,14.0507,13.9535,13.8563,13.804,13.7815,13.7815,13.7815,13.7815,13.7815,13.7815,13.7815,13.7815,13.7815,13.7815,13.7815,13.7815,13.789,13.8594,14.0318,14.2422,14.407,14.6092,14.8142,14.8749,14.9053,14.7003,14.5173,14.3119,14.1288,13.9888,13.872,13.8369,13.8144,13.7995,13.789,13.7965,13.7367,13.6768,13.617,13.5422,13.4226,13.3104,13.1908,13.0786,13.0263,13.0113,12.944,12.9216,12.8618,12.8169,12.8094,12.8094,12.8094,12.8094,12.8094,14.8508,14.7761,14.7686,14.7686,14.7686,14.7686,14.7686,14.7686,14.7686,14.7686,14.7686,14.7686,14.7686,14.7686,14.7686,14.7686,14.7686,14.7686,14.7686,14.7686,14.7686,14.7686,14.7686,14.7686,14.7088,14.6714,14.6415,14.6938,14.7686,14.7686,14.7536,14.7686,14.7686,14.7686,14.7686,14.7686,14.7686,14.7686,14.7686,14.7686,14.7686,14.7686,14.7686,14.7686,14.7686,14.7686,14.7686,14.7686,14.7686,14.7686,14.7686,14.7686,14.7686,14.7686,14.7686,14.7462,14.6938,14.6116,14.4919,14.3872,14.1778,14.0582,13.961,13.8787,13.8114,13.7815,13.7815,13.7815,13.7815,13.7815,13.7815,13.7815,13.7815,13.7815,13.7815,13.7815,13.7965,13.8413,14.0566,14.3181,14.4497,14.594,14.7762,14.8673,14.8825,14.7686,14.5864,14.3932,14.1968,14.0544,13.9043,13.8743,13.8641,13.8421,13.8189,13.804,13.7516,13.7367,13.6993,13.6245,13.5348,13.4675,13.3628,13.2656,13.2282,13.2207,13.1459,13.0188,12.9141,12.8319,12.8319,12.8244,12.8169,12.8094,12.8094,14.7985,14.7686,14.7686,14.7686,14.7686,14.7686,14.7686,14.7686,14.7686,14.7686,14.7686,14.7686,14.7686,14.7686,14.7686,14.7686,14.7686,14.7686,14.7686,14.7686,14.7686,14.7686,14.7686,14.7686,14.7686,14.7686,14.7611,14.7536,14.7686,14.7686,14.7686,14.7686,14.7686,14.7686,14.7686,14.7686,14.7686,14.7686,14.7686,14.7686,14.7686,14.7686,14.7686,14.7686,14.7686,14.7686,14.7686,14.7686,14.7686,14.7686,14.7686,14.7686,14.7761,14.8135,14.806,14.7835,14.7536,14.7013,14.5966,14.5293,14.3573,14.1554,14.0358,13.9535,13.8339,13.7815,13.7815,13.7815,13.7815,13.7815,13.7815,13.7815,13.7815,13.7815,13.7815,13.7815,13.7965,13.8594,14.0206,14.2681,14.4421,14.594,14.7762,14.9053,14.9281,14.8522,14.6395,14.4188,14.2788,14.144,13.9765,13.919,13.9031,13.877,13.8495,13.8247,13.7868,13.7845,13.7516,13.6768,13.6544,13.6021,13.5796,13.5198,13.4749,13.4076,13.2805,13.1534,13.0412,12.9365,12.8842,12.8468,12.8244,12.8094,12.8094,14.9014,14.7686,14.7686,14.7686,14.7686,14.7686,14.7686,14.7686,14.7686,14.7686,14.7686,14.7686,14.7686,14.7686,14.7686,14.7686,14.7686,14.7686,14.7686,14.7686,14.7686,14.7686,14.7686,14.7686,14.7686,14.7686,14.7686,14.7686,14.7686,14.7686,14.7686,14.7686,14.7686,14.7686,14.7686,14.7686,14.7686,14.7686,14.7686,14.7686,14.7686,14.7686,14.7686,14.7761,14.7835,14.7985,14.7985,14.806,14.791,14.7686,14.7686,14.7686,14.806,14.8808,14.9331,14.7761,14.7686,14.7462,14.6938,14.5966,14.4545,14.2751,14.1255,13.9685,13.8264,13.7815,13.7815,13.7815,13.7815,13.7815,13.7815,13.789,13.789,13.7815,13.7815,13.7815,13.7965,13.8541,13.9965,14.2029,14.4269,14.6244,14.799,14.9433,14.966,14.9281,14.6699,14.464,14.3721,14.2466,14.0494,13.9433,13.9363,13.9169,13.8884,13.8568,13.8196,13.8022,13.774,13.7516,13.7441,13.7067,13.6918,13.6918,13.6544,13.5647,13.445,13.3254,13.1908,13.0562,12.9889,12.944,12.8842,12.8169,12.8244,14.9239,14.7761,14.7686,14.7686,14.7686,14.7686,14.7686,14.7686,14.7686,14.7686,14.7686,14.7686,14.7686,14.7686,14.7686,14.7686,14.7686,14.7686,14.7686,14.7686,14.7686,14.7686,14.7686,14.7686,14.7686,14.7686,14.7686,14.7686,14.7686,14.7686,14.7686,14.7686,14.7686,14.7686,14.7686,14.7686,14.7686,14.7686,14.7686,14.7686,14.7686,14.7686,14.7686,14.7761,14.8583,14.9089,14.9164,14.9687,14.9762,14.9313,14.9032,14.9107,14.9256,14.8957,14.8583,14.7835,14.7686,14.7686,14.7686,14.6863,14.5443,14.305,14.2152,14.0283,13.8563,13.7815,13.7815,13.7815,13.7815,13.7965,13.8114,13.8264,13.8264,13.8189,13.8114,13.804,13.8189,13.9514,14.1167,14.2958,14.4801,14.6699,14.8218,14.9509,14.9888,14.966,14.7231,14.5105,14.4269,14.2599,14.0701,13.9713,13.9638,13.9485,13.9274,13.8895,13.8404,13.8222,13.7943,13.7815,13.7815,13.7815,13.789,13.774,13.7494,13.6746,13.6021,13.5048,13.3852,13.2532,13.1335,13.0612,12.9838,12.9053,12.8754,14.8939,14.7686,14.7686,14.7686,14.7686,14.7686,14.7686,14.7686,14.7686,14.7686,14.7686,14.7686,14.7686,14.7686,14.7686,14.7686,14.7686,14.7686,14.7686,14.7686,14.7686,14.7686,14.7686,14.7686,14.7686,14.7686,14.7686,14.7686,14.7686,14.7686,14.7686,14.7686,14.7686,14.7686,14.7686,14.7686,14.7686,14.7686,14.7686,14.7686,14.7686,14.7686,14.7686,14.7835,14.8864,14.9687,15.0361,15.1408,15.1839,15.1558,15.1707,15.1649,15.0752,14.9705,14.9256,14.8957,14.8508,14.791,14.8135,14.7761,14.634,14.3424,14.2526,14.1459,13.8264,13.7815,13.789,13.7965,13.7965,13.8114,13.8488,13.8787,13.8696,13.8593,13.8496,13.8369,13.8491,13.9933,14.1925,14.389,14.5788,14.7686,14.966,15.004,14.9888,14.966,14.799,14.5864,14.4118,14.2447,14.108,13.9865,13.9789,13.9766,13.9505,13.9151,13.8738,13.847,13.7995,13.7815,13.7815,13.7815,13.7965,13.804,13.8121,13.7793,13.7195,13.6245,13.58,13.4427,13.3175,13.2126,13.1048,12.9918,12.9476,14.7835,14.7686,14.7686,14.7686,14.7686,14.7686,14.7686,14.7686,14.7686,14.7686,14.7686,14.7686,14.7686,14.7686,14.7686,14.7686,14.7686,14.7686,14.7686,14.7686,14.7686,14.7686,14.7686,14.7686,14.7686,14.7686,14.7686,14.7686,14.7686,14.7686,14.7686,14.7686,14.7686,14.7686,14.7686,14.7686,14.7686,14.7686,14.7686,14.7686,14.7686,14.7686,14.7686,14.7761,14.8209,14.8825,15.017,15.1067,15.2098,15.44,15.6121,15.479,15.2546,15.2173,15.1873,15.1425,14.9331,14.8359,14.9331,14.8135,14.619,14.3424,14.2676,14.1384,13.8787,13.789,13.804,13.8264,13.8339,13.8522,13.8845,13.8921,13.8975,13.8934,13.8944,13.8912,13.898,13.931,14.0916,14.389,14.4877,14.6851,14.8901,15.0116,15.0116,14.9812,14.837,14.6395,14.4725,14.2979,14.1536,14.0321,13.9941,13.9941,13.9638,13.9334,13.9011,13.8695,13.8219,13.7815,13.7815,13.7965,13.8114,13.8271,13.8386,13.8279,13.7993,13.7922,13.7522,13.6436,13.5055,13.3733,13.2598,13.1842,13.1476,14.8583,14.7686,14.7686,14.7686,14.7686,14.7686,14.7686,14.7686,14.7686,14.7686,14.7686,14.7686,14.7686,14.7686,14.7686,14.7686,14.7686,14.7686,14.7686,14.7686,14.7686,14.7686,14.7686,14.7686,14.7686,14.7686,14.7686,14.7686,14.7686,14.7686,14.7686,14.7686,14.7686,14.7686,14.7686,14.7686,14.7686,14.7686,14.7686,14.7686,14.7686,14.7686,14.7686,14.7761,14.7761,14.9032,15.1574,15.3519,15.5089,15.6061,15.6211,15.5612,15.4042,15.2397,15.1649,15.2397,14.9497,14.8003,14.8359,14.7237,14.4844,14.2227,14.1459,14.0262,13.8713,13.8189,13.8339,13.8621,13.873,13.8925,13.9158,13.9178,13.9203,13.9309,13.9419,13.9529,13.9518,14.1308,14.3206,14.4725,14.6547,14.8673,14.9736,15.004,15.0116,14.9812,14.8597,14.7079,14.5332,14.3586,14.1991,14.0625,13.9941,13.9941,13.9713,13.9334,13.8959,13.8818,13.8339,13.7815,13.789,13.804,13.8392,13.877,13.8747,13.8765,13.8744,13.8674,13.8558,13.8149,13.703,13.5854,13.5119,13.4393,13.418,14.8939,14.7761,14.7686,14.7686,14.7686,14.7686,14.7686,14.7686,14.7686,14.7686,14.7686,14.7686,14.7686,14.7686,14.7686,14.7686,14.7686,14.7686,14.7686,14.7686,14.7686,14.7686,14.7686,14.7686,14.7686,14.7686,14.7686,14.7686,14.7686,14.7686,14.7686,14.7686,14.7686,14.7686,14.7686,14.7686,14.7686,14.7686,14.7686,14.7686,14.7686,14.7686,14.791,14.8284,14.8434,14.9837,15.2513,15.5522,15.7108,15.7407,15.636,15.5762,15.5538,15.292,15.2247,15.3294,15.1067,14.8974,14.8957,14.7593,14.4825,14.1758,14.1159,14.0037,13.8766,13.8571,13.8719,13.901,13.9099,13.9173,13.9486,13.9562,13.9486,13.9584,13.9716,14.0093,14.0928,14.2903,14.4801,14.5788,14.7762,14.9053,14.9812,15.0116,15.0116,14.9888,14.8977,14.761,14.5636,14.3814,14.2523,14.1156,13.9941,13.9941,13.9713,13.9334,13.8991,13.8893,13.8787,13.8413,13.8787,13.9012,13.9394,13.9334,13.9182,13.9258,13.9334,13.9334,13.941,13.9354,13.8738,13.8594,13.7836,13.7056,13.6828,14.7835,14.7761,14.7686,14.7686,14.7686,14.7686,14.7686,14.7686,14.7686,14.7686,14.7686,14.7686,14.7686,14.7686,14.7686,14.7686,14.7686,14.7686,14.7686,14.7686,14.7686,14.7686,14.7686,14.7686,14.7686,14.7686,14.7686,14.7686,14.7686,14.7686,14.7686,14.7686,14.7686,14.7686,14.7686,14.7686,14.7686,14.7686,14.7686,14.7686,14.7686,14.7686,14.8359,14.9912,14.9987,15.0809,15.2812,15.4715,15.63,15.7407,15.7482,15.7257,15.6884,15.464,15.4251,15.6745,15.3519,15.1877,15.2026,14.9345,14.6418,14.3118,14.1542,14.0614,13.9213,13.8966,13.9079,13.9325,13.9334,13.9486,13.9789,13.9865,13.9865,13.9865,13.9865,14.0549,14.1991,14.2523,14.4345,14.6547,14.7534,14.8294,14.9888,15.004,15.0116,15.004,14.9888,14.799,14.6016,14.4421,14.313,14.1612,14.0093,13.9865,13.9713,13.9297,13.8936,13.9121,13.961,13.9834,14.0432,14.0711,14.0966,14.0093,13.9562,13.9713,13.9789,13.9789,13.9789,14.0473,14.0928,14.108,14.0625,13.9789,13.9334,14.7686,14.7686,14.7686,14.7686,14.7686,14.7686,14.7686,14.7686,14.7686,14.7686,14.7686,14.7686,14.7686,14.7686,14.7686,14.7686,14.7686,14.7686,14.7686,14.7686,14.7686,14.7686,14.7686,14.7686,14.7686,14.7686,14.7686,14.7686,14.7686,14.7686,14.7686,14.7686,14.7686,14.7686,14.7686,14.7686,14.7686,14.7686,14.7686,14.7686,14.7686,14.7686,14.8508,14.9987,15.0245,15.1665,15.4117,15.5837,15.7033,15.7482,15.7631,15.7631,15.7407,15.4939,15.4179,15.5244,15.2651,14.9573,14.8922,14.7276,14.4228,14.146,14.0189,13.962,13.941,13.9258,13.9438,13.9638,13.9713,13.9789,13.9941,13.9941,13.9941,13.9941,13.9941,14.0245,14.1004,14.2751,14.5029,14.7003,14.8446,14.9281,14.9888,15.0116,15.0116,15.0116,15.004,14.8825,14.6092,14.5029,14.2979,14.1156,14.0169,13.9865,13.9713,13.9387,13.8975,13.962,14.0711,14.1704,14.2239,14.2492,14.2599,14.1764,14.0701,14.0852,14.1232,14.1004,14.108,14.184,14.2751,14.2827,14.2903,14.2219,14.1232,14.7686,14.7686,14.7686,14.7686,14.7686,14.7686,14.7686,14.7686,14.7686,14.7686,14.7686,14.7686,14.7686,14.7686,14.7686,14.7686,14.7686,14.7686,14.7686,14.7686,14.7686,14.7686,14.7686,14.7686,14.7686,14.7686,14.7686,14.7686,14.7686,14.7686,14.7686,14.7686,14.7686,14.7686,14.7686,14.7686,14.7686,14.7686,14.7686,14.7686,14.7761,14.8209,14.9313,15.0809,15.1516,15.31,15.5702,15.7033,15.7631,15.7631,15.7631,15.7407,15.6584,15.4207,15.3273,15.3932,15.0663,14.7886,14.6682,14.5215,14.3172,14.0778,13.9628,13.9405,13.9562,13.9562,13.9713,13.9865,13.9941,13.9941,13.9941,13.9941,13.9941,13.9941,13.9941,13.9941,14.0397,14.2903,14.5712,14.7914,14.9357,14.9964,15.0116,15.0116,15.0116,15.0116,15.004,14.9129,14.6547,14.5484,14.3738,14.1308,14.0397,13.9865,13.9965,13.9877,13.9876,14.0569,14.2485,14.4171,14.4243,14.44,14.4379,14.3814,14.2675,14.2371,14.2827,14.2979,14.3206,14.3738,14.4345,14.4649,14.4801,14.4118,14.2903,14.7686,14.7686,14.7686,14.7686,14.7686,14.7686,14.7686,14.7686,14.7686,14.7686,14.7686,14.7686,14.7686,14.7686,14.7686,14.7761,14.7835,14.7835,14.7835,14.7835,14.7835,14.7835,14.7835,14.7835,14.7835,14.7835,14.7761,14.7761,14.7761,14.7761,14.7686,14.7686,14.7686,14.7686,14.7686,14.7761,14.7761,14.791,14.7761,14.7835,14.791,14.9313,15.0866,15.2588,15.4117,15.5702,15.7407,15.7557,15.7631,15.7631,15.7557,15.7033,15.5702,15.3094,15.1519,15.1498,14.9205,14.7686,14.7155,14.5636,14.3814,14.1991,14.0701,13.9865,13.9865,13.9865,13.9865,13.9941,13.9941,13.9941,13.9941,13.9941,13.9941,13.9941,13.9941,13.9941,14.0549,14.2903,14.6168,14.8749,14.9888,15.004,15.0116,15.0116,15.0116,15.0116,15.004,14.9281,14.7458,14.5864,14.4421,14.2599,14.1004,14.0017,14.0066,14.0435,14.0928,14.1844,14.4484,14.6268,14.6314,14.6432,14.6382,14.5712,14.4573,14.3966,14.4421,14.4042,14.4421,14.5788,14.5864,14.632,14.556,14.4573,14.3738,14.7686,14.7686,14.7686,14.7686,14.7686,14.7686,14.7686,14.7686,14.7686,14.7686,14.7686,14.7686,14.7686,14.7686,14.7686,14.7985,14.8434,14.849,14.8508,14.8508,14.8508,14.8508,14.8508,14.8508,14.8508,14.849,14.8508,14.8359,14.8135,14.7835,14.7761,14.7761,14.7686,14.7686,14.7686,14.7686,14.8359,14.9089,14.8284,14.8939,15.0717,15.051,15.1483,15.4042,15.5986,15.7108,15.7557,15.7631,15.7631,15.7482,15.6524,15.5851,15.5489,15.3069,15.1214,15.0192,14.8522,14.6623,14.4497,14.3662,14.2599,14.0928,14.0245,13.9941,13.9941,13.9941,13.9941,13.9941,13.9941,13.9941,13.9941,13.9941,13.9941,13.9941,13.9941,13.9941,14.0093,14.1991,14.4269,14.6547,14.8673,14.9964,15.0116,15.0116,15.0116,15.0116,15.0116,14.9357,14.7762,14.6092,14.4421,14.2751,14.108,14.0093,14.0169,14.184,14.2972,14.4443,14.673,14.7831,14.8316,14.8495,14.8294,14.7534,14.6775,14.6092,14.556,14.5105,14.6168,14.799,14.7838,14.6699,14.5788,14.4801,14.3434,14.5966,14.5984,14.5966,14.634,14.6714,14.619,14.6714,14.7611,14.7237,14.7312,14.7835,14.806,14.8135,14.8042,14.6893,14.6609,14.706,14.706,14.706,14.706,14.706,14.706,14.706,14.706,14.706,14.7135,14.7135,14.7193,14.7443,14.7387,14.7462,14.7835,14.7985,14.7835,14.7761,14.7686,14.8508,14.9987,14.9256,14.9912,15.2213,15.2231,15.3294,15.5926,15.7108,15.7631,15.7631,15.7631,15.7332,15.6748,15.5851,15.5178,15.4704,15.2901,15.0951,14.8977,14.7458,14.5408,14.2979,14.2523,14.1764,14.0169,13.9941,13.9941,14.0017,14.0549,14.0852,14.0928,14.0852,14.0852,14.0852,14.0852,14.0625,14.0093,13.9941,13.9941,14.0321,14.1991,14.3738,14.5181,14.799,15.004,15.0116,15.0116,15.0116,15.0116,15.0116,14.9281,14.7762,14.6092,14.4421,14.2751,14.108,14.0169,14.0625,14.3054,14.5143,14.6684,14.8142,14.9053,14.9357,14.9357,14.9433,14.8673,14.8597,14.8066,14.7914,14.7458,14.7155,14.8522,14.7762,14.6699,14.5788,14.4042,14.2751,14.2994,14.3013,14.292,14.3947,14.5069,14.3723,14.477,14.7237,14.619,14.6581,14.7766,14.8261,14.8656,14.8268,14.5484,14.3947,14.4023,14.4201,14.4277,14.4277,14.4174,14.3947,14.3872,14.3872,14.4023,14.4428,14.4526,14.5068,14.6265,14.6246,14.69,14.8132,14.8023,14.7985,14.7835,14.7761,14.8583,15.0211,15.0228,15.1126,15.2887,15.4491,15.5851,15.7332,15.7631,15.7557,15.7482,15.7482,15.6748,15.5104,15.5178,15.4683,15.3322,15.2206,15.0496,14.8066,14.6168,14.4497,14.2979,14.2751,14.1991,14.0473,14.0473,14.0245,14.0473,14.1688,14.2523,14.2599,14.2751,14.2903,14.2903,14.2523,14.1688,14.0473,14.0093,13.9941,14.0017,14.2599,14.4573,14.5484,14.7762,14.9585,15.004,15.0116,15.0116,15.0116,14.9964,14.9281,14.7686,14.594,14.4269,14.2599,14.1232,14.0549,14.2295,14.3966,14.5484,14.7233,14.8901,14.9888,14.9812,14.9812,14.9964,14.9964,14.9736,14.9736,14.9964,14.966,14.8977,14.799,14.7231,14.556,14.3966,14.2827,14.184,14.4265,14.3312,14.3443,14.3797,14.4171,14.3742,14.4116,14.4844,14.4564,14.4657,14.508,14.5192,14.5583,14.5908,14.5179,14.4683,14.4683,14.4683,14.4683,14.4683,14.4683,14.4649,14.4683,14.4683,14.4683,14.4701,14.462,14.4768,14.488,14.4714,14.5328,14.6667,14.6638,14.7088,14.7985,14.7835,14.9089,15.154,15.0827,15.2247,15.5687,15.6734,15.7183,15.7631,15.7631,15.7108,15.5926,15.5776,15.5178,15.3773,15.2696,15.2206,15.2092,15.0846,14.9888,14.9281,14.7762,14.6092,14.4421,14.4345,14.3586,14.2143,14.2979,14.313,14.2371,14.3358,14.4269,14.4421,14.5408,14.6016,14.5864,14.3966,14.2447,14.184,14.0625,13.9941,14.0093,14.1764,14.3738,14.4953,14.7155,14.8673,14.9736,15.0116,15.004,14.9812,14.8977,14.7914,14.7307,14.5029,14.3054,14.2523,14.108,14.1232,14.3738,14.4801,14.632,14.8218,14.9357,15.004,14.9964,14.9964,15.0116,15.0116,15.0116,15.004,14.9736,14.9736,14.9357,14.7686,14.556,14.3358,14.2447,14.1384,14.0625,14.2825,14.2451,14.2037,14.2189,14.2671,14.2145,14.2596,14.3736,14.3269,14.3485,14.396,14.3487,14.3119,14.2903,14.2979,14.2979,14.2979,14.2903,14.2979,14.2903,14.2979,14.2979,14.2979,14.2979,14.2979,14.2903,14.2911,14.2842,14.2712,14.3063,14.403,14.5396,14.5303,14.5896,14.7219,14.7761,14.9463,15.2438,15.2322,15.3982,15.7183,15.7631,15.7332,15.6673,15.6599,15.5851,15.4296,15.4266,15.3668,15.238,15.1585,15.1114,15.0875,15.0192,14.9812,14.9964,14.9129,14.7838,14.6168,14.6016,14.5332,14.3662,14.4421,14.4649,14.3662,14.5105,14.6395,14.6927,14.7383,14.7534,14.7383,14.5712,14.4269,14.3434,14.1991,14.1308,14.1916,14.2979,14.4193,14.5864,14.7534,14.9053,14.9812,15.0116,14.9812,14.8901,14.7534,14.6168,14.5408,14.3814,14.2295,14.1536,14.0625,14.146,14.4118,14.4953,14.6547,14.8977,15.0116,15.0116,15.004,15.0116,15.004,15.0116,14.9433,14.8977,14.9053,14.8597,14.7762,14.6623,14.4193,14.2219,14.1536,14.0625,14.0093,14.0441,14.1454,14.0219,14.0091,14.1352,14.0091,14.1226,14.3645,14.2702,14.3054,14.4269,14.3054,14.1688,14.0321,14.0169,14.0093,14.0093,13.9941,14.0017,14.0093,13.9941,13.9941,14.0093,14.0093,13.9941,14.0093,14.0093,14.0245,14.0321,14.1536,14.2827,14.389,14.4118,14.4663,14.5789,14.7312,14.9538,15.2363,15.4117,15.5702,15.7108,15.7183,15.6374,15.4954,15.4954,15.4132,15.2502,15.268,15.2176,15.087,15.1163,15.0875,14.9812,14.9888,15.004,14.9812,14.9736,14.8977,14.7231,14.7079,14.632,14.5181,14.5181,14.5256,14.5332,14.632,14.7762,14.8673,14.799,14.7307,14.7534,14.7231,14.6244,14.4877,14.313,14.2827,14.3814,14.4649,14.5332,14.6927,14.799,14.9585,14.9129,14.9205,14.8825,14.7458,14.5864,14.4421,14.3282,14.2371,14.1536,14.0473,13.9941,14.1384,14.4118,14.4953,14.6471,14.9281,15.0116,15.0116,14.9964,14.9964,14.9812,14.9205,14.8446,14.7383,14.7003,14.6168,14.5181,14.4725,14.3586,14.1991,14.0473,13.9941,13.9941,14.3475,14.3639,14.2254,14.1888,14.2192,14.1812,14.2799,14.4697,14.4421,14.4497,14.4649,14.3206,14.2295,14.1764,14.0549,13.9941,13.9941,13.9941,13.9941,13.9941,13.9941,13.9941,13.9941,13.9941,13.9941,13.9941,13.9941,13.9941,14.0017,14.0321,14.0701,14.1004,14.1991,14.3242,14.4714,14.6059,14.8227,15.0992,15.2727,15.3683,15.3743,15.3743,15.3534,15.3175,15.3145,15.238,15.0901,15.0884,15.0413,14.9428,14.9491,14.966,14.9888,15.004,14.9433,14.8294,14.8066,14.6851,14.3966,14.3586,14.4042,14.4877,14.6244,14.6927,14.6775,14.4953,14.4345,14.5788,14.5864,14.6092,14.7079,14.6395,14.5408,14.4953,14.2371,14.108,14.1156,14.2295,14.3282,14.3662,14.5105,14.6244,14.6168,14.6168,14.6092,14.5484,14.4118,14.3054,14.2447,14.1308,14.0549,14.0017,13.9941,14.1308,14.4269,14.4953,14.6471,14.9509,15.004,14.9888,14.9736,14.8825,14.8218,14.7914,14.6699,14.5788,14.556,14.5105,14.4421,14.3282,14.2675,14.184,14.0321,13.9941,13.9941,14.4649,14.4573,14.3966,14.3586,14.3662,14.3662,14.4193,14.5105,14.6623,14.6851,14.6016,14.4345,14.3206,14.2447,14.1536,14.108,14.1156,14.1916,14.2219,14.2219,14.146,14.1156,14.108,14.0321,13.9941,13.9941,13.9941,13.9941,13.9941,13.9941,13.9941,14.0093,14.146,14.3318,14.5511,14.7038,14.8771,15.0677,15.0261,15.0261,15.0602,15.0492,14.9987,14.9289,15.0809,15.0435,14.806,14.8939,14.844,14.6649,14.7542,14.761,14.6699,14.6623,14.5864,14.4193,14.4042,14.3282,14.1384,14.1308,14.1688,14.2675,14.4269,14.4877,14.4118,14.2371,14.2371,14.4649,14.351,14.3662,14.6016,14.556,14.4953,14.4953,14.2675,14.146,14.2143,14.2599,14.2827,14.3586,14.4421,14.4953,14.4953,14.4953,14.4801,14.389,14.3206,14.2143,14.1384,14.0473,13.9941,13.9941,13.9941,14.1384,14.4269,14.4953,14.6471,14.9509,14.9433,14.8901,14.8825,14.7534,14.6547,14.6244,14.5029,14.4042,14.389,14.3282,14.2447,14.1384,14.1308,14.108,14.0321,13.9941,13.9941,14.5408,14.5332,14.5408,14.5332,14.5408,14.5332,14.5408,14.5636,14.8446,14.9053,14.7762,14.5864,14.4193,14.2827,14.2371,14.2143,14.2219,14.3662,14.4269,14.4193,14.2827,14.2143,14.2067,14.0625,14.0093,14.0321,14.0017,14.0093,14.0245,14.0093,14.0093,14.0473,14.1764,14.386,14.6563,14.841,14.9704,15.0567,14.8094,14.733,14.8322,14.8036,14.6709,14.4639,14.791,14.806,14.4134,14.6714,14.6714,14.3443,14.4642,14.4497,14.2219,14.1232,14.0397,13.9638,13.9182,13.8726,13.8195,13.8423,13.8499,13.8347,14.0385,14.0598,13.8092,13.8038,13.9638,14.2751,14.0701,14.0625,14.3814,14.4421,14.4421,14.4118,14.2903,14.2523,14.3282,14.2599,14.2523,14.3738,14.4269,14.4118,14.3966,14.4042,14.351,14.2447,14.1916,14.1612,14.0473,13.9941,13.9941,13.9941,13.9941,14.1232,14.3662,14.4649,14.5712,14.8901,14.8066,14.7155,14.7231,14.5788,14.4725,14.4649,14.3282,14.2295,14.2067,14.0928,14.0397,14.0245,14.0169,14.0093,14.0017,13.9941,13.9941,14.7079,14.7079,14.7079,14.7079,14.7079,14.7079,14.7079,14.7155,14.7686,0.0,0.0,14.6395,14.4877,14.4421,14.1612,14.0397,14.0397,14.0701,14.0852,14.0852,14.0549,14.0397,14.0397,14.0093,14.0701,14.1916,14.0625,14.0701,14.1916,14.0625,14.0625,14.1916,14.2295,14.3426,14.535,14.707,14.8491,14.9575,14.9181,14.8901,14.8769,14.8444,14.5414,13.9763,14.5162,14.4732,13.7635,14.4376,14.5703,14.0193,13.9091,13.9106,14.0093,13.5234,13.3943,13.736,13.5385,13.2652,12.9918,13.0981,13.1209,12.9842,13.5035,13.516,12.7819,12.8796,13.1133,13.4474,13.5537,13.7284,14.0549,14.2067,14.2371,14.1004,14.0549,13.9865,13.8954,13.9638,14.0321,14.0777,14.0852,14.0852,14.0928,14.0928,14.0701,14.0473,14.0549,14.0245,14.0017,13.9941,13.9941,13.9941,13.9789,14.0549,14.2371,14.2903,14.3738,14.5636,14.5712,14.5484,14.5181,14.4042,14.3054,14.2903,14.1536,14.0625,14.0397,14.0245,13.9941,13.9941,13.9941,13.9941,13.9941,13.9941,13.9789,14.7838,14.632,14.7155,14.7003,0.0,14.6244,14.632,14.6244,14.6244,14.6244,14.6092,14.3586,14.1991,14.108,13.941,13.865,13.8726,14.0473,14.1232,14.1308,14.2067,14.2523,14.2523,14.1612,14.1688,14.2371,14.0777,14.0397,14.1232,14.1232,14.1688,14.2523,14.4193,14.4573,14.389,14.7079,14.9145,14.98,14.7873,14.6864,14.6625,14.6272,14.4469,14.1444,14.5616,0.0,0.0,0.0,0.0,0.0,0.0,0.0,0.0,0.0,0.0,12.5894,11.982,11.496,11.2682,11.3138,11.4623,11.7067,12.025,12.0191,11.5988,12.206,12.6086,12.6274,12.9311,13.2272,13.4702,13.5689,13.5841,13.5082,13.493,13.4626,13.3943,13.4474,13.5234,13.6069,13.6904,13.7739,13.8575,13.9334,13.9941,13.9941,13.9941,13.9941,13.9941,13.9941,13.9941,13.9941,13.9334,13.9334,14.0777,14.0625,14.0701,14.2903,14.3054,14.2903,14.3586,14.2295,14.1232,14.1156,14.0549,13.9941,13.9941,13.9941,13.9941,13.9941,13.9941,13.9562,13.7815,13.7436,13.7436,14.7307,14.4725,14.6395,14.6244,14.4877,14.3586,14.351,14.4118,14.4421,14.3738,14.2371,14.0093,13.8043,13.6524,13.6221,13.6221,13.6676,13.941,14.0777,14.108,14.2827,14.3586,14.351,14.2523,14.2219,14.2371,14.0777,14.0245,14.0928,14.1991,14.2827,14.351,14.6168,14.632,14.4193,0.0,0.0,0.0,14.6725,14.5488,14.5484,14.5105,14.4331,14.3197,14.6512,0.0,14.277,14.444,14.2879,13.7511,13.8423,0.0,0.0,0.0,0.0,0.0,0.0,0.0,0.0,0.0,0.0,0.0,10.2636,10.2859,10.4635,11.4148,11.9215,11.7031,12.2359,12.6471,12.7564,12.8476,12.8779,12.8248,12.8628,12.8853,12.859,12.9159,13.0197,13.1893,13.3487,13.5006,13.6297,13.7946,13.8954,13.8802,13.9258,13.9334,13.903,13.8878,13.8954,13.8954,13.7739,13.7511,13.8802,13.7891,13.8119,14.0017,13.9789,13.9713,14.0928,14.0093,13.903,13.9486,13.9486,13.941,13.8954,13.9258,13.9258,13.9106,13.8954,13.8271,13.5689,13.5006,13.5006,14.4573,14.2979,14.4649,14.5181,14.4573,13.8726,13.7891,14.0701,14.2143,14.2675,14.2219,13.7739,13.4778,13.3107,13.1665,13.1817,13.3183,13.3639,13.455,13.5993,13.7663,13.8347,13.8423,13.9638,14.108,14.2371,14.0777,14.146,14.4269,14.313,14.3966,14.6775,14.7383,14.8066,14.8977,14.6775,14.5636,14.5712,14.8129,14.9344,14.9357,14.8977,14.6013,14.0667,14.576,14.5227,13.7986,14.2008,14.2279,13.7208,13.212,12.9691,13.0146,12.111,11.4201,0.0,10.5241,0.0,0.0,0.0,0.0,0.0,0.0,0.0,0.0,10.106,10.4452,10.4513,11.4298,12.0123,11.9132,12.3009,12.4375,12.1414,12.354,12.4688,12.338,12.5716,12.8262,13.0141,13.1817,13.288,13.3183,13.4642,13.5669,13.5917,13.6828,13.7056,13.5993,13.5765,13.5917,13.5537,13.5309,13.5461,13.5689,13.5537,13.5461,13.5689,13.5689,13.6145,13.7739,13.6752,13.6145,13.736,13.7739,13.7284,13.5917,13.6904,13.7284,13.6221,13.5841,13.5461,13.4854,13.4702,13.5082,14.3434,14.108,14.0852,13.9182,13.6373,13.25,13.2196,13.4474,13.5234,13.5537,13.5309,13.0298,12.6122,12.2781,12.3768,12.4629,12.5527,12.8314,13.0468,13.2348,13.5841,13.7891,13.8878,14.0549,14.1232,14.1004,13.9334,13.8878,13.941,13.9638,14.0928,14.3282,14.3358,14.184,13.9258,14.2979,14.4953,14.5029,14.837,15.0116,15.004,14.9888,14.8446,14.556,14.7914,14.6269,14.0015,14.1858,14.0852,13.6145,13.2348,12.9842,12.84,11.3062,10.4481,0.0,0.0,0.0,0.0,0.0,0.0,0.0,0.0,0.0,0.0,0.0,9.1839,9.8471,10.9757,11.3876,10.6878,11.0752,11.3138,11.1391,10.9226,10.982,11.4448,11.4633,11.6267,12.0756,12.4361,12.7312,12.9334,13.1778,13.3697,13.482,13.4782,13.3791,13.1665,13.3411,13.5082,13.493,13.493,13.4702,13.3791,13.2956,13.2272,13.2196,13.2196,13.2424,13.3183,13.3487,13.3867,13.4626,13.5461,13.5917,13.5309,13.5689,13.5841,13.493,13.3563,13.2424,13.2196,13.2272,13.2272,14.0321,13.7208,13.2728,12.9007,12.5818,12.4907,12.5742,12.7716,12.8476,12.8324,12.7337,12.316,11.7921,11.2378,11.3642,11.5022,11.6739,12.1392,12.5146,12.8397,13.2872,13.5689,13.7056,13.8726,13.8878,13.7587,13.5841,13.4854,13.4398,13.5234,13.6145,13.6828,13.4474,13.1817,12.9235,13.6357,14.1747,14.5029,14.7914,14.966,15.004,15.0116,15.0116,15.0116,14.9357,14.7307,14.389,14.2219,13.9638,13.5841,13.1361,12.7109,12.2781,10.4405,0.0,0.0,0.0,0.0,0.0,0.0,0.0,0.0,0.0,7.3133,6.3561,0.0,8.157,0.0,10.342,10.7204,9.9705,10.1672,0.0,0.0,9.6788,9.6003,10.3048,10.3465,10.5368,11.1279,11.6656,12.1137,12.4291,12.7913,13.0594,13.1554,13.1076,12.9915,12.8008,13.1184,13.3867,13.3715,13.3639,13.3259,13.212,13.083,12.9994,12.9539,12.9083,12.9007,12.9387,13.0222,13.0905,13.1361,13.2728,13.3563,13.3183,13.3943,13.3943,13.2652,13.0905,12.9463,12.9463,12.9842,13.007,13.25,12.9767,11.739,11.291,11.4049,11.5491,11.7845,12.0958,12.3996,12.3692,12.0655,11.8681,11.3289,10.5316,10.0847,0.0,10.7918,11.1352,11.6427,12.2826,12.6305,12.8172,12.8628,13.0222,13.0981,13.0754,12.9083,12.9842,13.25,13.1285,12.9918,12.8324,11.906,11.8073,12.4983,12.5909,13.2462,14.4801,14.6775,14.8522,15.004,15.0116,15.0116,15.004,14.8522,14.7458,14.7003,14.2599,13.9182,13.698,12.5287,11.5719,10.9189,0.0,0.0,0.0,0.0,0.0,0.0,0.0,0.0,0.0,0.0,0.0,0.0,0.0,0.0,0.0,9.2035,0.0,10.3681,10.1636,0.0,0.0,0.0,8.9203,8.8526,9.4923,10.0845,10.471,0.0,0.0,11.7278,12.1977,12.4594,12.2971,12.4224,12.5683,12.6989,12.8994,13.045,13.0526,13.045,13.0374,13.0146,12.9767,12.9007,12.7868,12.6426,12.6046,12.7185,12.6729,12.635,12.764,12.9311,12.9994,12.84,13.0602,13.1361,12.6805,12.6881,12.7716,12.7792,12.8703,12.9615,11.7997,10.6759,9.9394,9.8407,10.1596,10.0205,10.3895,11.0858,11.2197,11.0916,10.7746,10.6,10.0555,9.2417,8.8193,0.0,0.0,0.0,10.4761,11.1555,11.4839,11.9042,12.3929,12.5906,12.6273,12.5239,12.4697,12.4679,12.4907,12.4299,11.6554,10.2279,0.0,0.0,10.6903,11.7681,12.6818,13.4246,14.2979,14.7838,14.8522,14.9585,14.9585,14.8597,14.7914,14.5105,14.0093,13.8043,13.25,12.2781,11.534,10.6987,0.0,0.0,0.0,0.0,0.0,0.0,0.0,0.0,0.0,0.0,0.0,5.7953,5.0849,0.0,0.0,0.0,7.2747,7.6245,8.1455,8.7047,0.0,0.0,0.0,0.0,0.0,0.0,0.0,9.4129,10.1551,10.7278,11.0088,11.414,11.6588,11.575,12.0041,12.3579,12.4261,0.0,12.8476,12.8476,12.8552,12.8172,12.7185,12.5287,12.4451,12.5742,12.4603,12.3464,12.3085,12.3312,12.3692,12.4451,12.5818,12.6805,12.6122,12.6198,12.5666,12.392,12.4679,12.5742,12.5742,12.6079,12.6418,10.1292,0.0,0.0,0.0,0.0,8.7411,9.0996,9.8318,9.8779,9.7167,9.3989,9.2675,0.0,0.0,0.0,0.0,0.0,0.0,9.5492,10.224,10.7471,11.3241,11.9492,12.106,12.0819,11.9285,11.9536,11.7765,11.4125,11.0781,10.0138,8.3094,0.0,0.0,0.0,0.0,12.0285,12.6729,13.941,14.6547,14.7534,14.966,14.9964,14.8294,14.6851,14.2827,13.5841,13.2424,12.4831,11.2378,10.4481,0.0,0.0,0.0,0.0,0.0,0.0,0.0,0.0,0.0,0.0,0.0,0.0,0.0,0.0,0.0,0.0,0.0,0.0,0.0,6.7299,7.5951,7.9648,0.0,0.0,0.0,0.0,0.0,0.0,0.0,0.0,0.0,9.979,10.4659,10.8594,0.0,0.0,12.1056,12.1559,12.4148,12.6046,12.6046,12.5287,0.0,12.2401,12.0883,12.0427,12.187,12.1946,12.0351,11.6327,11.7845,11.9135,11.7618,12.0029,12.1547,12.01,11.805,11.6554,11.6679,11.7751,11.8734,11.8978,12.0247,12.1325,0.0,0.0,0.0,0.0,0.0,0.0,0.0,0.0,8.4584,8.3346,0.0,8.0197,0.0,0.0,0.0,0.0,7.027,8.1003,0.0,0.0,10.6046,11.2151,11.399,11.4398,11.3908,11.2525,11.2446,10.8303,10.0076,8.8944,0.0,0.0,0.0,0.0,0.0,0.0,11.1463,12.4375,13.6524,14.4269,14.7534,15.0799,15.1711,14.9964,14.5332,14.1004,13.7056,12.6274,11.7238,11.01,9.2864,0.0,0.0,0.0,0.0,0.0,0.0,0.0,0.0,0.0,0.0,0.0,0.0,0.0,0.0,0.0,0.0,0.0,0.0,0.0,0.0,7.2483,0.0,0.0,0.0,0.0,0.0,0.0,0.0,0.0,0.0,0.0,8.5429,9.3244,10.1055,10.5841,0.0,0.0,0.0,0.0,12.2629,12.2705,11.9895,11.7314,11.5795,11.7921,11.8756,11.5871,0.0,0.0,10.7139,10.9569,11.1309,10.6561,11.1122,11.3653,10.8241,10.4707,10.2703,10.2703,10.4167,10.5068,10.5439,10.9867,11.437,0.0,0.0,0.0,0.0,0.0,0.0,0.0,0.0,0.0,7.2821,0.0,7.0805,0.0,0.0,0.0,0.0,0.0,0.0,0.0,0.0,8.7606,9.2614,9.4516,9.9004,9.8559,0.0,9.3078,8.7764,0.0,0.0,0.0,0.0,0.0,0.0,0.0,0.0,10.6185,11.6403,13.2424,14.3054,14.7383,14.9736,15.1179,15.1635,14.7838,13.903,12.4831,11.7314,10.7822,0.0,0.0,0.0,0.0,0.0,0.0,0.0,0.0,0.0,0.0,0.0,0.0,0.0,0.0,0.0,0.0,0.0,0.0,0.0,0.0,0.0,0.0,0.0,6.677,0.0,0.0,0.0,0.0,0.0,0.0,0.0,0.0,0.0,7.9115,8.684,9.5193,10.2439,10.8492,11.4091,11.9132,0.0,0.0,0.0,0.0,0.0,0.0,0.0,11.1391,11.0176,10.6359,10.2276,9.871,10.129,10.333,10.166,0.0,0.0,9.4407,9.2246,9.2197,9.2168,9.428,9.6011,9.6003,9.7734,9.9979,0.0,0.0,0.0,0.0,0.0,0.0,0.0,0.0,0.0,6.1914,5.9513,0.0,0.0,0.0,0.0,0.0,0.0,0.0,0.0,0.0,0.0,0.0,8.2255,8.6797,0.0,0.0,0.0,0.0,0.0,0.0,0.0,0.0,0.0,0.0,0.0,0.0,10.1871,11.0556,12.8703,14.108,14.6547,14.8901,15.0572,15.1711,14.8446,13.8271,12.0503,0.0,0.0,0.0,0.0,0.0,0.0,0.0,0.0,0.0,0.0,0.0,0.0,0.0,0.0,0.0,0.0,0.0,0.0,0.0,0.0,0.0,0.0,0.0,0.0,0.0,5.8733,0.0,0.0,0.0,0.0,0.0,0.0,0.0,0.0,0.0,0.0,0.0,8.6573,9.5555,10.2754,10.9623,11.6367,11.8804,12.0199,0.0,0.0,0.0,0.0,0.0,0.0,0.0,0.0,0.0,0.0,0.0,0.0,0.0,0.0,9.3422,8.3621,8.133,8.1043,8.1007,0.0,0.0,0.0,0.0,0.0,0.0,0.0,0.0,0.0,0.0,0.0,0.0,0.0,0.0,0.0,4.9054,0.0,0.0,4.6736,0.0,0.0,0.0,0.0,0.0,0.0,0.0,0.0,0.0,0.0,0.0,0.0,0.0,0.0,0.0,0.0,0.0,0.0,0.0,0.0,0.0,0.0,9.8523,10.6911,12.5438,13.8271,14.4877,14.8294,15.004,15.0116,14.6775,13.865,12.5059,0.0,0.0,0.0,0.0,0.0,0.0,0.0,0.0,0.0,0.0,0.0,0.0,0.0,0.0,0.0,0.0,0.0,0.0,0.0,0.0,0.0,0.0,0.0,0.0,0.0,0.0,5.2378,5.9149,6.3262,0.0,0.0,0.0,0.0,0.0,0.0,0.0,0.0,0.0,8.5225,9.5537,10.4538,11.118,11.3788,11.5643,11.7086,11.3365,11.0252,11.048,11.2834,11.1543,0.0,0.0,0.0,0.0,0.0,0.0,0.0,0.0,0.0,0.0,0.0,0.0,0.0,0.0,0.0,0.0,0.0,0.0,0.0,0.0,0.0,0.0,0.0,0.0,0.0,0.0,0.0,0.0,0.0,0.0,0.0,0.0,0.0,0.0,0.0,0.0,0.0,0.0,0.0,0.0,0.0,0.0,0.0,0.0,0.0,0.0,0.0,0.0,0.0,0.0,0.0,0.0,0.0,0.0,9.5554,10.5089,12.2401,13.5689,14.4801,14.7155,14.9433,15.1559,14.7383,13.8119,0.0,0.0,0.0,0.0,0.0,0.0,0.0,0.0,0.0,0.0,0.0,0.0,0.0,0.0,0.0,0.0,0.0,0.0,0.0,0.0,0.0,0.0,0.0,0.0,0.0,0.0,0.0,0.0,6.0549,6.0972,5.8327,0.0,0.0,0.0,0.0,0.0,0.0,0.0,0.0,0.0,0.0,10.0695,10.7649,11.1051,11.3197,11.3887,11.2758,11.2226,11.3365,11.2454,10.9248,10.2604,0.0,0.0,0.0,0.0,0.0,0.0,0.0,0.0,0.0,0.0,0.0,0.0,0.0,0.0,0.0,0.0,0.0,0.0,0.0,0.0,0.0,0.0,0.0,0.0,0.0,0.0,0.0,0.0,0.0,0.0,0.0,0.0,0.0,0.0,0.0,0.0,0.0,0.0,0.0,0.0,0.0,0.0,0.0,0.0,0.0,0.0,0.0,0.0,0.0,0.0,0.0,0.0,0.0,9.3248,10.3469,11.9487,13.3032,14.351,14.5029,14.7231,15.0572,14.5712,13.4778,0.0,0.0,0.0,0.0,0.0,0.0,0.0,0.0,0.0,0.0,0.0,0.0,0.0,0.0,0.0,0.0,0.0,0.0,0.0,0.0,0.0,0.0,0.0,0.0,0.0,0.0,0.0,0.0,5.4417,5.6128,5.5688,0.0,0.0,0.0,0.0,0.0,0.0,0.0,0.0,0.0,0.0,9.496,10.199,10.5927,0.0,0.0,10.89,10.8903,11.2529,11.1391,10.743,9.9697,9.2469,0.0,0.0,0.0,0.0,0.0,0.0,0.0,0.0,0.0,0.0,0.0,0.0,0.0,0.0,0.0,0.0,0.0,0.0,0.0,0.0,0.0,0.0,0.0,0.0,0.0,0.0,0.0,0.0,0.0,0.0,0.0,0.0,0.0,0.0,0.0,0.0,0.0,0.0,0.0,0.0,0.0,0.0,0.0,0.0,0.0,0.0,0.0,0.0,0.0,0.0,0.0,0.0,9.1571,10.1992,11.676,13.0146,14.1612,14.2295,14.3966,14.7155,14.2371,12.9539,0.0,0.0,0.0,0.0,0.0,0.0,0.0,0.0,0.0,0.0,0.0,0.0,0.0,0.0,0.0,0.0,0.0,0.0,0.0,0.0,0.0,0.0,0.0,0.0,0.0,0.0,0.0,0.0,0.0,0.0,0.0,0.0,0.0,0.0,0.0,0.0,0.0,0.0,0.0,0.0,0.0,8.8436,9.541,9.9277,10.2527,0.0,10.2111,10.1397,10.7664,10.8885,10.5317,9.4003,0.0,0.0,0.0,0.0,0.0,0.0,0.0,0.0,0.0,0.0,0.0,0.0,0.0,0.0,0.0,0.0,0.0,0.0,0.0,0.0,0.0,0.0,0.0,0.0,0.0,0.0,0.0,0.0,0.0,0.0,0.0,0.0,0.0,0.0,0.0,0.0,0.0,0.0,0.0,0.0,0.0,0.0,0.0,0.0,0.0,0.0,0.0,0.0,0.0,0.0,0.0,0.0,0.0,0.0,10.0193,11.4851,12.7716,13.8271,13.9941,14.2219,14.5408,13.9486,0.0,0.0,0.0,0.0,0.0,0.0,0.0,0.0,0.0,0.0,0.0,0.0,0.0,0.0,0.0,0.0,0.0,0.0,0.0,0.0,0.0,0.0,0.0,0.0,0.0,0.0,0.0,3.2872,0.0,0.0,0.0,0.0,0.0,0.0,0.0,0.0,0.0,0.0,0.0,0.0,0.0,0.0,8.8058,9.4592,9.6762,9.6862,0.0,0.0,9.4285,9.4914,9.8179,9.7951,0.0,0.0,0.0,0.0,0.0,0.0,0.0,0.0,0.0,0.0,0.0,0.0,0.0,0.0,0.0,0.0,0.0,0.0,0.0,0.0,0.0,0.0,0.0,0.0,0.0,0.0,0.0,0.0,0.0,0.0,0.0,0.0,0.0,0.0,0.0,0.0,0.0,0.0,0.0,0.0,0.0,0.0,0.0,0.0,0.0,0.0,0.0,0.0,0.0,0.0,0.0,0.0,0.0,0.0,8.5044,9.8287,11.0213,12.2781,13.5765,13.7967,14.0473,14.3814,13.8119,12.597,0.0,0.0,0.0,0.0,0.0,0.0,0.0,0.0,0.0,0.0,0.0,0.0,0.0,0.0,0.0,0.0,0.0,0.0,0.0,0.0,0.0,0.0,0.0,0.0,0.0,0.0,0.0,0.0,0.0,0.0,0.0,0.0,0.0,0.0,0.0,0.0,0.0,0.0,0.0,0.0,0.0,0.0,8.7346,8.892,0.0,0.0,0.0,8.6105,8.7484,0.0,0.0,0.0,0.0,0.0,0.0,0.0,0.0,0.0,0.0,0.0,0.0,0.0,0.0,0.0,0.0,0.0,0.0,0.0,0.0,0.0,0.0,0.0,0.0,0.0,0.0,0.0,0.0,0.0,0.0,0.0,0.0,0.0,0.0,0.0,0.0,0.0,0.0,0.0,0.0,0.0,0.0,0.0,0.0,0.0,0.0,0.0,0.0,0.0,0.0,0.0,0.0,0.0,0.0,0.0,0.0,0.0,9.6275,10.5513,11.8073,13.3715,13.6069,13.8499,14.1688,13.7132,12.5135,0.0,0.0,0.0,0.0,0.0,0.0,0.0,0.0,0.0,0.0,0.0,0.0,0.0,0.0,0.0,0.0,0.0,0.0,0.0,0.0,0.0,0.0,0.0,0.0,0.0,0.0,0.0,0.0,0.0,0.0,0.0,0.0,0.0,0.0,0.0,0.0,0.0,0.0,0.0,0.0,0.0,8.0319,7.8276,7.9536,7.9339,0.0,0.0,7.7367,8.1718,8.1257,0.0,0.0,0.0,0.0,0.0,0.0,0.0,0.0,0.0,0.0,0.0,0.0,0.0,0.0,0.0,0.0,0.0,0.0,0.0,0.0,0.0,0.0,0.0,0.0,0.0,0.0,0.0,0.0,0.0,0.0,0.0,0.0,0.0,0.0,0.0,0.0,0.0,0.0,0.0,0.0,0.0,0.0,0.0,0.0,0.0,0.0,0.0,0.0,0.0,0.0,0.0,0.0,0.0,0.0,0.0,0.0,9.4968,10.8251,12.0958,13.2424,13.3411,13.5158,13.8195,13.3639,12.2249,0.0,0.0,0.0,0.0,0.0,0.0,0.0,0.0,0.0,0.0,0.0,0.0,0.0,0.0,0.0,0.0,0.0,0.0,0.0,0.0,0.0,0.0,0.0,0.0,0.0,0.0,0.0,0.0,0.0,0.0,0.0,0.0,0.0,0.0,0.0,0.0,0.0,0.0,0.0,0.0,0.0,7.5901,7.9164,7.8345,0.0,0.0,0.0,0.0,6.8807,6.843,0.0,0.0,0.0,0.0,0.0,0.0,0.0,0.0,0.0,0.0,0.0,0.0,0.0,0.0,0.0,0.0,0.0,0.0,0.0,0.0,0.0,0.0,0.0,0.0,0.0,0.0,0.0,0.0,0.0,0.0,0.0,0.0,0.0,0.0,0.0,0.0,0.0,0.0,0.0,0.0,0.0,0.0,0.0,0.0,0.0,0.0,0.0,0.0,0.0,0.0,0.0,0.0,0.0,0.0,0.0,0.0,9.5307,10.5605,11.701,12.9615,13.0905,13.288,13.5993,13.1437,12.0123,0.0,0.0,0.0,0.0,0.0,0.0,0.0,0.0,0.0,0.0,0.0,0.0,0.0,0.0,0.0,0.0,0.0,0.0,0.0,0.0,0.0,0.0,0.0,0.0,0.0,0.0,0.0,0.0,0.0,0.0,0.0,0.0,0.0,0.0,0.0,0.0,0.0,0.0,0.0,0.0,6.6859,7.1209,7.3874,0.0,0.0,0.0,0.0,0.0,0.0,6.1879,6.006,0.0,0.0,0.0,0.0,0.0,0.0,0.0,0.0,0.0,0.0,0.0,0.0,0.0,0.0,0.0,0.0,0.0,0.0,0.0,0.0,0.0,0.0,0.0,0.0,0.0,0.0,0.0,0.0,0.0,0.0,0.0,0.0,0.0,0.0,0.0,0.0,0.0,0.0,0.0,0.0,0.0,0.0,0.0,0.0,0.0,0.0,0.0,0.0,0.0,0.0,0.0,0.0,0.0,0.0,0.0,9.4638,10.0883,11.1463,12.6541,12.8699,13.1057,13.3867,12.9842,11.8453,9.9774,0.0,0.0,0.0,0.0,0.0,0.0,0.0,0.0,0.0,0.0,0.0,0.0,0.0,0.0,0.0,0.0,0.0,0.0,0.0,0.0,0.0,0.0,0.0,0.0,0.0,0.0,0.0,0.0,0.0,0.0,0.0,0.0,0.0,0.0,0.0,0.0,0.0,0.0,0.0,6.1632,6.6088,0.0,0.0,0.0,0.0,0.0,0.0,0.0,0.0,5.5176,0.0,0.0,0.0,0.0,0.0,0.0,0.0,0.0,0.0,0.0,0.0,0.0,0.0,0.0,0.0,0.0,0.0,0.0,0.0,0.0,0.0,0.0,0.0,0.0,0.0,0.0,0.0,0.0,0.0,0.0,0.0,0.0,0.0,0.0,0.0,0.0,0.0,0.0,0.0,0.0,0.0,0.0,0.0,0.0,0.0,0.0,0.0,0.0,0.0,0.0,0.0,0.0,0.0,0.0,0.0,0.0,9.6787,10.9594,12.4353,12.6912,12.8779,13.0678,12.8703,11.6858,9.461,0.0,0.0,0.0,0.0,0.0,0.0,0.0,0.0,0.0,0.0,0.0,0.0,0.0,0.0,0.0,0.0,0.0,0.0,0.0,0.0,0.0,0.0,0.0,0.0,0.0,0.0,0.0,0.0,0.0,0.0,0.0,0.0,0.0,0.0,0.0,0.0,0.0,0.0,4.3937,5.297,0.0,0.0,0.0,0.0,0.0,0.0,0.0,0.0,5.2738,0.0,0.0,0.0,0.0,0.0,0.0,0.0,0.0,0.0,0.0,0.0,0.0,0.0,0.0,0.0,0.0,0.0,0.0,0.0,0.0,0.0,0.0,0.0,0.0,0.0,0.0,0.0,0.0,0.0,0.0,0.0,0.0,0.0,0.0,0.0,0.0,0.0,0.0,0.0,0.0,0.0,0.0,0.0,0.0,0.0,0.0,0.0,0.0,0.0,0.0,0.0,0.0,0.0,0.0,0.0,0.0,0.0,0.0,10.7075,12.0194,12.4295,12.6577,12.7033,12.0579,10.8809,0.0,0.0,0.0,0.0,0.0,0.0,0.0,0.0,0.0,0.0,0.0,0.0,0.0,0.0,0.0,0.0,0.0,0.0,0.0,0.0,0.0,0.0,0.0,0.0,0.0,0.0,0.0,0.0,0.0,0.0,0.0,0.0,0.0,0.0,0.0,0.0,0.0,0.0,0.0,0.0,0.0,0.0,0.0,0.0,0.0,0.0,0.0,0.0,0.0,0.0,0.0,0.0,0.0,0.0,0.0,0.0,0.0,0.0,0.0,0.0,0.0,0.0,0.0,0.0,0.0,0.0,0.0,0.0,0.0,0.0,0.0,0.0,0.0,0.0,0.0,0.0,0.0,0.0,0.0,0.0,0.0,0.0,0.0,0.0,0.0,0.0,0.0,0.0,0.0,0.0,0.0,0.0,0.0,0.0,0.0,0.0,0.0,0.0,0.0,0.0,0.0,0.0,0.0,0.0,0.0,0.0,0.0,0.0,10.3385,11.5708,12.155,12.4427,12.4375,11.2758,10.0913,0.0,0.0,0.0,0.0,0.0,0.0,0.0,0.0,0.0,0.0,0.0,0.0,0.0,0.0,0.0,0.0,0.0,0.0,0.0,0.0,0.0,0.0,0.0,0.0,0.0,0.0,0.0,0.0,0.0,0.0,0.0,0.0,0.0,0.0,0.0,0.0,0.0,0.0,0.0,0.0,0.0,0.0,0.0,0.0,0.0,0.0,0.0,0.0,5.0163,0.0,0.0,0.0,0.0,0.0,0.0,0.0,0.0,0.0,0.0,0.0,0.0,0.0,0.0,0.0,0.0,0.0,0.0,0.0,0.0,0.0,0.0,0.0,0.0,0.0,0.0,0.0,0.0,0.0,0.0,0.0,0.0,0.0,0.0,0.0,0.0,0.0,0.0,0.0,0.0,0.0,0.0,0.0,0.0,0.0,0.0,0.0,0.0,0.0,0.0,0.0,0.0,0.0,0.0,0.0,0.0,0.0,0.0,0.0,9.7701,11.2012,11.9183,12.2715,12.2325,10.9873,9.7496,0.0,0.0,0.0,0.0,0.0,0.0,0.0,0.0,0.0,0.0,0.0,0.0,0.0,0.0,0.0,0.0,0.0,0.0,0.0,0.0,0.0,0.0,0.0,0.0,0.0,0.0,0.0,0.0,0.0,0.0,0.0,0.0,0.0,0.0,0.0,0.0,0.0,0.0,0.0,0.0,0.0,0.0,0.0,0.0,0.0,0.0,0.0,0.0,0.0,0.0,0.0,0.0,0.0,0.0,0.0,0.0,0.0,0.0,0.0,0.0,0.0,0.0,0.0,0.0,0.0,0.0,0.0,0.0,0.0,0.0,0.0,0.0,0.0,0.0,0.0,0.0,0.0,0.0,0.0,0.0,0.0,0.0,0.0,0.0,0.0,0.0,0.0,0.0,0.0,0.0,0.0,0.0,0.0,0.0,0.0,0.0,0.0,0.0,0.0,0.0,0.0,0.0,0.0,0.0,0.0,0.0,0.0,0.0,9.1406,10.4348,11.4314,11.6195,10.9569,9.7344,8.7625,0.0,0.0,0.0,0.0,0.0,0.0,0.0,0.0,0.0,0.0,0.0,0.0,0.0,0.0,0.0,0.0,0.0,0.0,0.0,0.0,0.0,0.0,0.0,0.0,0.0,0.0,0.0,0.0,0.0,0.0,0.0,0.0,0.0,0.0,0.0,0.0,0.0,0.0,0.0,0.0,0.0,0.0,0.0,0.0,0.0,0.0,0.0,0.0,0.0,0.0,0.0,0.0,0.0,0.0,0.0,0.0,0.0,0.0,0.0,0.0,0.0,0.0,0.0,0.0,0.0,0.0,0.0,0.0,0.0,0.0,0.0,0.0,0.0,0.0,0.0,0.0,0.0,0.0,0.0,0.0,0.0,0.0,0.0,0.0,0.0,0.0,0.0,0.0,0.0,0.0,0.0,0.0,0.0,0.0,0.0,0.0,0.0,0.0,0.0,0.0,0.0,0.0,0.0,0.0,0.0,0.0,0.0,0.0,0.0,9.4756,10.6375,10.7802,9.8027,8.6941,7.8662,0.0,0.0,0.0,0.0,0.0,0.0,0.0,0.0,0.0,0.0,0.0,0.0,0.0,0.0,0.0,0.0,0.0,0.0,0.0,0.0,0.0,0.0,0.0,0.0,0.0,0.0,0.0,0.0,0.0,0.0,0.0,0.0,0.0,0.0,0.0,0.0,0.0,0.0,0.0,0.0,0.0,0.0,0.0,0.0,0.0,0.0,0.0,0.0,0.0,0.0,0.0,0.0,0.0,0.0,0.0,0.0,0.0,0.0,0.0,0.0,0.0,0.0,0.0,0.0,0.0,0.0,0.0,0.0,0.0,0.0,0.0,0.0,0.0,0.0,0.0,0.0,0.0,0.0,0.0,0.0,0.0,0.0,0.0,0.0,0.0,0.0,0.0,0.0,0.0,0.0,0.0,0.0,0.0,0.0,0.0,0.0,0.0,0.0,0.0,0.0,0.0,0.0,0.0,0.0,0.0,0.0,0.0,0.0,0.0,8.2955,9.4092,9.7402,9.2256,8.2385,7.2774,0.0,0.0,0.0,0.0,0.0,0.0,0.0,0.0,0.0,0.0,0.0,0.0,0.0,0.0,0.0,0.0,0.0,0.0,0.0,0.0,0.0,0.0,0.0,0.0,0.0,0.0,0.0,0.0,0.0,0.0,0.0,0.0,0.0,0.0,0.0,0.0,0.0,0.0,0.0,0.0,0.0,0.0,0.0,0.0,0.0,0.0,0.0,0.0,0.0,0.0,0.0,0.0,0.0,0.0,0.0,0.0,0.0,0.0,0.0,0.0,0.0,0.0,0.0,0.0,0.0,0.0,0.0,0.0,0.0,0.0,0.0,0.0,0.0,0.0,0.0,0.0,0.0,0.0,0.0,0.0,0.0,0.0,0.0,0.0,0.0,0.0,0.0,0.0,0.0,0.0,0.0,0.0,0.0,0.0,0.0,0.0,0.0,0.0,0.0,0.0,0.0,0.0,0.0,0.0,0.0,0.0,0.0,0.0,0.0,6.3814,7.6323,8.1651,7.8057,7.0276,6.4293,6.042,0.0,0.0,0.0,0.0,0.0,0.0,0.0,0.0,0.0,0.0,0.0,0.0,0.0,0.0,0.0,0.0,0.0,0.0,0.0,0.0,0.0,0.0,0.0,0.0,0.0,0.0,0.0,0.0,0.0,0.0,0.0,0.0,0.0,0.0,0.0,0.0,0.0,0.0,0.0,0.0,0.0,0.0,0.0,0.0,0.0,0.0,0.0,0.0,0.0,0.0,0.0,0.0,0.0,0.0,0.0,0.0,0.0,0.0,0.0,0.0,0.0,0.0,0.0,0.0,0.0,0.0,0.0,0.0,0.0,0.0,0.0,0.0,0.0,0.0,0.0,0.0,0.0,0.0,0.0,0.0,0.0,0.0,0.0,0.0,0.0,0.0,0.0,0.0,0.0,0.0,0.0,0.0,0.0,0.0,0.0,0.0,0.0,0.0,0.0,0.0,0.0,0.0,0.0,0.0,0.0,0.0,0.0,0.0,5.5641,6.7594,7.2392,6.8573,6.2664,5.8027,0.0,0.0,0.0,0.0,0.0,0.0,0.0,0.0,0.0,0.0,0.0,0.0,0.0,0.0,0.0,0.0,0.0,0.0,0.0,0.0,0.0,0.0,0.0,0.0,0.0,0.0,0.0,0.0,0.0,0.0,0.0,0.0,0.0,0.0,0.0,0.0,0.0,0.0,0.0,0.0,0.0,0.0,0.0,0.0,0.0,0.0,0.0,0.0,0.0,0.0,0.0,0.0,0.0,0.0,0.0,0.0,0.0,0.0,0.0,0.0,0.0,0.0,0.0,0.0,0.0,0.0,0.0,0.0,0.0,0.0,0.0,0.0,0.0,0.0,0.0,0.0,0.0,0.0,0.0,0.0,0.0,0.0,0.0,0.0,0.0,0.0,0.0,0.0,0.0,0.0,0.0,0.0,0.0,0.0,0.0,0.0,0.0,0.0,0.0,0.0,0.0,0.0,0.0,0.0,0.0,0.0,0.0,0.0,4.9677,6.269,6.9696,7.0809,6.6605,6.1443,5.4439,0.0,0.0,0.0,0.0,0.0,0.0,0.0,0.0,0.0,0.0,0.0,0.0,0.0,0.0,0.0,0.0,0.0,0.0,0.0,0.0,0.0,0.0,0.0,0.0,0.0,0.0,0.0,0.0,0.0,0.0,0.0,0.0,0.0,0.0,0.0,0.0,0.0,0.0,0.0,0.0,0.0,0.0,0.0,0.0,0.0,0.0,0.0,0.0,0.0,0.0,0.0,0.0,0.0,0.0,0.0,0.0,0.0,0.0,0.0,0.0,0.0,0.0,0.0,0.0,0.0,0.0,0.0,0.0,0.0,0.0,0.0,0.0,0.0,0.0,0.0,0.0,0.0,0.0,0.0,0.0,0.0,0.0,0.0,0.0,0.0,0.0,0.0,0.0,0.0,0.0,0.0,0.0,0.0,0.0,0.0,0.0,0.0,0.0,0.0,0.0,0.0,0.0,0.0,0.0,0.0,0.0,0.0,0.0,0.0,4.9743,0.0,5.9621,0.0,5.5763,5.0886,0.0,0.0,0.0,0.0,0.0,0.0,0.0,0.0,0.0,0.0,0.0,0.0,0.0,0.0,0.0,0.0,0.0,0.0,0.0,0.0,0.0,0.0,0.0,0.0,0.0,0.0,0.0,0.0,0.0,0.0,0.0,0.0,0.0,0.0,0.0,0.0,0.0,0.0,0.0,0.0,0.0,0.0,0.0,0.0,0.0,0.0,0.0,0.0,0.0,0.0,0.0,0.0,0.0,0.0,0.0,0.0,0.0,0.0,0.0,0.0,0.0,0.0,0.0,0.0,0.0,0.0,0.0,0.0,0.0,0.0,0.0,0.0,0.0,0.0,0.0,0.0,0.0,0.0,0.0,0.0,0.0,0.0,0.0,0.0,0.0,0.0,0.0,0.0,0.0,0.0,0.0,0.0,0.0,0.0,0.0,0.0,0.0,0.0,0.0,0.0,0.0,0.0,0.0,0.0,0.0,0.0,0.0,0.0,0.0,4.6633,4.8681,5.3786,6.1626,5.4673,5.0812,0.0,0.0,0.0,0.0,0.0,0.0,0.0,0.0,0.0,0.0,0.0,0.0,0.0,0.0,0.0,0.0,0.0,0.0,0.0,0.0,0.0,0.0,0.0,0.0,0.0,0.0,0.0,0.0,0.0,0.0,0.0,0.0,0.0,0.0,0.0,0.0,0.0,0.0,0.0,0.0,0.0,0.0,0.0,0.0,0.0,0.0,0.0,0.0,0.0,0.0,0.0,0.0,0.0,0.0,0.0,0.0,0.0,0.0,0.0,0.0,0.0,0.0,0.0,0.0,0.0,0.0,0.0,0.0,0.0,0.0,0.0,0.0,0.0,0.0,0.0,0.0,0.0,0.0,0.0,0.0,0.0,0.0,0.0,0.0,0.0,0.0,0.0,0.0,0.0,0.0,0.0,0.0,0.0,0.0,0.0,0.0,0.0,0.0,0.0,0.0,0.0,0.0,0.0,0.0,0.0,0.0,0.0,0.0,0.0,0.0,5.1348,5.3329,5.8482,5.7339,5.3562,0.0,0.0,0.0,0.0,0.0,0.0,0.0,0.0,0.0,0.0,0.0,0.0,0.0,0.0,0.0,0.0,0.0,0.0,0.0,0.0,0.0,0.0,0.0,0.0,0.0,0.0,0.0,0.0,0.0,0.0,0.0,0.0,0.0,0.0,0.0,0.0,0.0,0.0,0.0,0.0,0.0,0.0,0.0,0.0,0.0,0.0,0.0,0.0,0.0,0.0,0.0,0.0,0.0,0.0,0.0,0.0,0.0,0.0,0.0,0.0,0.0,0.0,0.0,0.0,0.0,0.0,0.0,0.0,0.0,0.0,0.0,0.0,0.0,0.0,0.0,0.0,0.0,0.0,0.0,0.0,0.0,0.0,0.0,0.0,0.0,0.0,0.0,0.0,0.0,0.0,0.0,0.0,0.0,0.0,0.0,0.0,0.0,0.0,0.0,0.0,0.0,0.0,0.0,0.0,0.0,0.0,0.0,0.0,0.0,0.0,4.9419,0.0,5.1824,5.0444,4.9346,4.8782,0.0,0.0,0.0,0.0,0.0,0.0,0.0,0.0,0.0,0.0,0.0,0.0,0.0,0.0,0.0,0.0,0.0,0.0,0.0,0.0,0.0,0.0,0.0,0.0,0.0,0.0,0.0,0.0,0.0,0.0,0.0,0.0,0.0,0.0,0.0,0.0,0.0,0.0,0.0,0.0,0.0,0.0,0.0,0.0,0.0,0.0,0.0,0.0,0.0,0.0,0.0,0.0,0.0,0.0,0.0,0.0,0.0,0.0,0.0,0.0,0.0,0.0,0.0,0.0,0.0,0.0,0.0,0.0,0.0,0.0,0.0,0.0,0.0,0.0,0.0,0.0,0.0,0.0,0.0,0.0,0.0,0.0,0.0,0.0,0.0,0.0,0.0,0.0,0.0,0.0,0.0,0.0,0.0,0.0,0.0,0.0,0.0,0.0,0.0,0.0,0.0,0.0,0.0,0.0,0.0,0.0,0.0,0.0,0.0,0.0,4.9594,5.027,4.876,4.815,0.0,0.0,0.0,0.0,0.0,0.0,0.0,0.0,0.0,0.0,0.0,0.0,0.0,0.0,0.0,0.0,0.0,0.0,0.0,0.0,0.0,0.0,0.0,0.0,0.0,0.0,0.0,0.0,0.0,0.0,0.0,0.0,0.0,0.0,0.0,0.0,0.0,0.0,0.0,0.0,0.0,0.0,0.0,0.0,0.0,0.0,0.0,0.0,0.0,0.0,0.0,0.0,0.0,0.0,0.0,0.0,0.0,0.0,0.0,0.0,0.0,0.0,0.0,0.0,0.0,0.0,0.0,0.0,0.0,0.0,0.0,0.0,0.0,0.0,0.0,0.0,0.0,0.0,0.0,0.0,0.0,0.0,0.0,0.0,0.0,0.0,0.0,0.0,0.0,0.0,0.0,0.0,0.0,0.0,0.0,0.0,0.0,0.0,0.0,0.0,0.0,0.0,0.0,0.0,0.0,0.0,0.0,0.0,0.0,0.0,0.0,4.8269,5.1505,5.0455,0.0,4.7452,0.0,0.0,0.0,0.0,0.0,0.0,0.0,0.0,0.0,0.0,0.0,0.0,0.0,0.0,0.0,0.0,0.0,0.0,0.0,0.0,0.0,0.0,0.0,0.0,0.0,0.0,0.0,0.0,0.0,0.0,0.0,0.0,0.0,0.0,0.0,0.0,0.0,0.0,0.0,0.0,0.0,0.0,0.0,0.0,0.0,0.0,0.0,0.0,0.0,0.0,0.0,0.0,0.0,0.0,0.0,0.0,0.0,0.0,0.0,0.0,0.0,0.0,0.0,0.0,0.0,0.0,0.0,0.0,0.0,0.0,0.0,0.0,0.0,0.0,0.0,0.0,0.0,0.0,0.0,0.0,0.0,0.0,0.0,0.0,0.0,0.0,0.0,0.0,0.0,0.0,0.0,0.0,0.0,0.0,0.0,0.0,0.0,0.0,0.0,0.0,0.0,0.0,0.0,0.0,0.0,0.0,0.0,0.0,0.0,0.0,0.0,0.0,5.0917,4.9566,4.5559,0.0,0.0,0.0,0.0,0.0,0.0,0.0,0.0,0.0,0.0,0.0,0.0,0.0,0.0,0.0,0.0,0.0,0.0,0.0,0.0,0.0,0.0,0.0,0.0,0.0,0.0,0.0,0.0,0.0,0.0,0.0,0.0,0.0,0.0,0.0,0.0,0.0,0.0,0.0,0.0,0.0,0.0,0.0,0.0,0.0,0.0,0.0,0.0,0.0,0.0,0.0,0.0,0.0,0.0,0.0,0.0,0.0,0.0,0.0,0.0,0.0,0.0,0.0,0.0,0.0,0.0,0.0,0.0,0.0,0.0,0.0,0.0,0.0,0.0,0.0,0.0,0.0,0.0,0.0,0.0,0.0,0.0,0.0,0.0,0.0,0.0,0.0,0.0,0.0,0.0,0.0,0.0,0.0,0.0,0.0,0.0,0.0,0.0,0.0,0.0,0.0,0.0,0.0,0.0,0.0,0.0,0.0,0.0,0.0,0.0,5.0605,4.8279,4.9151,4.7836,4.3888,0.0,0.0,0.0,0.0,0.0,0.0,0.0,0.0,0.0,0.0,0.0,0.0,0.0,0.0,0.0,0.0,0.0,0.0,0.0,0.0,0.0,0.0,0.0,0.0,0.0,0.0,0.0,0.0,0.0,0.0,0.0,0.0,0.0,0.0,0.0,0.0,0.0,0.0,0.0,0.0,0.0,0.0,0.0,0.0,0.0,0.0,0.0,0.0,0.0,0.0,0.0,0.0,0.0,0.0,0.0,0.0,0.0,0.0,0.0,0.0,0.0,0.0,0.0,0.0,0.0,0.0,0.0,0.0,0.0,0.0,0.0,0.0,0.0,0.0,0.0,0.0,0.0,0.0,0.0,0.0,0.0,0.0,0.0,0.0,0.0,0.0,0.0,0.0,0.0,0.0,0.0,0.0,0.0,0.0,0.0,0.0,0.0,0.0,0.0,0.0,0.0,0.0,0.0,0.0,0.0,0.0,0.0,0.0,0.0,0.0,0.0,0.0,0.0,0.0,4.3188,0.0,0.0,0.0,0.0,0.0,0.0,0.0,0.0,0.0,0.0,0.0,0.0,0.0,0.0,0.0,0.0,0.0,0.0,0.0,0.0,0.0,0.0,0.0,0.0,0.0,0.0,0.0,0.0,0.0,0.0,0.0,0.0,0.0,0.0,0.0,0.0,0.0,0.0,0.0,0.0,0.0,0.0,0.0,0.0,0.0,0.0,0.0,0.0,0.0,0.0,0.0,0.0,0.0,0.0,0.0,0.0,0.0,0.0,0.0,0.0,0.0,0.0,0.0,0.0,0.0,0.0,0.0,0.0,0.0,0.0,0.0,0.0,0.0,0.0,0.0,0.0,0.0,0.0,0.0,0.0,0.0,0.0,0.0,0.0,0.0,0.0,0.0,0.0,0.0,0.0,0.0,0.0,0.0,0.0,0.0,0.0,0.0,0.0,0.0,0.0,0.0,0.0,0.0,0.0,0.0,0.0,0.0,0.0,0.0,0.0,0.0,0.0,0.0,0.0,0.0,0.0,0.0,0.0,0.0,0.0,0.0,0.0,0.0,0.0,0.0,0.0,0.0,0.0,0.0,0.0,0.0,0.0,0.0,0.0,0.0,0.0,0.0,0.0,0.0,0.0,0.0,0.0,0.0,0.0,0.0,0.0,0.0,0.0,0.0,0.0,0.0,0.0,0.0,0.0,0.0,0.0,0.0,0.0,0.0,0.0,0.0,0.0,0.0,0.0,0.0,0.0,0.0,0.0,0.0,0.0,0.0,0.0,0.0,0.0,0.0,0.0,0.0,0.0,0.0,0.0,0.0,0.0,0.0,0.0,0.0,0.0,0.0,0.0,0.0,0.0,0.0,0.0,0.0,0.0,0.0,0.0,0.0,0.0,0.0,0.0,0.0,0.0,0.0,0.0,0.0,0.0,0.0,0.0,0.0,0.0,0.0,0.0,0.0,0.0,0.0,0.0,0.0,0.0,0.0,0.0,0.0,0.0,0.0,0.0,0.0,0.0,0.0,0.0,0.0,0.0,0.0,0.0,0.0,0.0,0.0,0.0,0.0,0.0,0.0,0.0,0.0,0.0,0.0,0.0,0.0,0.0,0.0,0.0,0.0,0.0,0.0,0.0,0.0,0.0,0.0,0.0,0.0,0.0,0.0,0.0,0.0,0.0,0.0,0.0,0.0,0.0,0.0,0.0,0.0,0.0,0.0,0.0,0.0,0.0,0.0,0.0,0.0,0.0,0.0,0.0,0.0,0.0,0.0,0.0,0.0,0.0,0.0,0.0,0.0,0.0,0.0,0.0,0.0,0.0,0.0,0.0,0.0,0.0,0.0,0.0,0.0,0.0,0.0,0.0,0.0,0.0,0.0,0.0,0.0,0.0,0.0,0.0,0.0,0.0,0.0,0.0,0.0,0.0,0.0,0.0,0.0,0.0,0.0,0.0,0.0,0.0,0.0,0.0,0.0,0.0,0.0,0.0,0.0,0.0,0.0,0.0,0.0,0.0,0.0,0.0,0.0,0.0,0.0,0.0,0.0,0.0,0.0,0.0,0.0,0.0,0.0,0.0,0.0,0.0,0.0,0.0,0.0,0.0,0.0,0.0,0.0,0.0,0.0,0.0,0.0,0.0,0.0,0.0,0.0,0.0,0.0,0.0,0.0,0.0,0.0,0.0,0.0,0.0,0.0,0.0,0.0,0.0,0.0,0.0,0.0,0.0,0.0,0.0,0.0,0.0,0.0,0.0,0.0,0.0,0.0,0.0,0.0,0.0,0.0,0.0,0.0,0.0,0.0,0.0,0.0,0.0,0.0,0.0,0.0,0.0,0.0,0.0,0.0,0.0,0.0,0.0,0.0,0.0,0.0,0.0,0.0,0.0,0.0,0.0,0.0,0.0,0.0,0.0,0.0,0.0,0.0,0.0,0.0,0.0,0.0,0.0,0.0,0.0,0.0,0.0,0.0,0.0,0.0,0.0,0.0,0.0,0.0,0.0,0.0,0.0,0.0,0.0,0.0,0.0,0.0,0.0,0.0,0.0,0.0,0.0,0.0,0.0,0.0,0.0,0.0,0.0,0.0,0.0,0.0,0.0,0.0,0.0,0.0,0.0,0.0,0.0,0.0,0.0,0.0,0.0,0.0,0.0,0.0,0.0,0.0,0.0,0.0,0.0,0.0,0.0,0.0,0.0,0.0,0.0,0.0,0.0,0.0,0.0,0.0,0.0,0.0,0.0,0.0,0.0,0.0,0.0,0.0,0.0,0.0,0.0,0.0,0.0,0.0,0.0,0.0,0.0,0.0,0.0,0.0,0.0,0.0,0.0,0.0,0.0,0.0,0.0,0.0,0.0,0.0,0.0,0.0,0.0,0.0,0.0,0.0,0.0,0.0,0.0,0.0,0.0,0.0,0.0,0.0,0.0,0.0,0.0,0.0,0.0,0.0,0.0,0.0,0.0,0.0,0.0,0.0,0.0,0.0,0.0,0.0,0.0,0.0,0.0,0.0,0.0,0.0,0.0,0.0,0.0,0.0,0.0,0.0,0.0,0.0,0.0,0.0,0.0,0.0,0.0,0.0,0.0,0.0,0.0,0.0,0.0,0.0,0.0,0.0,0.0,0.0,0.0,0.0,0.0,0.0,0.0,0.0,0.0,0.0,0.0,0.0,0.0,0.0,0.0,0.0,0.0,0.0,0.0,0.0,0.0,0.0,0.0,0.0,0.0,0.0,0.0,0.0,0.0,0.0,0.0,0.0,0.0,0.0,0.0,0.0,0.0,0.0,0.0,0.0,0.0,0.0,0.0,0.0,0.0,0.0,0.0,0.0,0.0,0.0,0.0,0.0,0.0,0.0,0.0,0.0,0.0,0.0,0.0,0.0,0.0,0.0,0.0,0.0,0.0,0.0,0.0,0.0,0.0,0.0,0.0,0.0,0.0,0.0,0.0,0.0,0.0,0.0,0.0,0.0,0.0,0.0,0.0,0.0,0.0,0.0,0.0,0.0,0.0,0.0,0.0,0.0,0.0,0.0,0.0,0.0,0.0,0.0,0.0,0.0,0.0,0.0,0.0,0.0,0.0,0.0,0.0,0.0,0.0,0.0,0.0,0.0,0.0,0.0,0.0,0.0,0.0,0.0,0.0,0.0,0.0,0.0,0.0,0.0,0.0,0.0,0.0,0.0,0.0,0.0,0.0,0.0,0.0,0.0,0.0,0.0,0.0,0.0,0.0,0.0,0.0,0.0,0.0,0.0,0.0,0.0,0.0,0.0,0.0,0.0,0.0,0.0,0.0,0.0,0.0,0.0,0.0,0.0,0.0,0.0,0.0,0.0,0.0,0.0,0.0,0.0,0.0,0.0,0.0,0.0,0.0,0.0,0.0,0.0,0.0,0.0,0.0,0.0,0.0,0.0,0.0,0.0,0.0,0.0,0.0,0.0,0.0,0.0,0.0,0.0,0.0,0.0,0.0,0.0,0.0,0.0,0.0,0.0,0.0,0.0,0.0,0.0,0.0,0.0,0.0,0.0,0.0,0.0,0.0,0.0,0.0,0.0,0.0,0.0,0.0,0.0,0.0,0.0,0.0,0.0,0.0,0.0,0.0,0.0,0.0,0.0,0.0,0.0,0.0,0.0,0.0,0.0,0.0,0.0,0.0,0.0,0.0,0.0,0.0,0.0,0.0,0.0,0.0,0.0,0.0,0.0,0.0,0.0,0.0,0.0,0.0,0.0,0.0,0.0,0.0,0.0,0.0,0.0,0.0,0.0,0.0,0.0,0.0,0.0,0.0,0.0,0.0,0.0,0.0,0.0,0.0,0.0,0.0,0.0,0.0,0.0,0.0,0.0,0.0,0.0,0.0,0.0,0.0,0.0,0.0,0.0,0.0,0.0,0.0,0.0,0.0,0.0,0.0,0.0,0.0,0.0,0.0,0.0,0.0,0.0,0.0,0.0,0.0,0.0,0.0,0.0,0.0,0.0,0.0,0.0,0.0,0.0,0.0,0.0,0.0,0.0,0.0,0.0,0.0,0.0,0.0,0.0,0.0,0.0,0.0,0.0,0.0,0.0,0.0,0.0,0.0,0.0,0.0,0.0,0.0,0.0,0.0,0.0,0.0,0.0,0.0,0.0,0.0,0.0,0.0,0.0,0.0,0.0,0.0,0.0,0.0,0.0,0.0,0.0,0.0,0.0,0.0,0.0,0.0,0.0,0.0,0.0,0.0,0.0,0.0,0.0,0.0,0.0,0.0,0.0,0.0,0.0,0.0,0.0,0.0,0.0,0.0,0.0,0.0,0.0,0.0,0.0,0.0,0.0,0.0,0.0,0.0,0.0,0.0,0.0,0.0,0.0,0.0,0.0,0.0,0.0,0.0,0.0,0.0,0.0,0.0]}],[{"header":{"parameterUnit":"kt","parameterCategory":2,"dx":1,"dy":1,"la1":29.587661999999998,"la2":31.0,"lo1":-88.76705300000003,"lo2":-86.6583820000003,"nx":115,"ny":88,"refTime":"2022-09-30T18:00:00:Z","depth":0,"parameterNumber":2,"parameterNumberName":"V-component_of_WINDS"},"data":[4.7889,4.7889,4.7889,4.7889,4.7889,4.7889,4.6112,4.2861,3.9032,3.5691,3.2091,2.7466,2.4208,2.4348,2.4221,2.4301,2.4301,2.4301,2.4301,2.4301,2.4301,2.4301,2.4301,2.4301,2.4301,2.4301,2.4301,2.4301,2.4301,2.4301,2.4301,2.4301,2.4301,2.4301,2.4301,2.4301,2.4301,2.4301,2.4301,2.4301,2.4301,2.4301,2.4301,2.4301,2.4301,2.4301,2.4301,2.4301,2.4301,2.4301,2.4301,2.4301,2.4301,2.4301,2.4301,2.4301,2.4301,2.4301,2.4301,2.4301,2.4301,2.4301,2.4301,2.4301,2.4301,2.4301,2.4301,2.4301,2.4301,2.4301,2.4301,2.4301,2.4287,2.4208,2.4129,2.3852,2.3509,2.3167,2.2863,2.2679,2.2586,2.2586,2.2586,2.2547,2.2455,2.2375,2.2217,2.2006,2.1624,2.1387,2.1176,2.1044,2.0899,2.0872,2.0833,2.1606,2.1606,2.1091,2.1077,2.1294,2.1294,2.0833,2.082,2.0675,2.0688,2.0675,2.0635,2.0743,2.0213,1.9963,1.9765,1.9527,1.9303,1.9251,1.9396,4.7889,4.7889,4.7889,4.7889,4.7889,4.7889,4.7289,4.6112,4.2571,3.8592,3.4017,2.7168,2.478,2.4441,2.4221,2.4274,2.4301,2.4301,2.4301,2.4301,2.4301,2.4301,2.4301,2.4301,2.4301,2.4301,2.4301,2.4301,2.4301,2.4301,2.4301,2.4301,2.4301,2.4301,2.4301,2.4301,2.4301,2.4301,2.4301,2.4301,2.4301,2.4301,2.4301,2.4301,2.4301,2.4301,2.4301,2.4301,2.4301,2.4301,2.4301,2.4301,2.4301,2.4301,2.4301,2.4301,2.4301,2.4301,2.4301,2.4301,2.4301,2.4301,2.4301,2.4301,2.4301,2.4301,2.4301,2.4301,2.4301,2.4301,2.4301,2.4301,2.4301,2.4261,2.4195,2.4063,2.3628,2.3206,2.2916,2.2626,2.2586,2.2586,2.2586,2.2586,2.2547,2.2494,2.2362,2.2178,2.1967,2.165,2.14,2.1242,2.0991,2.0872,2.0846,2.1091,2.1091,2.0833,2.0833,2.0833,2.0833,2.0833,2.0833,2.0833,2.0833,2.0793,2.0741,2.0688,2.0543,2.0067,1.982,1.9804,1.9567,1.9409,1.9541,4.7889,4.7889,4.7889,4.6713,4.4909,4.4645,4.3174,4.0804,3.6983,3.3231,2.9177,2.6116,2.4414,2.4374,2.4221,2.4301,2.4301,2.4301,2.4301,2.4301,2.4301,2.4301,2.4301,2.4301,2.4301,2.4301,2.4301,2.4301,2.4301,2.4301,2.4301,2.4301,2.4301,2.4301,2.4301,2.4301,2.4301,2.4301,2.4301,2.4301,2.4301,2.4301,2.4301,2.4301,2.4301,2.4301,2.4301,2.4301,2.4301,2.4301,2.4301,2.4301,2.4301,2.4301,2.4301,2.4301,2.4301,2.4301,2.4301,2.4301,2.4301,2.4301,2.4301,2.4301,2.4301,2.4301,2.4301,2.4301,2.4301,2.4301,2.4301,2.4301,2.4301,2.4301,2.4248,2.4208,2.3918,2.3179,2.2815,2.2246,2.1225,2.1225,2.1493,2.1493,2.2613,2.256,2.2547,2.2375,2.2099,2.1795,2.1637,2.1439,2.1057,2.0886,2.0886,2.0886,2.0872,2.0846,2.0833,2.0833,2.0833,2.0833,2.0833,2.0833,2.0833,2.0833,2.0833,2.0793,2.0675,2.0249,2.0292,2.0081,1.9818,1.9593,1.9936,4.7889,4.7889,4.7889,4.5511,4.228,4.199,3.9929,3.5808,3.1081,2.7391,2.4846,2.4334,2.4414,2.4428,2.4261,2.4301,2.4301,2.4301,2.4301,2.4301,2.4301,2.4301,2.4301,2.4301,2.4301,2.4301,2.4301,2.4301,2.4301,2.4301,2.4301,2.4301,2.4301,2.4301,2.4301,2.4301,2.4301,2.4301,2.4301,2.4301,2.4301,2.4301,2.4301,2.4301,2.4301,2.4301,2.4301,2.4301,2.4301,2.4301,2.4301,2.4301,2.4301,2.4301,2.4301,2.4301,2.4301,2.4301,2.4301,2.4301,2.4301,2.4301,2.4301,2.4301,2.4301,2.4301,2.4301,2.4301,2.4301,2.4301,2.4301,2.4301,2.4301,2.4301,2.4287,2.4287,2.4274,2.3531,2.2497,2.1335,1.9925,1.9586,1.9844,2.0407,2.2092,2.2639,2.26,2.2507,2.2217,2.1914,2.1743,2.1571,2.1176,2.0938,2.0965,2.0965,2.0951,2.0938,2.0912,2.0872,2.0833,2.0833,2.0833,2.0833,2.0846,2.0833,2.0833,2.0833,2.0767,2.0622,2.0437,2.0332,2.0094,2.0187,2.0516,4.7889,4.7889,4.7889,4.5824,4.228,4.1699,3.9324,3.5513,2.8153,2.4574,2.4548,2.4261,2.4261,2.4248,2.4274,2.4301,2.4301,2.4301,2.4301,2.4301,2.4301,2.4301,2.4301,2.4301,2.4301,2.4301,2.4301,2.4301,2.4301,2.4301,2.4301,2.4301,2.4301,2.4301,2.4301,2.4301,2.4301,2.4301,2.4301,2.4301,2.4301,2.4301,2.4301,2.4301,2.4301,2.4301,2.4301,2.4301,2.4301,2.4301,2.4301,2.4301,2.4301,2.4301,2.4301,2.4301,2.4301,2.4301,2.4301,2.4301,2.4301,2.4301,2.4301,2.4301,2.4301,2.4301,2.4301,2.4301,2.4301,2.4301,2.4301,2.4301,2.4301,2.4301,2.4301,2.4301,2.4261,2.401,2.2395,2.0007,1.7755,1.2459,1.3016,1.755,1.8945,2.1798,2.2626,2.2586,2.2323,2.1993,2.1835,2.1716,2.1334,2.1031,2.1083,2.1176,2.1123,2.1057,2.1004,2.0991,2.107,2.0991,2.0859,2.0859,2.0886,2.0859,2.0833,2.0833,2.0793,2.0701,2.0661,2.0569,2.0714,2.0938,2.111,4.7889,4.7889,4.7889,4.7001,4.4934,4.0513,3.463,2.9032,2.5788,2.4301,2.4301,2.4301,2.4301,2.4301,2.4301,2.4301,2.4301,2.4301,2.4301,2.4301,2.4301,2.4301,2.4301,2.4301,2.4301,2.4301,2.4301,2.4301,2.4301,2.4301,2.4301,2.4301,2.4301,2.4301,2.4301,2.4301,2.4301,2.4301,2.4301,2.4301,2.4301,2.4301,2.4301,2.4301,2.4301,2.4301,2.4301,2.4301,2.4301,2.4301,2.4301,2.4301,2.4301,2.4301,2.4301,2.4301,2.4301,2.4301,2.4301,2.4301,2.4301,2.4301,2.4301,2.4301,2.4301,2.4301,2.4301,2.4301,2.4301,2.4301,2.4301,2.4301,2.4301,2.4301,2.4301,2.4301,2.4208,2.4103,2.1982,1.8984,1.4105,0.7968,0.7635,1.243,1.6386,2.0383,2.2652,2.2626,2.2428,2.2125,2.198,2.194,2.1571,2.1228,2.136,2.1492,2.1466,2.1426,2.1307,2.1268,2.1334,2.1294,2.1162,2.1057,2.0965,2.0886,2.0833,2.0833,2.0899,2.0899,2.0872,2.107,2.136,2.1518,2.1426,4.7889,4.7889,4.7889,4.7889,4.7001,4.199,3.4924,2.7854,2.4888,2.4301,2.4301,2.4301,2.4301,2.4301,2.4301,2.4301,2.4301,2.4301,2.4301,2.4301,2.4301,2.4301,2.4301,2.4301,2.4301,2.4301,2.4301,2.4301,2.4301,2.4301,2.4301,2.4301,2.4301,2.4301,2.4301,2.4301,2.4301,2.4301,2.4301,2.4301,2.4301,2.4301,2.4301,2.4301,2.4301,2.4301,2.4301,2.4301,2.4301,2.4301,2.4301,2.4301,2.4301,2.4301,2.4301,2.4301,2.4301,2.4301,2.4301,2.4301,2.4301,2.4301,2.4301,2.4301,2.4301,2.4301,2.4301,2.4301,2.4301,2.4301,2.4301,2.4301,2.4301,2.4301,2.4301,2.4301,2.4274,2.3558,2.1,1.7711,1.3381,0.776,0.4253,0.9334,1.7852,2.0993,2.2424,2.2692,2.256,2.231,2.2165,2.2191,2.194,2.1703,2.1769,2.1756,2.1782,2.1782,2.165,2.1584,2.1584,2.1532,2.1439,2.1321,2.1176,2.1044,2.0912,2.0965,2.1057,2.1083,2.1242,2.1637,2.1927,2.1861,2.1769,4.7889,4.7889,4.7889,4.7889,4.7602,4.6688,4.228,3.4924,2.7556,2.4301,2.4301,2.4301,2.4301,2.4301,2.4301,2.4301,2.4301,2.4301,2.4301,2.4301,2.4301,2.4301,2.4301,2.4301,2.4301,2.4301,2.4301,2.4301,2.4301,2.4301,2.4301,2.4301,2.4301,2.4301,2.4301,2.4301,2.4301,2.4301,2.4301,2.4301,2.4301,2.4301,2.4301,2.4301,2.4301,2.4301,2.4301,2.4301,2.4301,2.4301,2.4301,2.4301,2.4301,2.4301,2.4301,2.4301,2.4301,2.4301,2.4301,2.4301,2.4301,2.4301,2.4301,2.4301,2.4301,2.4301,2.4301,2.4301,2.4301,2.4301,2.4301,2.4301,2.4301,2.4301,2.4301,2.4301,2.4301,2.3022,2.0483,1.7889,1.3811,0.7805,0.4561,1.0494,2.0184,2.1643,2.1128,2.1423,2.289,2.2613,2.2494,2.2521,2.2415,2.2178,2.2046,2.1993,2.2019,2.2112,2.1993,2.1927,2.1795,2.1743,2.1703,2.1624,2.1426,2.1268,2.1176,2.1189,2.1255,2.1426,2.1584,2.1927,2.2191,2.2138,2.2046,4.7889,4.7889,4.7889,4.7889,4.7289,4.4934,4.1117,3.5513,2.7854,2.4301,2.4301,2.4301,2.4301,2.4301,2.4301,2.4301,2.4301,2.4301,2.4301,2.4301,2.4301,2.4301,2.4301,2.4301,2.4301,2.4301,2.4301,2.4301,2.4301,2.4301,2.4301,2.4301,2.4301,2.4301,2.4301,2.4301,2.4301,2.4301,2.4301,2.4301,2.4301,2.4301,2.4301,2.4301,2.4301,2.4301,2.4301,2.4301,2.4301,2.4301,2.4301,2.4301,2.4301,2.4301,2.4301,2.4301,2.4301,2.4301,2.4301,2.4301,2.4301,2.4301,2.4301,2.4301,2.4301,2.4301,2.4301,2.4301,2.4301,2.4301,2.4301,2.4301,2.4301,2.4301,2.4301,2.4301,2.4301,2.434,2.2421,2.2524,1.8948,1.0438,0.5136,1.3683,1.9133,1.9188,1.954,2.1408,2.3259,2.3035,2.2877,2.2903,2.2837,2.2652,2.2494,2.2349,2.2336,2.2415,2.2402,2.2362,2.223,2.2033,2.2006,2.1954,2.1743,2.1558,2.1453,2.1439,2.1532,2.1677,2.1914,2.2151,2.2375,2.2389,2.2323,4.7889,4.7889,4.7889,4.7001,4.556,4.3047,3.8888,3.3781,2.8844,2.5585,2.4615,2.4301,2.4301,2.4301,2.4301,2.4301,2.4301,2.4301,2.4301,2.4301,2.4301,2.4301,2.4301,2.4301,2.4301,2.4301,2.4301,2.4301,2.4301,2.4301,2.4301,2.4301,2.4301,2.4301,2.4301,2.4301,2.4301,2.4301,2.4314,2.4314,2.4301,2.4301,2.4301,2.4301,2.4301,2.4301,2.4301,2.4301,2.4301,2.4301,2.4301,2.4301,2.4301,2.4301,2.4301,2.4301,2.4301,2.4301,2.4301,2.4301,2.4301,2.4301,2.4301,2.4301,2.4301,2.4301,2.4301,2.4301,2.4301,2.4301,2.4301,2.4301,2.4301,2.4301,2.4301,2.4301,2.4314,2.4353,2.4366,2.4169,2.0018,1.0843,0.4049,0.7503,1.1809,1.2692,1.9176,2.1955,2.3575,2.3404,2.3312,2.3338,2.3285,2.3114,2.2942,2.2745,2.2692,2.2586,2.256,2.2586,2.2534,2.2375,2.2323,2.2257,2.2046,2.1835,2.1743,2.1677,2.1782,2.1967,2.2217,2.2455,2.2521,2.2494,2.2455,4.7889,4.7889,4.7889,4.556,4.2172,4.1971,3.7743,3.1301,3.0332,2.8203,2.4668,2.4393,2.4393,2.4314,2.4366,2.434,2.4327,2.4301,2.4301,2.4301,2.4301,2.4301,2.4301,2.4301,2.4301,2.4301,2.4301,2.4301,2.4301,2.4301,2.4301,2.4301,2.4301,2.4301,2.4301,2.4301,2.4314,2.4327,2.438,2.4406,2.4432,2.4459,2.4459,2.4472,2.4472,2.4195,2.4472,2.4446,2.4406,2.4366,2.4353,2.4301,2.4301,2.4301,2.4301,2.4301,2.4301,2.4301,2.4301,2.4301,2.4301,2.4301,2.4301,2.4301,2.4301,2.4301,2.4301,2.4301,2.4301,2.4301,2.4301,2.4301,2.4301,2.4301,2.4301,2.4301,2.4301,2.4327,2.4406,2.434,1.743,0.9815,0.4415,0.0,0.0,1.1409,1.8831,2.2202,2.3544,2.3813,2.38,2.3786,2.3707,2.3509,2.3298,2.3127,2.2903,2.2705,2.2613,2.2586,2.2547,2.2507,2.2521,2.2534,2.2362,2.2178,2.2046,2.1927,2.2099,2.227,2.2521,2.2586,2.2586,2.2547,2.2468,4.7889,4.7889,4.7889,4.4157,3.8769,3.8633,3.5591,3.1284,3.0772,2.8826,2.4948,2.4828,2.4722,2.4446,2.4182,2.4221,2.4393,2.4353,2.4327,2.434,2.4353,2.4301,2.4301,2.4314,2.4327,2.4301,2.4301,2.4301,2.4301,2.4301,2.4301,2.4301,2.4301,2.4314,2.4366,2.4485,2.4312,2.4364,2.4469,2.4599,2.4907,2.4907,2.4894,2.456,2.4547,2.4547,2.4495,2.4377,2.4312,2.4247,2.4459,2.434,2.4314,2.4301,2.4301,2.4301,2.4301,2.4301,2.4301,2.4301,2.4301,2.4301,2.4301,2.4301,2.4301,2.4301,2.4301,2.4301,2.4301,2.4301,2.4301,2.4301,2.4301,2.4301,2.4301,2.4301,2.4301,2.4301,2.4393,2.3905,1.6359,0.9298,0.0,0.0,0.0,1.1131,1.7778,2.1403,2.2959,2.4103,2.4116,2.4076,2.4024,2.3839,2.3628,2.3351,2.3088,2.289,2.2718,2.2666,2.2586,2.2573,2.2573,2.2573,2.2547,2.2481,2.2389,2.2283,2.2402,2.256,2.2573,2.2586,2.2586,2.2573,2.2481,4.793,4.7474,4.4689,4.0202,3.4633,3.4797,3.2641,2.9193,2.8975,2.7319,2.5242,2.5402,2.4986,2.4788,2.4534,2.4495,2.467,2.4643,2.4657,2.4643,2.4604,2.4564,2.4485,2.4472,2.4406,2.4314,2.4301,2.4301,2.4301,2.4301,2.4301,2.4353,2.4446,2.4446,2.426,2.4443,2.4573,2.4651,2.4768,2.4859,2.5509,2.5509,2.5509,2.4872,2.4872,2.4872,2.4859,2.4999,2.4625,2.456,2.4443,2.4325,2.4538,2.4512,2.4432,2.4327,2.4301,2.4301,2.4301,2.4301,2.4301,2.4301,2.4301,2.4301,2.4301,2.4301,2.4301,2.4301,2.4301,2.4301,2.4301,2.4301,2.4301,2.4301,2.4301,2.4301,2.4301,2.4301,2.4078,2.3117,1.6824,0.9108,0.0,0.0,0.0,1.0785,1.5979,2.0537,2.2833,2.4248,2.4235,2.4195,2.4169,2.4024,2.38,2.3549,2.3272,2.3061,2.2863,2.2731,2.26,2.26,2.2586,2.2586,2.256,2.2534,2.2534,2.2573,2.2586,2.2573,2.2573,2.2586,2.2586,2.2586,2.2547,4.7491,4.5727,3.9062,3.4128,3.0804,3.111,2.8903,2.5969,2.5856,2.5803,2.5303,2.5237,2.5237,2.5171,2.4833,2.4859,2.5158,2.5184,2.5118,2.5118,2.5158,2.4973,2.4854,2.4736,2.4643,2.4419,2.4393,2.4366,2.4314,2.4393,2.4446,2.4393,2.467,2.4443,2.4534,2.4677,2.4794,2.5237,2.5342,2.5669,2.5669,2.5983,2.5969,2.5956,2.5929,2.5901,2.5901,2.5874,2.5536,2.4561,2.4471,2.4664,2.4815,2.4788,2.463,2.4485,2.4406,2.4406,2.4366,2.4366,2.4314,2.4301,2.4301,2.4301,2.4301,2.4301,2.4301,2.4301,2.4301,2.4301,2.4301,2.4301,2.4301,2.4301,2.4301,2.4301,2.4301,2.4301,2.3853,2.2603,1.707,0.8978,0.0,0.0,0.0,0.0,1.5893,1.8444,2.1078,2.4327,2.4314,2.4287,2.4274,2.4169,2.3958,2.38,2.3589,2.3364,2.3048,2.2837,2.2679,2.26,2.2586,2.2586,2.2586,2.2586,2.2586,2.2586,2.2586,2.2586,2.2586,2.2586,2.2586,2.2586,2.2586,4.2037,3.1602,2.955,2.8339,2.7412,2.7482,2.6829,2.583,2.5896,2.5896,2.579,2.5909,2.5709,2.5276,2.5081,2.5081,2.5224,2.5509,2.5197,2.5184,2.5171,2.5158,2.5105,2.5052,2.5229,2.4962,2.463,2.4538,2.4538,2.4683,2.4907,2.4973,2.5026,2.5065,2.5415,2.521,2.5342,2.5829,2.5685,2.5777,2.611,2.6123,2.6123,2.6136,2.6163,2.6163,2.6123,2.5976,2.5829,2.5133,2.5042,2.4911,2.5105,2.5065,2.4933,2.4709,2.467,2.467,2.4564,2.4446,2.4327,2.4301,2.4301,2.4301,2.4301,2.4301,2.4301,2.4301,2.4301,2.4301,2.4301,2.4301,2.4301,2.4301,2.4301,2.4301,2.4301,2.4327,2.3853,2.1044,1.5909,0.8444,0.0,0.0,0.0,0.0,1.3777,1.6671,1.9918,2.4065,2.434,2.4301,2.4287,2.4248,2.4103,2.401,2.3879,2.3641,2.3246,2.2982,2.2863,2.2771,2.2652,2.26,2.2586,2.2586,2.2586,2.2586,2.2586,2.2586,2.2586,2.2586,2.2586,2.2586,2.2586,3.4041,2.6216,2.6001,2.6041,2.6041,2.6041,2.6041,2.6041,2.6041,2.6041,2.6015,2.619,2.6043,2.5645,2.5711,2.5698,2.5606,2.5593,2.5566,2.5593,2.558,2.55,2.5408,2.5355,2.5536,2.5322,2.5229,2.4802,2.4841,2.5026,2.5509,2.5509,2.5616,2.5696,2.5709,2.5816,2.5963,2.6096,2.5936,2.6041,2.6041,2.6041,2.6041,2.6041,2.6028,2.6028,2.5988,2.619,2.5804,2.5764,2.5672,2.5514,2.5408,2.5355,2.525,2.4986,2.5039,2.4986,2.4775,2.4604,2.4446,2.4353,2.4301,2.4301,2.4301,2.4301,2.4301,2.4301,2.4301,2.4301,2.4301,2.4301,2.4301,2.4301,2.4301,2.4301,2.4314,2.434,2.2957,1.8881,1.4393,0.7301,0.0,0.0,0.0,0.0,1.226,1.7079,2.2177,2.4459,2.4366,2.4314,2.4301,2.4301,2.4221,2.4169,2.4024,2.3839,2.343,2.3285,2.3114,2.2903,2.2745,2.2666,2.2639,2.2613,2.2586,2.2586,2.2586,2.2586,2.2586,2.2586,2.2586,2.2586,2.2586,2.6081,2.6041,2.6041,2.6041,2.6041,2.6041,2.6041,2.6041,2.6041,2.6041,2.6041,2.6028,2.6015,2.5988,2.6015,2.6028,2.6015,2.5962,2.5949,2.5936,2.5949,2.583,2.5685,2.5659,2.5816,2.5915,2.5562,2.525,2.5316,2.5329,2.5656,2.6037,2.5909,2.5989,2.6016,2.583,2.6041,2.6028,2.6041,2.6041,2.6041,2.6041,2.6041,2.6041,2.6041,2.6041,2.6041,2.6028,2.6001,2.6015,2.6015,2.5909,2.5711,2.5659,2.5514,2.5448,2.5408,2.5395,2.4986,2.4762,2.4604,2.4459,2.4327,2.4301,2.4301,2.4301,2.4301,2.4301,2.4301,2.4301,2.4301,2.4301,2.4301,2.4301,2.4301,2.4301,2.4314,2.4353,2.247,1.8363,1.035,0.383,0.0,0.0,0.0,0.0,1.2003,1.9062,2.4469,2.4247,2.4406,2.4353,2.4327,2.4314,2.4248,2.4248,2.4142,2.401,2.38,2.3654,2.343,2.3193,2.2982,2.2797,2.2718,2.2692,2.2679,2.2652,2.26,2.2586,2.2586,2.2586,2.2586,2.2586,2.2586,2.594,2.6041,2.6041,2.6041,2.6041,2.6041,2.6041,2.6041,2.6041,2.6041,2.6041,2.6041,2.6041,2.6041,2.6041,2.6041,2.6041,2.6041,2.6041,2.6041,2.6041,2.6028,2.5962,2.5922,2.6123,2.5883,2.5856,2.5645,2.5764,2.5804,2.5856,2.6163,2.5883,2.5962,2.5936,2.6001,2.6028,2.6041,2.6041,2.6041,2.6041,2.6041,2.6041,2.6041,2.6041,2.6041,2.6041,2.6041,2.6041,2.6041,2.6041,2.6015,2.5962,2.5962,2.5936,2.5856,2.5698,2.558,2.5316,2.5078,2.4775,2.4604,2.4432,2.434,2.4301,2.4301,2.4301,2.4301,2.4301,2.4301,2.4301,2.4301,2.4301,2.4301,2.4301,2.4301,2.4314,2.3815,2.2224,1.4969,0.5975,0.0,0.0,0.0,0.0,0.0,0.9515,1.6939,2.4278,2.4351,2.3525,2.3776,2.3738,2.3712,2.4314,2.4327,2.4221,2.4116,2.401,2.3879,2.3668,2.347,2.3259,2.3061,2.2969,2.2942,2.2824,2.2784,2.2679,2.26,2.2586,2.2586,2.2586,2.2586,2.2586,2.6186,2.6054,2.6041,2.6041,2.6041,2.6041,2.6041,2.6041,2.6041,2.6041,2.6041,2.6041,2.6041,2.6041,2.6041,2.6041,2.6041,2.6041,2.6041,2.6041,2.6041,2.6041,2.6041,2.6041,2.5936,2.587,2.5817,2.5909,2.6041,2.6041,2.6015,2.6041,2.6041,2.6041,2.6041,2.6041,2.6041,2.6041,2.6041,2.6041,2.6041,2.6041,2.6041,2.6041,2.6041,2.6041,2.6041,2.6041,2.6041,2.6041,2.6041,2.6041,2.6041,2.6041,2.6041,2.6001,2.5909,2.5764,2.5553,2.5369,2.4999,2.4788,2.4617,2.4472,2.4353,2.4301,2.4301,2.4301,2.4301,2.4301,2.4301,2.4301,2.4301,2.4301,2.4301,2.4301,2.4327,2.4406,2.0068,1.3472,0.0,0.0,0.0,0.0,0.0,0.0,0.0,1.5128,2.3439,2.3204,2.2022,2.1975,2.1649,2.2543,2.4366,2.434,2.4248,2.4221,2.4156,2.4024,2.3865,2.3747,2.3562,2.3391,2.3325,2.3312,2.318,2.2956,2.2771,2.2626,2.2626,2.2613,2.26,2.2586,2.2586,2.6094,2.6041,2.6041,2.6041,2.6041,2.6041,2.6041,2.6041,2.6041,2.6041,2.6041,2.6041,2.6041,2.6041,2.6041,2.6041,2.6041,2.6041,2.6041,2.6041,2.6041,2.6041,2.6041,2.6041,2.6041,2.6041,2.6028,2.6015,2.6041,2.6041,2.6041,2.6041,2.6041,2.6041,2.6041,2.6041,2.6041,2.6041,2.6041,2.6041,2.6041,2.6041,2.6041,2.6041,2.6041,2.6041,2.6041,2.6041,2.6041,2.6041,2.6041,2.6041,2.6054,2.612,2.6107,2.6067,2.6015,2.5922,2.5738,2.5619,2.5316,2.496,2.4749,2.4604,2.4393,2.4301,2.4301,2.4301,2.4301,2.4301,2.4301,2.4301,2.4301,2.4301,2.4301,2.4301,2.4327,2.3815,2.0954,1.3111,0.0,0.0,0.0,0.0,0.0,0.0,0.0,0.9451,1.4378,1.4866,1.7471,1.8943,1.9539,2.2289,2.3487,2.3135,2.4,2.3686,2.4248,2.4116,2.4076,2.3984,2.3945,2.3839,2.376,2.3641,2.3417,2.3193,2.2995,2.2811,2.2718,2.2652,2.2613,2.2586,2.2586,2.594,2.6041,2.6041,2.6041,2.6041,2.6041,2.6041,2.6041,2.6041,2.6041,2.6041,2.6041,2.6041,2.6041,2.6041,2.6041,2.6041,2.6041,2.6041,2.6041,2.6041,2.6041,2.6041,2.6041,2.6041,2.6041,2.6041,2.6041,2.6041,2.6041,2.6041,2.6041,2.6041,2.6041,2.6041,2.6041,2.6041,2.6041,2.6041,2.6041,2.6041,2.6041,2.6041,2.6054,2.6067,2.6094,2.6094,2.6107,2.6081,2.6041,2.6041,2.6041,2.6107,2.6239,2.6331,2.6054,2.6041,2.6001,2.5909,2.5738,2.5487,2.5171,2.4907,2.463,2.438,2.4301,2.4301,2.4301,2.4301,2.4301,2.4301,2.4314,2.4314,2.4301,2.4301,2.4301,2.4327,2.4117,1.9982,1.2738,0.0,0.0,0.0,0.0,0.0,0.0,0.0,0.1578,0.2195,0.4042,1.1057,1.4347,1.9896,2.3601,2.1066,2.0091,2.2507,2.3097,2.4287,2.4248,2.4235,2.4169,2.4142,2.4142,2.4076,2.3918,2.3707,2.3496,2.3259,2.3022,2.2903,2.2824,2.2718,2.26,2.2613,2.5979,2.6054,2.6041,2.6041,2.6041,2.6041,2.6041,2.6041,2.6041,2.6041,2.6041,2.6041,2.6041,2.6041,2.6041,2.6041,2.6041,2.6041,2.6041,2.6041,2.6041,2.6041,2.6041,2.6041,2.6041,2.6041,2.6041,2.6041,2.6041,2.6041,2.6041,2.6041,2.6041,2.6041,2.6041,2.6041,2.6041,2.6041,2.6041,2.6041,2.6041,2.6041,2.6041,2.6054,2.6199,2.5953,2.5966,2.6057,2.607,2.5992,2.6278,2.6292,2.6318,2.6265,2.6199,2.6067,2.6041,2.6041,2.6041,2.5896,2.5645,2.5224,2.5065,2.4736,2.4432,2.4301,2.4301,2.4301,2.4301,2.4327,2.4353,2.438,2.438,2.4366,2.4353,2.434,2.4366,2.4286,2.0154,0.8431,0.0,0.0,0.0,0.0,0.0,0.0,0.0,0.0,0.0,0.0,0.0,0.0,0.0,2.1157,1.7718,1.8286,2.0685,2.2821,2.4013,2.4301,2.4301,2.4301,2.4314,2.4287,2.3935,2.3804,2.3984,2.3813,2.3602,2.2773,2.2567,2.2737,2.231,2.1018,2.0969,2.5927,2.6041,2.6041,2.6041,2.6041,2.6041,2.6041,2.6041,2.6041,2.6041,2.6041,2.6041,2.6041,2.6041,2.6041,2.6041,2.6041,2.6041,2.6041,2.6041,2.6041,2.6041,2.6041,2.6041,2.6041,2.6041,2.6041,2.6041,2.6041,2.6041,2.6041,2.6041,2.6041,2.6041,2.6041,2.6041,2.6041,2.6041,2.6041,2.6041,2.6041,2.6041,2.6041,2.6067,2.5914,2.6057,2.6175,2.6357,2.6091,2.6383,2.6409,2.674,2.6582,2.6397,2.6318,2.6265,2.6186,2.6081,2.612,2.6054,2.5804,2.5289,2.5131,2.4625,2.438,2.4301,2.4314,2.4327,2.4327,2.4353,2.4419,2.4472,2.321,2.1951,2.2556,2.3776,2.1625,1.9666,1.3041,0.0,0.0,0.0,0.0,0.0,0.0,0.0,0.0,0.0,0.0,0.0,0.0,0.0,0.0,1.4074,1.2819,1.5547,1.8881,2.2241,2.3712,2.4301,2.4301,2.4301,2.4327,2.434,2.3423,2.3987,2.3883,2.4024,2.303,2.2495,2.1689,2.1518,2.1049,1.9416,1.8773,2.6067,2.6041,2.6041,2.6041,2.6041,2.6041,2.6041,2.6041,2.6041,2.6041,2.6041,2.6041,2.6041,2.6041,2.6041,2.6041,2.6041,2.6041,2.6041,2.6041,2.6041,2.6041,2.6041,2.6041,2.6041,2.6041,2.6041,2.6041,2.6041,2.6041,2.6041,2.6041,2.6041,2.6041,2.6041,2.6041,2.6041,2.6041,2.6041,2.6041,2.6041,2.6041,2.6041,2.6054,2.6133,2.6577,2.6817,2.6977,2.6819,2.6878,2.7177,2.7294,2.6898,2.6832,2.6779,2.67,2.6331,2.616,2.6331,2.612,2.5777,2.5289,2.5158,2.4612,2.4472,2.4314,2.434,2.438,2.4393,2.287,2.2302,2.3247,2.046,1.7983,2.0146,1.9832,1.4301,0.6996,0.1845,0.0,0.0,0.0,0.0,0.0,0.0,0.0,0.0,0.0,0.0,0.0,0.0,0.0,0.0,0.0,0.0,0.0,1.7376,2.2277,2.375,2.4301,2.4301,2.4327,2.4353,2.2519,1.9757,1.9434,2.1856,2.2771,2.2397,2.1,1.778,1.8497,1.8931,1.5313,1.8185,2.6199,2.6041,2.6041,2.6041,2.6041,2.6041,2.6041,2.6041,2.6041,2.6041,2.6041,2.6041,2.6041,2.6041,2.6041,2.6041,2.6041,2.6041,2.6041,2.6041,2.6041,2.6041,2.6041,2.6041,2.6041,2.6041,2.6041,2.6041,2.6041,2.6041,2.6041,2.6041,2.6041,2.6041,2.6041,2.6041,2.6041,2.6041,2.6041,2.6041,2.6041,2.6041,2.6041,2.6054,2.6054,2.6278,2.6727,2.7069,2.7346,2.7518,2.7544,2.7439,2.7162,2.6872,2.674,2.6872,2.6697,2.643,2.616,2.5962,2.554,2.5078,2.4625,2.4417,2.4459,2.4366,2.4393,2.3197,1.9497,1.5522,1.1563,1.0343,1.2791,1.618,1.3732,0.8534,0.5787,0.0,0.0,0.0,0.0,0.0,0.0,0.0,0.0,0.0,0.0,0.0,0.0,0.0,0.0,0.0,0.0,0.0,0.0,0.0,1.5218,2.1987,2.4393,2.4301,2.4314,2.434,2.4091,2.2289,1.7036,1.4891,1.8266,2.0416,1.7934,1.4215,1.3194,1.1886,1.0634,0.7926,1.5584,2.5927,2.6054,2.6041,2.6041,2.6041,2.6041,2.6041,2.6041,2.6041,2.6041,2.6041,2.6041,2.6041,2.6041,2.6041,2.6041,2.6041,2.6041,2.6041,2.6041,2.6041,2.6041,2.6041,2.6041,2.6041,2.6041,2.6041,2.6041,2.6041,2.6041,2.6041,2.6041,2.6041,2.6041,2.6041,2.6041,2.6041,2.6041,2.6041,2.6041,2.6041,2.6041,2.6081,2.6146,2.6173,2.6083,2.6206,2.7073,2.7702,2.7755,2.7571,2.7465,2.7425,2.6964,2.6845,2.703,2.6977,2.6603,2.6265,2.5693,2.5211,2.4677,2.4573,2.4377,2.4156,2.2568,2.0113,1.6761,1.3088,0.6685,0.0,0.0,0.0,1.4363,0.7934,0.0,0.0,0.0,0.0,0.0,0.0,0.0,0.0,0.0,0.0,0.0,0.0,0.0,0.0,0.0,0.0,0.0,0.0,0.0,0.0,0.0,1.4915,2.1999,2.4472,2.4406,2.4472,2.4512,2.3639,0.0,0.0,0.0,0.0,0.0,0.0,0.3953,0.4239,0.6051,0.391,0.0,0.0,2.6067,2.6054,2.6041,2.6041,2.6041,2.6041,2.6041,2.6041,2.6041,2.6041,2.6041,2.6041,2.6041,2.6041,2.6041,2.6041,2.6041,2.6041,2.6041,2.6041,2.6041,2.6041,2.6041,2.6041,2.6041,2.6041,2.6041,2.6041,2.6041,2.6041,2.6041,2.6041,2.6041,2.6041,2.6041,2.6041,2.6041,2.6041,2.6041,2.6041,2.6041,2.6041,2.616,2.6096,2.6109,2.6253,2.6258,2.728,2.7912,2.7755,2.7768,2.7729,2.7663,2.7267,2.6852,2.623,2.7069,2.5415,2.5441,2.2986,2.2536,2.2988,2.3686,2.4162,2.1427,1.5833,1.0641,0.4865,0.0,0.0,0.0,0.0,0.0,0.0,0.0,0.0,0.0,0.0,0.0,0.0,0.0,0.0,0.0,0.0,0.0,0.0,0.0,0.0,0.0,0.0,0.0,0.0,0.0,0.0,0.0,1.3413,1.7367,2.2969,2.4617,2.4657,2.4762,2.4495,2.3906,0.0,0.0,0.0,0.0,0.0,0.0,0.0,0.0,0.0,0.0,0.0,0.0,2.6041,2.6041,2.6041,2.6041,2.6041,2.6041,2.6041,2.6041,2.6041,2.6041,2.6041,2.6041,2.6041,2.6041,2.6041,2.6041,2.6041,2.6041,2.6041,2.6041,2.6041,2.6041,2.6041,2.6041,2.6041,2.6041,2.6041,2.6041,2.6041,2.6041,2.6041,2.6041,2.6041,2.6041,2.6041,2.6041,2.6041,2.6041,2.6041,2.6041,2.6041,2.6041,2.6186,2.6109,2.683,2.7084,2.7175,2.7478,2.7689,2.7768,2.7795,2.7795,2.7755,2.732,2.5455,2.1473,1.5708,1.2757,1.631,1.2885,1.1034,1.6743,2.1577,2.0244,0.0,0.0,0.3651,0.0,0.0,0.0,0.0,0.0,0.0,0.0,0.0,0.0,0.0,0.0,0.0,0.0,0.0,0.0,0.0,0.0,0.0,0.0,0.0,0.0,0.0,0.0,0.0,0.0,0.0,0.0,0.0,1.6806,2.046,2.2739,2.4495,2.4986,2.4122,2.3526,0.0,0.0,0.0,0.0,0.0,0.0,0.0,0.0,0.0,0.0,0.0,0.0,0.0,2.6041,2.6041,2.6041,2.6041,2.6041,2.6041,2.6041,2.6041,2.6041,2.6041,2.6041,2.6041,2.6041,2.6041,2.6041,2.6041,2.6041,2.6041,2.6041,2.6041,2.6041,2.6041,2.6041,2.6041,2.6041,2.6041,2.6041,2.6041,2.6041,2.6041,2.6041,2.6041,2.6041,2.6041,2.6041,2.6041,2.6041,2.6041,2.6041,2.6041,2.6054,2.6133,2.5992,2.6253,2.7057,2.7685,2.7805,2.7689,2.7795,2.7795,2.7795,2.7755,2.761,2.7538,2.2907,1.3467,0.4274,0.2904,0.7046,0.3486,0.3124,0.7994,1.3137,1.036,0.0,0.0,0.0,0.0,0.0,0.0,0.0,0.0,0.0,0.0,0.0,0.0,0.0,0.0,0.0,0.0,0.0,0.0,0.0,0.0,0.0,0.0,0.0,0.0,0.0,0.0,0.0,0.0,0.0,0.0,1.1938,1.7795,2.0593,2.2578,2.4483,2.5421,2.3169,2.0615,1.1997,0.0,0.0,0.0,0.0,0.0,0.0,0.0,0.0,0.0,0.0,0.0,0.0,2.6041,2.6041,2.6041,2.6041,2.6041,2.6041,2.6041,2.6041,2.6041,2.6041,2.6041,2.6041,2.6041,2.6041,2.6041,2.6054,2.6067,2.6067,2.6067,2.6067,2.6067,2.6067,2.6067,2.6067,2.6067,2.6067,2.6054,2.6054,2.6054,2.6054,2.6041,2.6041,2.6041,2.6041,2.6041,2.6054,2.6054,2.6081,2.6054,2.6067,2.6081,2.5992,2.5924,2.6219,2.7175,2.7805,2.7755,2.7781,2.7795,2.7795,2.7781,2.7689,2.7805,2.5963,1.894,0.4298,0.0,0.0,0.0,0.0,0.0,0.0,0.0,0.0,0.0,0.0,0.0,0.0,0.0,0.0,0.0,0.0,0.0,0.0,0.0,0.0,0.0,0.0,0.0,0.0,0.0,0.0,0.0,0.0,0.0,0.0,0.0,0.0,0.0,0.0,0.0,0.0,0.0,0.0,1.1639,1.88,2.0748,2.2783,2.4503,2.2513,1.8938,1.3777,0.5112,0.0,0.0,0.0,0.0,0.0,0.0,0.0,0.0,0.0,0.0,0.0,0.0,2.6041,2.6041,2.6041,2.6041,2.6041,2.6041,2.6041,2.6041,2.6041,2.6041,2.6041,2.6041,2.6041,2.6041,2.6041,2.6094,2.6173,2.5849,2.6186,2.6186,2.6186,2.6186,2.6186,2.6186,2.6186,2.5849,2.6186,2.616,2.612,2.6067,2.6054,2.6054,2.6041,2.6041,2.6041,2.6041,2.616,2.5953,2.6146,2.5927,2.5898,2.6201,2.637,2.7162,2.7505,2.7702,2.7781,2.7795,2.7795,2.7768,2.7952,2.7831,2.6369,1.6088,0.5941,0.0,0.0,0.0,0.0,0.0,0.0,0.0,0.0,0.0,0.0,0.0,0.0,0.0,0.0,0.0,0.0,0.0,0.0,0.0,0.0,0.0,0.0,0.0,0.0,0.0,0.0,0.0,0.0,0.0,0.0,0.0,0.0,0.0,0.0,0.0,0.0,0.0,0.0,0.0,0.0,0.0,2.0412,2.2878,2.4883,1.717,1.1347,0.551,0.0,0.0,0.0,0.0,0.0,0.0,0.0,0.0,0.0,0.0,0.0,0.0,0.0,2.5738,2.6069,2.5738,2.5804,2.587,2.5777,2.587,2.6028,2.5962,2.5975,2.6067,2.6107,2.612,2.5771,2.2937,2.1257,2.1323,2.1323,2.1323,2.1323,2.1323,2.1323,2.1323,2.1323,2.1323,2.1334,2.1334,2.2984,2.5667,2.5988,2.6001,2.6067,2.6094,2.6067,2.6054,2.6041,2.6186,2.6109,2.6318,2.6096,2.6155,2.65,2.703,2.7845,2.7702,2.7795,2.7795,2.7795,2.7742,2.7992,2.7831,2.7711,2.5542,1.0022,0.0,0.0,0.0,0.0,0.0,0.0,0.0,0.0,0.0,0.0,0.0,0.0,0.0,0.0,0.0,0.0,0.0,0.0,0.0,0.0,0.0,0.0,0.0,0.0,0.0,0.0,0.0,0.0,0.0,0.0,0.0,0.0,0.0,0.0,0.0,0.0,0.0,0.0,0.0,0.0,0.0,0.0,1.9108,2.1268,0.0,0.0,0.0,0.0,0.0,0.0,0.0,0.0,0.0,0.0,0.0,0.0,0.0,0.0,0.0,0.0,0.0,2.5536,2.5861,2.5522,2.5382,2.558,2.5342,2.5527,2.5962,2.5777,2.4858,2.3734,2.4478,2.4877,2.3483,1.5612,1.2594,1.26,1.2299,1.2305,1.2305,1.2614,1.2594,1.2587,1.2587,1.26,1.2318,1.4553,1.9099,2.579,2.5458,2.5242,2.4789,2.5435,2.6094,2.6067,2.6054,2.6199,2.6148,2.6489,2.6648,2.6271,2.7241,2.7831,2.7742,2.7795,2.7781,2.7768,2.7768,2.7992,2.7698,2.7711,2.6579,2.3599,0.8976,0.0,0.0,0.0,0.0,0.0,0.0,0.0,0.0,0.0,0.0,0.0,0.0,0.0,0.0,0.0,0.0,0.0,0.0,0.0,0.0,0.0,0.0,0.0,0.0,0.0,0.0,0.0,0.0,0.0,0.0,0.0,0.0,0.0,0.0,0.0,0.0,0.0,0.0,0.0,0.0,0.0,0.0,0.0,1.4177,0.0,0.0,0.0,0.0,0.0,0.0,0.0,0.0,0.0,0.0,0.0,0.0,0.0,0.0,0.0,0.0,0.0,2.5762,2.5915,2.5616,2.5355,2.5421,2.5669,2.5736,2.554,2.5816,1.8724,0.8556,1.398,1.3057,0.7328,0.4753,0.3473,0.3473,0.3473,0.3473,0.3473,0.3473,0.0,0.3473,0.3473,0.3473,0.5369,1.5838,2.3253,2.4895,2.0016,1.3354,0.9934,1.9957,2.5936,2.6094,2.6067,2.5953,2.6039,2.6595,2.6845,2.7452,2.7636,2.7716,2.7795,2.7795,2.7702,2.7845,2.7818,2.7711,2.7807,2.6924,2.0714,0.8304,0.2962,0.0,0.0,0.0,0.0,0.0,0.0,0.0,0.0,0.0,0.0,0.0,0.0,0.0,0.0,0.0,0.0,0.0,0.0,0.0,0.0,0.0,0.0,0.0,0.0,0.0,0.0,0.0,0.0,0.0,0.0,0.0,0.0,0.0,0.0,0.0,0.0,0.0,0.0,0.0,0.0,0.0,0.0,0.0,0.0,0.0,0.0,0.0,0.0,0.0,0.0,0.0,0.0,0.0,0.0,0.0,0.0,0.0,0.0,0.0,0.0,0.0,2.5184,2.5118,2.1545,1.9983,2.0369,2.0293,2.0358,1.9881,1.6957,0.9719,0.1256,0.5324,0.4998,0.0,0.0,0.0,0.0,0.0,0.0,0.0,0.0,0.0,0.0,0.0,0.0,0.0,1.0307,1.5328,1.437,1.0318,0.503,0.1903,0.9842,1.9208,2.5628,2.6054,2.6018,2.6194,2.6859,2.7498,2.7716,2.7795,2.7742,2.7978,2.7965,2.7831,2.7901,2.7201,2.7096,2.6526,1.962,1.0567,0.0,0.0,0.0,0.0,0.0,0.0,0.0,0.0,0.0,0.0,0.0,0.0,0.0,0.0,0.0,0.0,0.0,0.0,0.0,0.0,0.0,0.0,0.0,0.0,0.0,0.0,0.0,0.0,0.0,0.0,0.0,0.0,0.0,0.0,0.0,0.0,0.0,0.0,0.0,0.0,0.0,0.0,0.0,0.0,0.0,0.0,0.0,0.0,0.0,0.0,0.0,0.0,0.0,0.0,0.0,0.0,0.0,0.0,0.0,0.0,0.0,0.0,0.0,2.193,2.0825,1.4119,1.1333,1.1745,1.1333,1.1425,1.0675,0.3737,0.0,0.0,0.0,0.0,0.0,0.0,0.0,0.0,0.0,0.0,0.0,0.0,0.0,0.0,0.0,0.0,0.0,0.0,0.0,0.0,0.0,0.0,0.0,0.0,0.9165,2.407,2.5975,2.6031,2.6181,2.7175,2.7805,2.7702,2.7716,2.7925,2.7671,2.7671,2.7524,2.7577,2.6578,2.5466,2.2548,0.8584,0.0,0.0,0.0,0.0,0.0,0.0,0.0,0.0,0.0,0.0,0.0,0.0,0.0,0.0,0.0,0.0,0.0,0.0,0.0,0.0,0.0,0.0,0.0,0.0,0.0,0.0,0.0,0.0,0.0,0.0,0.0,0.0,0.0,0.0,0.0,0.0,0.0,0.0,0.0,0.0,0.0,0.0,0.0,0.0,0.0,0.0,0.0,0.0,0.0,0.0,0.0,0.0,0.0,0.0,0.0,0.0,0.0,0.0,0.0,0.0,0.0,0.0,0.0,0.0,0.5637,0.533,0.3415,0.2786,0.2792,0.2785,0.2804,0.2841,0.0,0.0,0.0,0.0,0.0,0.0,0.0,0.0,0.0,0.0,0.0,0.0,0.0,0.0,0.0,0.0,0.0,0.0,0.0,0.0,0.0,0.0,0.0,0.0,0.0,0.8761,2.5843,2.6083,2.647,2.6964,2.7617,2.7444,2.7109,2.7109,2.7418,2.7699,2.7004,2.6526,2.6608,2.6266,1.9802,0.6851,0.2283,0.0,0.0,0.0,0.0,0.0,0.0,0.0,0.0,0.0,0.0,0.0,0.0,0.0,0.0,0.0,0.0,0.0,0.0,0.0,0.0,0.0,0.0,0.0,0.0,0.0,0.0,0.0,0.0,0.0,0.0,0.0,0.0,0.0,0.0,0.0,0.0,0.0,0.0,0.0,0.0,0.0,0.0,0.0,0.0,0.0,0.0,0.0,0.0,0.0,0.0,0.0,0.0,0.0,0.0,0.0,0.0,0.0,0.0,0.0,0.0,0.0,0.0,0.0,0.0,0.0,0.0,0.0,0.0,0.0,0.0,0.0,0.0,0.0,0.0,0.0,0.0,0.0,0.0,0.0,0.0,0.0,0.0,0.0,0.0,0.0,0.0,0.0,0.0,0.0,0.0,0.0,0.0,0.0,0.0,0.0,0.0,0.0,0.8766,2.435,1.8054,1.8267,2.6568,2.7172,2.7172,2.6555,2.5859,2.6109,2.6996,2.6253,2.6188,2.6107,2.5927,2.1854,1.2186,0.4508,0.0,0.0,0.0,0.0,0.0,0.0,0.0,0.0,0.0,0.0,0.0,0.0,0.0,0.0,0.0,0.0,0.0,0.0,0.0,0.0,0.0,0.0,0.0,0.0,0.0,0.0,0.0,0.0,0.0,0.0,0.0,0.0,0.0,0.0,0.0,0.0,0.0,0.0,0.0,0.0,0.0,0.0,0.0,0.0,0.0,0.0,0.0,0.0,0.0,0.0,0.0,0.0,0.0,0.0,0.0,0.0,0.0,0.0,0.0,0.0,0.0,0.0,0.0,0.0,0.0,0.0,0.0,0.0,0.0,0.0,0.0,0.0,0.0,0.0,0.0,0.0,0.0,0.0,0.0,0.0,0.0,0.0,0.0,0.0,0.0,0.0,0.0,0.0,0.0,0.0,0.0,0.0,0.0,0.0,0.0,0.0,0.0,0.7225,1.9946,0.7453,0.8829,2.5872,2.678,2.631,2.5486,2.4441,2.4551,2.5829,2.6081,2.6107,2.6064,2.587,2.587,2.5616,0.948,0.0,0.0,0.0,0.0,0.0,0.0,0.0,0.0,0.0,0.0,0.0,-0.1838,-0.2761,-0.2712,-0.1205,0.0,0.0,0.0,0.0,0.0,0.0,0.0,0.0,0.0,0.0,0.0,0.0,0.0,0.0,0.0,0.0,0.0,0.0,0.0,0.0,0.0,0.0,0.0,0.0,0.0,0.0,0.0,0.0,0.0,0.0,0.0,0.0,0.0,0.0,0.0,0.0,0.0,0.0,0.0,0.0,0.0,0.0,0.0,0.0,0.0,0.0,0.0,0.0,0.0,0.0,0.0,0.0,0.0,0.0,0.0,0.0,0.0,0.0,0.0,0.0,0.0,0.0,0.0,0.0,0.0,0.0,0.0,0.0,0.0,0.0,0.0,0.0,0.0,0.0,0.0,0.0,0.0,0.0,0.0,0.0,0.0,0.0,0.1565,0.4123,0.1604,0.8757,2.5366,2.6305,2.5252,2.323,2.2848,2.4008,2.5904,2.5923,2.6172,2.6131,2.5133,2.5036,2.5667,0.9421,0.0,0.0,0.0,0.0,0.0,0.0,0.0,0.0,0.0,0.0,0.0,-0.9739,-1.5698,-1.5694,-0.5905,0.0,0.0,0.0,0.0,0.0,0.0,0.0,0.0,0.0,0.0,0.0,0.0,0.0,0.0,0.0,0.0,0.0,0.0,0.0,0.0,0.0,0.0,0.0,0.0,0.0,0.0,0.0,0.0,0.0,0.0,0.0,0.0,0.0,0.0,0.0,0.0,0.0,0.0,0.0,0.0,0.0,0.0,0.0,0.0,0.0,0.0,0.0,0.0,0.0,0.0,0.0,0.0,0.0,0.0,0.0,0.0,0.0,0.0,0.0,0.0,0.0,0.0,0.0,0.0,0.0,0.0,0.0,0.0,0.0,0.0,0.0,0.0,0.0,0.0,0.0,0.0,0.0,0.0,0.0,0.0,0.0,0.0,0.0,0.0,0.0,0.4231,1.2777,2.0453,1.9987,1.154,1.1191,1.5822,2.5577,2.3715,0.0,0.0,0.0,0.0,0.0,0.0,0.0,0.0,0.0,0.0,0.0,0.0,0.0,0.0,0.0,-0.2751,-0.87,-1.5031,-1.8231,-1.7076,-1.256,-0.6884,0.0,0.0,0.0,0.0,0.0,0.0,0.0,0.0,0.0,0.0,0.0,0.0,0.0,0.0,0.0,0.0,0.0,0.0,0.0,0.0,0.0,0.0,0.0,0.0,0.0,0.0,0.0,0.0,0.0,0.0,0.0,0.0,0.0,0.0,0.0,0.0,0.0,0.0,0.0,0.0,0.0,0.0,0.0,0.0,0.0,0.0,0.0,0.0,0.0,0.0,0.0,0.0,0.0,0.0,0.0,0.0,0.0,0.0,0.0,0.0,0.0,0.0,0.0,0.0,0.0,0.0,0.0,0.0,0.0,0.0,0.0,0.0,0.0,0.0,0.0,0.0,0.0,0.0,0.0,0.0,0.0,0.0,0.0,0.0,0.0,0.0,1.2192,1.2409,0.0,0.0,0.6933,2.0444,1.7341,0.0,2.5496,2.1909,1.3443,0.0,0.0,0.0,0.0,0.0,0.0,0.0,0.0,0.0,0.0,0.0,0.0,0.0,-1.7406,-1.6521,-1.4938,-1.7059,-1.411,-0.3576,-0.3204,-0.276,0.0,0.0,0.0,0.0,0.0,-0.0843,-0.3087,0.0,-0.2557,0.0,0.0,0.0,0.0,-0.2408,0.0,0.0,0.0,0.0,0.0,0.0,0.0,0.0,0.0,0.0,0.0,0.0,0.0,0.0,0.0,0.0,0.0,0.0,0.0,0.0,0.0,0.0,0.0,0.0,0.0,0.0,0.0,0.0,0.0,0.0,0.0,0.0,0.0,0.0,0.0,0.0,0.0,0.0,0.0,0.0,0.0,0.0,0.0,0.0,0.0,0.0,0.0,0.0,0.0,0.0,0.0,0.0,0.0,0.0,0.0,0.0,0.0,0.0,0.0,0.0,0.0,0.0,0.0,0.0,0.0,0.0,0.0,0.0,0.0,0.1939,0.1955,0.0,0.0,0.0956,0.3069,0.2862,0.9837,2.4641,1.1176,0.2173,0.0,0.0,0.0,0.0,0.0,0.0,0.0,0.0,0.0,0.0,0.0,0.0,0.0,0.0,0.0,0.0,-1.6232,-1.5145,-1.0985,-1.4287,-1.2096,-0.104,0.0,0.0,0.0,0.0,-0.4082,-1.3785,-1.5993,-1.235,-0.1136,0.0,0.0,0.0,-1.0892,-1.3063,0.0,0.0,0.0,0.0,0.0,0.0,0.0,0.0,0.0,0.0,0.0,0.0,0.0,0.0,0.0,0.0,0.0,0.0,0.0,0.0,0.0,0.0,0.0,0.0,0.0,0.0,0.0,0.0,0.0,0.0,0.0,0.0,0.0,0.0,0.0,0.0,0.0,0.0,0.0,0.0,0.0,0.0,0.0,0.0,0.0,-0.3536,-0.9604,-1.0944,-0.7408,0.0,0.0,0.0,0.0,0.0,0.0,0.0,0.0,0.0,0.0,0.0,0.0,0.0,0.0,0.0,0.0,0.0,0.0,0.0,0.0,0.0,0.0,0.0,0.0,0.0,0.0,0.383,1.1327,0.4024,0.0,0.0,0.0,0.0,0.0,0.0,0.0,0.0,0.0,0.0,0.0,0.0,0.0,0.0,0.0,0.0,0.0,0.0,-1.4751,-1.4058,-1.7138,-1.5751,-0.7474,-0.2658,0.0,0.0,-0.5008,-1.0574,-1.7104,-1.6366,-1.2477,-0.5536,-0.1899,-0.25,-0.9611,-1.6472,-1.8195,-1.1499,-0.4412,0.0,0.0,0.0,0.0,0.0,0.0,0.0,0.0,0.0,0.0,0.0,0.0,0.0,0.0,0.0,0.0,0.0,0.0,0.0,0.0,0.0,0.0,0.0,0.0,0.0,0.0,0.0,0.0,0.0,0.0,0.0,0.0,0.0,0.0,0.0,0.0,0.0,0.0,0.0,0.0,0.0,-0.0,-0.248,-0.8548,-1.7186,-1.8413,-1.3706,-0.4484,-0.1449,0.0,0.0,0.0,0.0,0.0,0.0,0.0,0.0,0.0,0.0,0.0,0.0,0.0,0.0,-0.2083,-0.2165,0.0,0.0,0.0,0.0,0.0,0.0,0.0,0.0,0.0,0.0,0.0,0.0,0.0,0.0,0.0,0.0,0.0,0.0,0.0,0.0,0.0,0.0,0.0,0.0,0.0,0.0,-1.2895,-1.1208,0.0,-1.4016,0.0,-1.638,-1.6261,-1.4013,-0.5551,0.0,0.0,-1.0386,-1.5635,-1.6782,-1.4541,-1.2238,-1.047,-0.688,-0.8205,-1.8021,-1.9973,-1.9517,-1.7028,-0.9741,-0.4537,-0.475,-0.2576,0.0,0.0,0.0,0.0,0.0,0.0,0.0,0.0,0.0,0.0,0.0,0.0,0.0,0.0,0.0,0.0,0.0,0.0,0.0,0.0,0.0,0.0,0.0,0.0,0.0,0.0,0.0,0.0,0.0,0.0,0.0,0.0,0.0,0.0,0.0,0.0,0.0,0.0,-0.046,-0.9488,0.0,-1.661,-1.5154,-1.5586,-1.6989,-0.5515,0.0,0.0,0.0,0.0,0.0,0.0,0.0,0.0,0.0,0.0,0.0,0.0,0.0,0.0,-0.8528,-0.8392,0.0,0.0,0.0,0.0,0.0,0.0,0.0,0.0,0.0,0.0,0.0,0.0,0.0,0.0,0.0,0.0,0.0,0.0,0.0,0.0,0.0,0.0,0.0,0.0,0.0,0.0,0.0,0.0,0.0,0.0,0.0,-1.2935,0.0,-1.8049,-0.733,0.0,0.0,0.0,-1.5328,-1.3823,-1.4186,-1.4622,-1.4949,0.0,0.0,-1.9626,-1.9592,-1.6956,-1.1029,-1.4428,-1.7943,-1.8979,-0.789,0.0,0.0,0.0,0.0,0.0,0.0,0.0,0.0,0.0,0.0,0.0,0.0,0.0,0.0,0.0,0.0,0.0,0.0,0.0,0.0,0.0,0.0,0.0,0.0,0.0,0.0,0.0,0.0,0.0,0.0,-0.2186,-0.5218,-0.8238,-0.76,-0.46,0.0,0.0,-0.3292,-0.9102,-1.2984,0.0,0.0,0.0,-1.5657,-1.6423,-0.5265,-0.2078,-0.5953,-0.9633,-1.1603,-1.1232,-0.381,0.0,0.0,0.0,0.0,0.0,0.0,0.0,-0.8179,-1.1331,-0.859,0.0,0.0,0.0,0.0,0.0,0.0,0.0,0.0,0.0,0.0,0.0,0.0,0.0,0.0,0.0,0.0,0.0,0.0,0.0,0.0,0.0,0.0,0.0,0.0,0.0,0.0,-1.0219,-0.8966,0.0,0.0,0.0,-1.1522,-1.0716,-1.0724,-0.7807,0.0,0.0,0.0,0.0,0.0,0.0,0.0,-1.533,-1.6994,-1.8193,-1.8422,-1.8589,-1.7684,-1.5496,-1.8208,-1.7093,-0.9234,0.0,0.0,0.0,0.0,0.0,0.0,0.0,0.0,0.0,0.0,0.0,0.0,0.0,0.0,0.0,0.0,0.0,0.0,0.0,0.0,0.0,0.0,0.0,0.0,-0.3301,-0.6349,0.0,0.0,0.0,0.0,0.0,-0.6112,-0.9564,-1.2944,-1.1036,-0.7008,-0.1641,-0.2629,0.0,0.0,0.0,0.0,0.0,0.0,-1.4484,-1.5052,-0.8694,-0.7919,-1.2296,-1.7014,-1.9136,-1.8626,-0.7049,-0.1028,-0.0,-0.0725,-0.1748,-0.2902,0.0,0.0,0.0,0.0,-0.8411,0.0,0.0,0.0,0.0,0.0,0.0,0.0,0.0,0.0,0.0,0.0,0.0,0.0,0.0,0.0,0.0,0.0,0.0,0.0,0.0,0.0,0.0,0.0,0.0,0.0,0.0,0.0,0.0,0.0,0.0,0.0,0.0,0.0,-0.6925,-0.815,-1.0486,0.0,0.0,0.0,0.0,0.0,0.0,0.0,0.0,0.0,-1.6475,-1.7279,-1.7686,0.0,0.0,-1.1123,-0.1326,0.0,0.0,0.0,0.0,0.0,0.0,0.0,0.0,0.0,0.0,0.0,0.0,0.0,-0.052,0.0,-0.2095,-0.2122,-0.2358,-0.2318,0.0,-0.2546,-0.2055,-0.2332,-0.4415,-0.8936,-1.3019,0.0,0.0,0.0,0.0,0.0,0.0,0.0,0.0,-0.7214,-0.5463,0.0,-0.8429,0.0,0.0,0.0,0.0,-1.2075,-1.0664,0.0,0.0,-1.7271,-1.8516,-1.8564,-1.8887,-1.9062,-1.8578,-0.9344,-0.3309,-0.0437,-0.2912,0.0,0.0,0.0,0.0,0.0,0.0,-0.9262,0.0,0.0,0.0,0.0,0.0,0.0,0.0,0.0,0.0,0.0,0.0,0.0,0.0,0.0,0.0,0.0,0.0,0.0,0.0,0.0,0.0,0.0,0.0,0.0,0.0,0.0,0.0,0.0,0.0,0.0,0.0,0.0,0.0,0.0,-0.8419,0.0,0.0,0.0,0.0,0.0,0.0,0.0,0.0,0.0,0.0,-1.4871,-1.6022,-1.578,-1.2761,0.0,0.0,0.0,0.0,0.0,0.0,0.0,0.0,0.0,0.0,0.0,0.0,0.0,0.0,0.0,0.0,-0.1214,-0.5118,-0.6553,-0.7449,-0.7569,-0.8011,-0.8308,-0.8308,-0.7056,-0.8269,-1.4115,-1.642,-1.8114,0.0,0.0,0.0,0.0,0.0,0.0,0.0,0.0,0.0,-0.8136,0.0,-0.9007,0.0,0.0,0.0,0.0,0.0,0.0,0.0,0.0,-1.5644,-1.6539,-1.6241,-1.6568,-1.451,0.0,-0.6713,-0.5368,0.0,0.0,0.0,0.0,0.0,0.0,0.0,0.0,-0.859,0.0,0.0,0.0,0.0,0.0,0.0,0.0,0.0,0.0,0.0,0.0,0.0,0.0,0.0,0.0,0.0,0.0,0.0,0.0,0.0,0.0,0.0,0.0,0.0,0.0,0.0,0.0,0.0,0.0,0.0,0.0,0.0,0.0,0.0,0.0,-1.0426,0.0,0.0,0.0,0.0,0.0,0.0,0.0,0.0,0.0,-1.395,-1.4727,-1.3379,-0.8737,-0.9253,-0.7728,-0.104,0.0,0.0,0.0,0.0,0.0,0.0,0.0,0.0,0.0,-0.2089,-0.4018,-0.3878,-0.398,-0.4286,-0.5773,0.0,0.0,-1.1174,-1.194,-1.1729,-1.0705,-1.095,-1.2427,-1.5635,-1.6794,-1.718,0.0,0.0,0.0,0.0,0.0,0.0,0.0,0.0,0.0,-0.953,-0.916,0.0,0.0,0.0,0.0,0.0,0.0,0.0,0.0,0.0,0.0,0.0,-1.4504,-1.4525,0.0,0.0,0.0,0.0,0.0,0.0,0.0,0.0,0.0,0.0,0.0,0.0,-0.8241,0.0,0.0,0.0,0.0,0.0,0.0,0.0,0.0,0.0,0.0,0.0,0.0,0.0,0.0,0.0,0.0,0.0,0.0,0.0,0.0,0.0,0.0,0.0,0.0,0.0,0.0,0.0,0.0,0.0,0.0,0.0,0.0,0.0,0.0,0.0,-1.1018,0.0,0.0,0.0,0.0,0.0,0.0,0.0,0.0,0.0,0.0,0.0,-1.1974,-0.8991,-1.1707,-1.1764,-0.6608,-0.2592,0.0,0.0,0.0,0.0,0.0,0.0,0.0,0.0,0.0,0.0,0.0,0.0,0.0,0.0,0.0,-1.0438,-1.3244,-1.361,-1.3017,-1.1745,0.0,0.0,0.0,0.0,0.0,0.0,0.0,0.0,0.0,0.0,0.0,0.0,0.0,0.0,0.0,-0.865,0.0,0.0,-0.8241,0.0,0.0,0.0,0.0,0.0,0.0,0.0,0.0,0.0,0.0,0.0,0.0,0.0,0.0,0.0,0.0,0.0,0.0,0.0,0.0,0.0,0.0,-0.8187,0.0,0.0,0.0,0.0,0.0,0.0,0.0,0.0,0.0,0.0,0.0,0.0,0.0,0.0,0.0,0.0,0.0,0.0,0.0,0.0,0.0,0.0,0.0,0.0,0.0,0.0,0.0,0.0,0.0,0.0,0.0,0.0,0.0,0.0,0.0,0.0,-0.9472,-1.043,-1.1155,0.0,0.0,0.0,0.0,0.0,0.0,0.0,0.0,0.0,-1.3308,-1.1942,-1.2142,-1.6368,-0.7707,0.0,0.0,0.0,0.0,0.0,0.0,0.0,0.0,0.0,0.0,0.0,0.0,0.0,0.0,0.0,0.0,0.0,0.0,0.0,0.0,0.0,0.0,0.0,0.0,0.0,0.0,0.0,0.0,0.0,0.0,0.0,0.0,0.0,0.0,0.0,0.0,0.0,0.0,0.0,0.0,0.0,0.0,0.0,0.0,0.0,0.0,0.0,0.0,0.0,0.0,0.0,0.0,0.0,0.0,0.0,0.0,0.0,0.0,0.0,0.0,0.0,-0.815,0.0,0.0,0.0,0.0,0.0,0.0,0.0,0.0,0.0,0.0,0.0,0.0,0.0,0.0,0.0,0.0,0.0,0.0,0.0,0.0,0.0,0.0,0.0,0.0,0.0,0.0,0.0,0.0,0.0,0.0,0.0,0.0,0.0,0.0,0.0,0.0,0.0,-1.1632,-1.1438,-1.0285,0.0,0.0,0.0,0.0,0.0,0.0,0.0,0.0,0.0,0.0,-1.46,-1.5848,-1.5113,-1.1149,-0.1491,0.0,0.0,0.0,0.0,-0.1907,-0.7625,0.0,0.0,0.0,0.0,0.0,0.0,0.0,0.0,0.0,0.0,0.0,0.0,0.0,0.0,0.0,0.0,0.0,0.0,0.0,0.0,0.0,0.0,0.0,0.0,0.0,0.0,0.0,0.0,0.0,0.0,0.0,0.0,0.0,0.0,0.0,0.0,0.0,0.0,0.0,0.0,0.0,0.0,0.0,0.0,0.0,0.0,0.0,0.0,0.0,0.0,0.0,0.0,0.0,-1.0624,-0.7235,-0.2607,0.0,0.0,0.0,0.0,0.0,0.0,0.0,0.0,0.0,0.0,0.0,0.0,0.0,0.0,0.0,0.0,0.0,0.0,0.0,0.0,0.0,0.0,0.0,0.0,0.0,0.0,0.0,0.0,0.0,0.0,0.0,0.0,0.0,0.0,0.0,-1.1319,-1.1292,-0.9945,0.0,0.0,0.0,0.0,0.0,0.0,0.0,0.0,0.0,0.0,-1.5891,-1.5698,-1.6067,0.0,0.0,-0.5469,-0.3565,-0.0491,0.0,-0.1641,-0.6753,-0.7684,0.0,0.0,0.0,0.0,0.0,0.0,0.0,0.0,0.0,0.0,0.0,0.0,0.0,0.0,0.0,0.0,0.0,0.0,0.0,0.0,0.0,0.0,0.0,0.0,0.0,0.0,0.0,0.0,0.0,0.0,0.0,0.0,0.0,0.0,0.0,0.0,0.0,0.0,0.0,0.0,0.0,0.0,0.0,0.0,0.0,0.0,0.0,0.0,0.0,0.0,0.0,0.0,-1.4503,-1.8443,-0.6375,0.0,0.0,0.0,0.0,0.0,0.0,0.0,0.0,0.0,0.0,0.0,0.0,0.0,0.0,0.0,0.0,0.0,0.0,0.0,0.0,0.0,0.0,0.0,0.0,0.0,0.0,0.0,0.0,0.0,0.0,0.0,0.0,0.0,0.0,0.0,0.0,0.0,0.0,0.0,0.0,0.0,0.0,0.0,0.0,0.0,0.0,0.0,0.0,-1.659,-1.5966,-1.263,-1.1682,0.0,-1.4351,-0.9317,-0.1174,0.0,0.0,0.0,0.0,0.0,0.0,0.0,0.0,0.0,0.0,0.0,0.0,0.0,0.0,0.0,0.0,0.0,0.0,0.0,0.0,0.0,0.0,0.0,0.0,0.0,0.0,0.0,0.0,0.0,0.0,0.0,0.0,0.0,0.0,0.0,0.0,0.0,0.0,0.0,0.0,0.0,0.0,0.0,0.0,0.0,0.0,0.0,0.0,0.0,0.0,0.0,0.0,0.0,0.0,0.0,0.0,0.0,-1.857,-0.6522,0.0,0.0,0.0,0.0,0.0,0.0,0.0,0.0,0.0,0.0,0.0,0.0,0.0,0.0,0.0,0.0,0.0,0.0,0.0,0.0,0.0,0.0,0.0,0.0,0.0,0.0,0.0,0.0,0.0,0.0,0.0,0.0,0.0,-1.0128,0.0,0.0,0.0,0.0,0.0,0.0,0.0,0.0,0.0,0.0,0.0,0.0,0.0,0.0,-1.8116,-1.9891,-1.7497,-1.5558,0.0,0.0,-0.9494,0.0,0.0,0.0,0.0,0.0,0.0,0.0,0.0,0.0,0.0,0.0,0.0,0.0,0.0,0.0,0.0,0.0,0.0,0.0,0.0,0.0,0.0,0.0,0.0,0.0,0.0,0.0,0.0,0.0,0.0,0.0,0.0,0.0,0.0,0.0,0.0,0.0,0.0,0.0,0.0,0.0,0.0,0.0,0.0,0.0,0.0,0.0,0.0,0.0,0.0,0.0,0.0,0.0,0.0,0.0,0.0,0.0,-1.4422,-1.8438,-0.65,0.0,0.0,0.0,0.0,0.0,0.0,0.0,0.0,0.0,0.0,0.0,0.0,0.0,0.0,0.0,0.0,0.0,0.0,0.0,0.0,0.0,0.0,0.0,0.0,0.0,0.0,0.0,0.0,0.0,0.0,0.0,0.0,0.0,0.0,0.0,0.0,0.0,0.0,0.0,0.0,0.0,0.0,0.0,0.0,0.0,0.0,0.0,0.0,0.0,-1.9965,-1.7687,0.0,0.0,0.0,-0.8101,-0.4968,0.0,0.0,0.0,0.0,0.0,0.0,0.0,0.0,0.0,0.0,0.0,0.0,0.0,0.0,0.0,0.0,0.0,0.0,0.0,0.0,0.0,0.0,0.0,0.0,0.0,0.0,0.0,0.0,0.0,0.0,0.0,0.0,0.0,0.0,0.0,0.0,0.0,0.0,0.0,0.0,0.0,0.0,0.0,0.0,0.0,0.0,0.0,0.0,0.0,0.0,0.0,0.0,0.0,0.0,0.0,0.0,0.0,-1.7626,-0.6222,0.0,0.0,0.0,0.0,0.0,0.0,0.0,0.0,0.0,0.0,0.0,0.0,0.0,0.0,0.0,0.0,0.0,0.0,0.0,0.0,0.0,0.0,0.0,0.0,0.0,0.0,0.0,0.0,0.0,0.0,0.0,0.0,0.0,0.0,0.0,0.0,0.0,0.0,0.0,0.0,0.0,0.0,0.0,0.0,0.0,0.0,0.0,0.0,-1.9654,-1.8072,-1.5821,-1.399,0.0,0.0,-0.6939,-0.9853,-0.4792,0.0,0.0,0.0,0.0,0.0,0.0,0.0,0.0,0.0,0.0,0.0,0.0,0.0,0.0,0.0,0.0,0.0,0.0,0.0,0.0,0.0,0.0,0.0,0.0,0.0,0.0,0.0,0.0,0.0,0.0,0.0,0.0,0.0,0.0,0.0,0.0,0.0,0.0,0.0,0.0,0.0,0.0,0.0,0.0,0.0,0.0,0.0,0.0,0.0,0.0,0.0,0.0,0.0,0.0,0.0,0.0,-1.3347,-0.4726,0.0,0.0,0.0,0.0,0.0,0.0,0.0,0.0,0.0,0.0,0.0,0.0,0.0,0.0,0.0,0.0,0.0,0.0,0.0,0.0,0.0,0.0,0.0,0.0,0.0,0.0,0.0,0.0,0.0,0.0,0.0,0.0,0.0,0.0,0.0,0.0,0.0,0.0,0.0,0.0,0.0,0.0,0.0,0.0,0.0,0.0,0.0,0.0,-1.8222,-1.8276,-1.5584,0.0,0.0,0.0,0.0,-0.9059,-0.6288,0.0,0.0,0.0,0.0,0.0,0.0,0.0,0.0,0.0,0.0,0.0,0.0,0.0,0.0,0.0,0.0,0.0,0.0,0.0,0.0,0.0,0.0,0.0,0.0,0.0,0.0,0.0,0.0,0.0,0.0,0.0,0.0,0.0,0.0,0.0,0.0,0.0,0.0,0.0,0.0,0.0,0.0,0.0,0.0,0.0,0.0,0.0,0.0,0.0,0.0,0.0,0.0,0.0,0.0,0.0,0.0,-1.2547,-0.438,0.0,0.0,0.0,0.0,0.0,0.0,0.0,0.0,0.0,0.0,0.0,0.0,0.0,0.0,0.0,0.0,0.0,0.0,0.0,0.0,0.0,0.0,0.0,0.0,0.0,0.0,0.0,0.0,0.0,0.0,0.0,0.0,0.0,0.0,0.0,0.0,0.0,0.0,0.0,0.0,0.0,0.0,0.0,0.0,0.0,0.0,0.0,-1.9171,-1.759,-1.7225,0.0,0.0,0.0,0.0,0.0,0.0,-0.6913,-0.5255,0.0,0.0,0.0,0.0,0.0,0.0,0.0,0.0,0.0,0.0,0.0,0.0,0.0,0.0,0.0,0.0,0.0,0.0,0.0,0.0,0.0,0.0,0.0,0.0,0.0,0.0,0.0,0.0,0.0,0.0,0.0,0.0,0.0,0.0,0.0,0.0,0.0,0.0,0.0,0.0,0.0,0.0,0.0,0.0,0.0,0.0,0.0,0.0,0.0,0.0,0.0,0.0,0.0,0.0,0.0,-1.3511,-0.4625,-0.0973,-0.3037,-0.1123,0.0,0.0,0.0,0.0,0.0,0.0,0.0,0.0,0.0,0.0,0.0,0.0,0.0,0.0,0.0,0.0,0.0,0.0,0.0,0.0,0.0,0.0,0.0,0.0,0.0,0.0,0.0,0.0,0.0,0.0,0.0,0.0,0.0,0.0,0.0,0.0,0.0,0.0,0.0,0.0,0.0,0.0,0.0,0.0,-1.811,-1.6784,0.0,0.0,0.0,0.0,0.0,0.0,0.0,0.0,-0.6043,0.0,0.0,0.0,0.0,0.0,0.0,0.0,0.0,0.0,0.0,0.0,0.0,0.0,0.0,0.0,0.0,0.0,0.0,0.0,0.0,0.0,0.0,0.0,0.0,0.0,0.0,0.0,0.0,0.0,0.0,0.0,0.0,0.0,0.0,0.0,0.0,0.0,0.0,0.0,0.0,0.0,0.0,0.0,0.0,0.0,0.0,0.0,0.0,0.0,0.0,0.0,0.0,0.0,0.0,0.0,0.0,-0.4437,-0.5264,-1.5269,-0.5541,0.0,0.0,0.0,0.0,0.0,0.0,0.0,0.0,0.0,0.0,0.0,0.0,0.0,0.0,0.0,0.0,0.0,0.0,0.0,0.0,0.0,0.0,0.0,0.0,0.0,0.0,0.0,0.0,0.0,0.0,0.0,0.0,0.0,0.0,0.0,0.0,0.0,0.0,0.0,0.0,0.0,0.0,0.0,-1.7529,-1.6068,0.0,0.0,0.0,0.0,0.0,0.0,0.0,0.0,-0.9181,0.0,0.0,0.0,0.0,0.0,0.0,0.0,0.0,0.0,0.0,0.0,0.0,0.0,0.0,0.0,0.0,0.0,0.0,0.0,0.0,0.0,0.0,0.0,0.0,0.0,0.0,0.0,0.0,0.0,0.0,0.0,0.0,0.0,0.0,0.0,0.0,0.0,0.0,0.0,0.0,0.0,0.0,0.0,0.0,0.0,0.0,0.0,0.0,0.0,0.0,0.0,0.0,0.0,0.0,0.0,0.0,0.0,0.0,-1.2673,-1.7695,-0.6242,0.0,0.0,0.0,0.0,0.0,0.0,0.0,0.0,0.0,0.0,0.0,0.0,0.0,0.0,0.0,0.0,0.0,0.0,0.0,0.0,0.0,0.0,0.0,0.0,0.0,0.0,0.0,0.0,0.0,0.0,0.0,0.0,0.0,0.0,0.0,0.0,0.0,0.0,0.0,0.0,0.0,0.0,0.0,0.0,0.0,0.0,0.0,0.0,0.0,0.0,0.0,0.0,0.0,0.0,0.0,0.0,0.0,0.0,0.0,0.0,0.0,0.0,0.0,0.0,0.0,0.0,0.0,0.0,0.0,0.0,0.0,0.0,0.0,0.0,0.0,0.0,0.0,0.0,0.0,0.0,0.0,0.0,0.0,0.0,0.0,0.0,0.0,0.0,0.0,0.0,0.0,0.0,0.0,0.0,0.0,0.0,0.0,0.0,0.0,0.0,0.0,0.0,0.0,0.0,0.0,0.0,0.0,0.0,0.0,0.0,0.0,0.0,-1.7533,-1.5233,-0.7701,-0.2443,0.0,0.0,0.0,0.0,0.0,0.0,0.0,0.0,0.0,0.0,0.0,0.0,0.0,0.0,0.0,0.0,0.0,0.0,0.0,0.0,0.0,0.0,0.0,0.0,0.0,0.0,0.0,0.0,0.0,0.0,0.0,0.0,0.0,0.0,0.0,0.0,0.0,0.0,0.0,0.0,0.0,0.0,0.0,0.0,0.0,0.0,0.0,0.0,0.0,0.0,0.0,-1.1236,0.0,0.0,0.0,0.0,0.0,0.0,0.0,0.0,0.0,0.0,0.0,0.0,0.0,0.0,0.0,0.0,0.0,0.0,0.0,0.0,0.0,0.0,0.0,0.0,0.0,0.0,0.0,0.0,0.0,0.0,0.0,0.0,0.0,0.0,0.0,0.0,0.0,0.0,0.0,0.0,0.0,0.0,0.0,0.0,0.0,0.0,0.0,0.0,0.0,0.0,0.0,0.0,0.0,0.0,0.0,0.0,0.0,0.0,0.0,-1.4602,-0.9061,-1.3053,-1.0466,0.0,0.0,0.0,0.0,0.0,0.0,0.0,0.0,0.0,0.0,0.0,0.0,0.0,0.0,0.0,0.0,0.0,0.0,0.0,0.0,0.0,0.0,0.0,0.0,0.0,0.0,0.0,0.0,0.0,0.0,0.0,0.0,0.0,0.0,0.0,0.0,0.0,0.0,0.0,0.0,0.0,0.0,0.0,0.0,0.0,0.0,0.0,0.0,0.0,0.0,0.0,0.0,0.0,0.0,0.0,0.0,0.0,0.0,0.0,0.0,0.0,0.0,0.0,0.0,0.0,0.0,0.0,0.0,0.0,0.0,0.0,0.0,0.0,0.0,0.0,0.0,0.0,0.0,0.0,0.0,0.0,0.0,0.0,0.0,0.0,0.0,0.0,0.0,0.0,0.0,0.0,0.0,0.0,0.0,0.0,0.0,0.0,0.0,0.0,0.0,0.0,0.0,0.0,0.0,0.0,0.0,0.0,0.0,0.0,0.0,0.0,-1.305,-0.6611,-1.353,-1.17,0.0,0.0,0.0,0.0,0.0,0.0,0.0,0.0,0.0,0.0,0.0,0.0,0.0,0.0,0.0,0.0,0.0,0.0,0.0,0.0,0.0,0.0,0.0,0.0,0.0,0.0,0.0,0.0,0.0,0.0,0.0,0.0,0.0,0.0,0.0,0.0,0.0,0.0,0.0,0.0,0.0,0.0,0.0,0.0,0.0,0.0,0.0,0.0,0.0,0.0,0.0,0.0,0.0,0.0,0.0,0.0,0.0,0.0,0.0,0.0,0.0,0.0,0.0,0.0,0.0,0.0,0.0,0.0,0.0,0.0,0.0,0.0,0.0,0.0,0.0,0.0,0.0,0.0,0.0,0.0,0.0,0.0,0.0,0.0,0.0,0.0,0.0,0.0,0.0,0.0,0.0,0.0,0.0,0.0,0.0,0.0,0.0,0.0,0.0,0.0,0.0,0.0,0.0,0.0,0.0,0.0,0.0,0.0,0.0,0.0,0.0,0.0,-0.7666,-1.212,-1.0143,0.0,0.0,-0.0686,0.0,0.0,0.0,0.0,0.0,0.0,0.0,0.0,0.0,0.0,0.0,0.0,0.0,0.0,0.0,0.0,0.0,0.0,0.0,0.0,0.0,0.0,0.0,0.0,0.0,0.0,0.0,0.0,0.0,0.0,0.0,0.0,0.0,0.0,0.0,0.0,0.0,0.0,0.0,0.0,0.0,0.0,0.0,0.0,0.0,0.0,0.0,0.0,0.0,0.0,0.0,0.0,0.0,0.0,0.0,0.0,0.0,0.0,0.0,0.0,0.0,0.0,0.0,0.0,0.0,0.0,0.0,0.0,0.0,0.0,0.0,0.0,0.0,0.0,0.0,0.0,0.0,0.0,0.0,0.0,0.0,0.0,0.0,0.0,0.0,0.0,0.0,0.0,0.0,0.0,0.0,0.0,0.0,0.0,0.0,0.0,0.0,0.0,0.0,0.0,0.0,0.0,0.0,0.0,0.0,0.0,0.0,0.0,0.0,-1.2583,-0.9889,-0.5744,0.0,0.0,-0.2541,0.0,0.0,0.0,0.0,0.0,0.0,0.0,0.0,0.0,0.0,0.0,0.0,0.0,0.0,0.0,0.0,0.0,0.0,0.0,0.0,0.0,0.0,0.0,0.0,0.0,0.0,0.0,0.0,0.0,0.0,0.0,0.0,0.0,0.0,0.0,0.0,0.0,0.0,0.0,0.0,0.0,0.0,0.0,0.0,0.0,0.0,0.0,0.0,0.0,0.0,0.0,0.0,0.0,0.0,0.0,0.0,0.0,0.0,0.0,0.0,0.0,0.0,0.0,0.0,0.0,0.0,0.0,0.0,0.0,0.0,0.0,0.0,0.0,0.0,0.0,0.0,0.0,0.0,0.0,0.0,0.0,0.0,0.0,0.0,0.0,0.0,0.0,0.0,0.0,0.0,0.0,0.0,0.0,0.0,0.0,0.0,0.0,0.0,0.0,0.0,0.0,0.0,0.0,0.0,0.0,0.0,0.0,0.0,0.0,-1.3855,-1.1747,-1.0387,-0.9757,-0.6922,-0.7183,-1.0654,0.0,0.0,0.0,0.0,0.0,0.0,0.0,0.0,0.0,0.0,0.0,0.0,0.0,0.0,0.0,0.0,0.0,0.0,0.0,0.0,0.0,0.0,0.0,0.0,0.0,0.0,0.0,0.0,0.0,0.0,0.0,0.0,0.0,0.0,0.0,0.0,0.0,0.0,0.0,0.0,0.0,0.0,0.0,0.0,0.0,0.0,0.0,0.0,0.0,0.0,0.0,0.0,0.0,0.0,0.0,0.0,0.0,0.0,0.0,0.0,0.0,0.0,0.0,0.0,0.0,0.0,0.0,0.0,0.0,0.0,0.0,0.0,0.0,0.0,0.0,0.0,0.0,0.0,0.0,0.0,0.0,0.0,0.0,0.0,0.0,0.0,0.0,0.0,0.0,0.0,0.0,0.0,0.0,0.0,0.0,0.0,0.0,0.0,0.0,0.0,0.0,0.0,0.0,0.0,0.0,0.0,0.0,0.0,-1.3487,-1.2375,-1.2277,-1.3329,-1.1049,-1.0232,0.0,0.0,0.0,0.0,0.0,0.0,0.0,0.0,0.0,0.0,0.0,0.0,0.0,0.0,0.0,0.0,0.0,0.0,0.0,0.0,0.0,0.0,0.0,0.0,0.0,0.0,0.0,0.0,0.0,0.0,0.0,0.0,0.0,0.0,0.0,0.0,0.0,0.0,0.0,0.0,0.0,0.0,0.0,0.0,0.0,0.0,0.0,0.0,0.0,0.0,0.0,0.0,0.0,0.0,0.0,0.0,0.0,0.0,0.0,0.0,0.0,0.0,0.0,0.0,0.0,0.0,0.0,0.0,0.0,0.0,0.0,0.0,0.0,0.0,0.0,0.0,0.0,0.0,0.0,0.0,0.0,0.0,0.0,0.0,0.0,0.0,0.0,0.0,0.0,0.0,0.0,0.0,0.0,0.0,0.0,0.0,0.0,0.0,0.0,0.0,0.0,0.0,0.0,0.0,0.0,0.0,0.0,0.0,-1.2616,-1.1336,-1.0883,-1.0109,-0.8917,-1.0972,-1.0829,0.0,0.0,0.0,0.0,0.0,0.0,0.0,0.0,0.0,0.0,0.0,0.0,0.0,0.0,0.0,0.0,0.0,0.0,0.0,0.0,0.0,0.0,0.0,0.0,0.0,0.0,0.0,0.0,0.0,0.0,0.0,0.0,0.0,0.0,0.0,0.0,0.0,0.0,0.0,0.0,0.0,0.0,0.0,0.0,0.0,0.0,0.0,0.0,0.0,0.0,0.0,0.0,0.0,0.0,0.0,0.0,0.0,0.0,0.0,0.0,0.0,0.0,0.0,0.0,0.0,0.0,0.0,0.0,0.0,0.0,0.0,0.0,0.0,0.0,0.0,0.0,0.0,0.0,0.0,0.0,0.0,0.0,0.0,0.0,0.0,0.0,0.0,0.0,0.0,0.0,0.0,0.0,0.0,0.0,0.0,0.0,0.0,0.0,0.0,0.0,0.0,0.0,0.0,0.0,0.0,0.0,0.0,0.0,0.0,-1.137,0.0,-1.0379,0.0,-0.9958,-1.0007,0.0,0.0,0.0,0.0,0.0,0.0,0.0,0.0,0.0,0.0,0.0,0.0,0.0,0.0,0.0,0.0,0.0,0.0,0.0,0.0,0.0,0.0,0.0,0.0,0.0,0.0,0.0,0.0,0.0,0.0,0.0,0.0,0.0,0.0,0.0,0.0,0.0,0.0,0.0,0.0,0.0,0.0,0.0,0.0,0.0,0.0,0.0,0.0,0.0,0.0,0.0,0.0,0.0,0.0,0.0,0.0,0.0,0.0,0.0,0.0,0.0,0.0,0.0,0.0,0.0,0.0,0.0,0.0,0.0,0.0,0.0,0.0,0.0,0.0,0.0,0.0,0.0,0.0,0.0,0.0,0.0,0.0,0.0,0.0,0.0,0.0,0.0,0.0,0.0,0.0,0.0,0.0,0.0,0.0,0.0,0.0,0.0,0.0,0.0,0.0,0.0,0.0,0.0,0.0,0.0,0.0,0.0,0.0,0.0,-1.1952,-1.0904,-1.0212,-0.9898,-1.001,-0.9992,0.0,0.0,0.0,0.0,0.0,0.0,0.0,0.0,0.0,0.0,0.0,0.0,0.0,0.0,0.0,0.0,0.0,0.0,0.0,0.0,0.0,0.0,0.0,0.0,0.0,0.0,0.0,0.0,0.0,0.0,0.0,0.0,0.0,0.0,0.0,0.0,0.0,0.0,0.0,0.0,0.0,0.0,0.0,0.0,0.0,0.0,0.0,0.0,0.0,0.0,0.0,0.0,0.0,0.0,0.0,0.0,0.0,0.0,0.0,0.0,0.0,0.0,0.0,0.0,0.0,0.0,0.0,0.0,0.0,0.0,0.0,0.0,0.0,0.0,0.0,0.0,0.0,0.0,0.0,0.0,0.0,0.0,0.0,0.0,0.0,0.0,0.0,0.0,0.0,0.0,0.0,0.0,0.0,0.0,0.0,0.0,0.0,0.0,0.0,0.0,0.0,0.0,0.0,0.0,0.0,0.0,0.0,0.0,0.0,0.0,-1.1149,-0.9764,-0.8871,-1.0627,-1.0169,0.0,0.0,0.0,0.0,0.0,0.0,0.0,0.0,0.0,0.0,0.0,0.0,0.0,0.0,0.0,0.0,0.0,0.0,0.0,0.0,0.0,0.0,0.0,0.0,0.0,0.0,0.0,0.0,0.0,0.0,0.0,0.0,0.0,0.0,0.0,0.0,0.0,0.0,0.0,0.0,0.0,0.0,0.0,0.0,0.0,0.0,0.0,0.0,0.0,0.0,0.0,0.0,0.0,0.0,0.0,0.0,0.0,0.0,0.0,0.0,0.0,0.0,0.0,0.0,0.0,0.0,0.0,0.0,0.0,0.0,0.0,0.0,0.0,0.0,0.0,0.0,0.0,0.0,0.0,0.0,0.0,0.0,0.0,0.0,0.0,0.0,0.0,0.0,0.0,0.0,0.0,0.0,0.0,0.0,0.0,0.0,0.0,0.0,0.0,0.0,0.0,0.0,0.0,0.0,0.0,0.0,0.0,0.0,0.0,0.0,-1.073,0.0,-0.8672,-0.5302,-0.291,-0.2023,0.0,0.0,0.0,0.0,0.0,0.0,0.0,0.0,0.0,0.0,0.0,0.0,0.0,0.0,0.0,0.0,0.0,0.0,0.0,0.0,0.0,0.0,0.0,0.0,0.0,0.0,0.0,0.0,0.0,0.0,0.0,0.0,0.0,0.0,0.0,0.0,0.0,0.0,0.0,0.0,0.0,0.0,0.0,0.0,0.0,0.0,0.0,0.0,0.0,0.0,0.0,0.0,0.0,0.0,0.0,0.0,0.0,0.0,0.0,0.0,0.0,0.0,0.0,0.0,0.0,0.0,0.0,0.0,0.0,0.0,0.0,0.0,0.0,0.0,0.0,0.0,0.0,0.0,0.0,0.0,0.0,0.0,0.0,0.0,0.0,0.0,0.0,0.0,0.0,0.0,0.0,0.0,0.0,0.0,0.0,0.0,0.0,0.0,0.0,0.0,0.0,0.0,0.0,0.0,0.0,0.0,0.0,0.0,0.0,0.0,-0.908,-0.8751,-0.534,-0.2523,0.0,0.0,0.0,0.0,0.0,0.0,0.0,0.0,0.0,0.0,0.0,0.0,0.0,0.0,0.0,0.0,0.0,0.0,0.0,0.0,0.0,0.0,0.0,0.0,0.0,0.0,0.0,0.0,0.0,0.0,0.0,0.0,0.0,0.0,0.0,0.0,0.0,0.0,0.0,0.0,0.0,0.0,0.0,0.0,0.0,0.0,0.0,0.0,0.0,0.0,0.0,0.0,0.0,0.0,0.0,0.0,0.0,0.0,0.0,0.0,0.0,0.0,0.0,0.0,0.0,0.0,0.0,0.0,0.0,0.0,0.0,0.0,0.0,0.0,0.0,0.0,0.0,0.0,0.0,0.0,0.0,0.0,0.0,0.0,0.0,0.0,0.0,0.0,0.0,0.0,0.0,0.0,0.0,0.0,0.0,0.0,0.0,0.0,0.0,0.0,0.0,0.0,0.0,0.0,0.0,0.0,0.0,0.0,0.0,0.0,0.0,-0.8728,-0.8735,-0.8104,0.0,-0.0725,0.0,0.0,0.0,0.0,0.0,0.0,0.0,0.0,0.0,0.0,0.0,0.0,0.0,0.0,0.0,0.0,0.0,0.0,0.0,0.0,0.0,0.0,0.0,0.0,0.0,0.0,0.0,0.0,0.0,0.0,0.0,0.0,0.0,0.0,0.0,0.0,0.0,0.0,0.0,0.0,0.0,0.0,0.0,0.0,0.0,0.0,0.0,0.0,0.0,0.0,0.0,0.0,0.0,0.0,0.0,0.0,0.0,0.0,0.0,0.0,0.0,0.0,0.0,0.0,0.0,0.0,0.0,0.0,0.0,0.0,0.0,0.0,0.0,0.0,0.0,0.0,0.0,0.0,0.0,0.0,0.0,0.0,0.0,0.0,0.0,0.0,0.0,0.0,0.0,0.0,0.0,0.0,0.0,0.0,0.0,0.0,0.0,0.0,0.0,0.0,0.0,0.0,0.0,0.0,0.0,0.0,0.0,0.0,0.0,0.0,0.0,0.0,-0.4343,-0.1298,-0.0099,0.0,0.0,0.0,0.0,0.0,0.0,0.0,0.0,0.0,0.0,0.0,0.0,0.0,0.0,0.0,0.0,0.0,0.0,0.0,0.0,0.0,0.0,0.0,0.0,0.0,0.0,0.0,0.0,0.0,0.0,0.0,0.0,0.0,0.0,0.0,0.0,0.0,0.0,0.0,0.0,0.0,0.0,0.0,0.0,0.0,0.0,0.0,0.0,0.0,0.0,0.0,0.0,0.0,0.0,0.0,0.0,0.0,0.0,0.0,0.0,0.0,0.0,0.0,0.0,0.0,0.0,0.0,0.0,0.0,0.0,0.0,0.0,0.0,0.0,0.0,0.0,0.0,0.0,0.0,0.0,0.0,0.0,0.0,0.0,0.0,0.0,0.0,0.0,0.0,0.0,0.0,0.0,0.0,0.0,0.0,0.0,0.0,0.0,0.0,0.0,0.0,0.0,0.0,0.0,0.0,0.0,0.0,0.0,0.0,0.0,-0.9037,-0.9494,-0.5926,-0.2716,-0.0191,0.0,0.0,0.0,0.0,0.0,0.0,0.0,0.0,0.0,0.0,0.0,0.0,0.0,0.0,0.0,0.0,0.0,0.0,0.0,0.0,0.0,0.0,0.0,0.0,0.0,0.0,0.0,0.0,0.0,0.0,0.0,0.0,0.0,0.0,0.0,0.0,0.0,0.0,0.0,0.0,0.0,0.0,0.0,0.0,0.0,0.0,0.0,0.0,0.0,0.0,0.0,0.0,0.0,0.0,0.0,0.0,0.0,0.0,0.0,0.0,0.0,0.0,0.0,0.0,0.0,0.0,0.0,0.0,0.0,0.0,0.0,0.0,0.0,0.0,0.0,0.0,0.0,0.0,0.0,0.0,0.0,0.0,0.0,0.0,0.0,0.0,0.0,0.0,0.0,0.0,0.0,0.0,0.0,0.0,0.0,0.0,0.0,0.0,0.0,0.0,0.0,0.0,0.0,0.0,0.0,0.0,0.0,0.0,0.0,0.0,0.0,0.0,0.0,0.0,-0.1225,0.0,0.0,0.0,0.0,0.0,0.0,0.0,0.0,0.0,0.0,0.0,0.0,0.0,0.0,0.0,0.0,0.0,0.0,0.0,0.0,0.0,0.0,0.0,0.0,0.0,0.0,0.0,0.0,0.0,0.0,0.0,0.0,0.0,0.0,0.0,0.0,0.0,0.0,0.0,0.0,0.0,0.0,0.0,0.0,0.0,0.0,0.0,0.0,0.0,0.0,0.0,0.0,0.0,0.0,0.0,0.0,0.0,0.0,0.0,0.0,0.0,0.0,0.0,0.0,0.0,0.0,0.0,0.0,0.0,0.0,0.0,0.0,0.0,0.0,0.0,0.0,0.0,0.0,0.0,0.0,0.0,0.0,0.0,0.0,0.0,0.0,0.0,0.0,0.0,0.0,0.0,0.0,0.0,0.0,0.0,0.0,0.0,0.0,0.0,0.0,0.0,0.0,0.0,0.0,0.0,0.0,0.0,0.0,0.0,0.0,0.0,0.0,0.0,0.0,0.0,0.0,0.0,0.0,0.0,0.0,0.0,0.0,0.0,0.0,0.0,0.0,0.0,0.0,0.0,0.0,0.0,0.0,0.0,0.0,0.0,0.0,0.0,0.0,0.0,0.0,0.0,0.0,0.0,0.0,0.0,0.0,0.0,0.0,0.0,0.0,0.0,0.0,0.0,0.0,0.0,0.0,0.0,0.0,0.0,0.0,0.0,0.0,0.0,0.0,0.0,0.0,0.0,0.0,0.0,0.0,0.0,0.0,0.0,0.0,0.0,0.0,0.0,0.0,0.0,0.0,0.0,0.0,0.0,0.0,0.0,0.0,0.0,0.0,0.0,0.0,0.0,0.0,0.0,0.0,0.0,0.0,0.0,0.0,0.0,0.0,0.0,0.0,0.0,0.0,0.0,0.0,0.0,0.0,0.0,0.0,0.0,0.0,0.0,0.0,0.0,0.0,0.0,0.0,0.0,0.0,0.0,0.0,0.0,0.0,0.0,0.0,0.0,0.0,0.0,0.0,0.0,0.0,0.0,0.0,0.0,0.0,0.0,0.0,0.0,0.0,0.0,0.0,0.0,0.0,0.0,0.0,0.0,0.0,0.0,0.0,0.0,0.0,0.0,0.0,0.0,0.0,0.0,0.0,0.0,0.0,0.0,0.0,0.0,0.0,0.0,0.0,0.0,0.0,0.0,0.0,0.0,0.0,0.0,0.0,0.0,0.0,0.0,0.0,0.0,0.0,0.0,0.0,0.0,0.0,0.0,0.0,0.0,0.0,0.0,0.0,0.0,0.0,0.0,0.0,0.0,0.0,0.0,0.0,0.0,0.0,0.0,0.0,0.0,0.0,0.0,0.0,0.0,0.0,0.0,0.0,0.0,0.0,0.0,0.0,0.0,0.0,0.0,0.0,0.0,0.0,0.0,0.0,0.0,0.0,0.0,0.0,0.0,0.0,0.0,0.0,0.0,0.0,0.0,0.0,0.0,0.0,0.0,0.0,0.0,0.0,0.0,0.0,0.0,0.0,0.0,0.0,0.0,0.0,0.0,0.0,0.0,0.0,0.0,0.0,0.0,0.0,0.0,0.0,0.0,0.0,0.0,0.0,0.0,0.0,0.0,0.0,0.0,0.0,0.0,0.0,0.0,0.0,0.0,0.0,0.0,0.0,0.0,0.0,0.0,0.0,0.0,0.0,0.0,0.0,0.0,0.0,0.0,0.0,0.0,0.0,0.0,0.0,0.0,0.0,0.0,0.0,0.0,0.0,0.0,0.0,0.0,0.0,0.0,0.0,0.0,0.0,0.0,0.0,0.0,0.0,0.0,0.0,0.0,0.0,0.0,0.0,0.0,0.0,0.0,0.0,0.0,0.0,0.0,0.0,0.0,0.0,0.0,0.0,0.0,0.0,0.0,0.0,0.0,0.0,0.0,0.0,0.0,0.0,0.0,0.0,0.0,0.0,0.0,0.0,0.0,0.0,0.0,0.0,0.0,0.0,0.0,0.0,0.0,0.0,0.0,0.0,0.0,0.0,0.0,0.0,0.0,0.0,0.0,0.0,0.0,0.0,0.0,0.0,0.0,0.0,0.0,0.0,0.0,0.0,0.0,0.0,0.0,0.0,0.0,0.0,0.0,0.0,0.0,0.0,0.0,0.0,0.0,0.0,0.0,0.0,0.0,0.0,0.0,0.0,0.0,0.0,0.0,0.0,0.0,0.0,0.0,0.0,0.0,0.0,0.0,0.0,0.0,0.0,0.0,0.0,0.0,0.0,0.0,0.0,0.0,0.0,0.0,0.0,0.0,0.0,0.0,0.0,0.0,0.0,0.0,0.0,0.0,0.0,0.0,0.0,0.0,0.0,0.0,0.0,0.0,0.0,0.0,0.0,0.0,0.0,0.0,0.0,0.0,0.0,0.0,0.0,0.0,0.0,0.0,0.0,0.0,0.0,0.0,0.0,0.0,0.0,0.0,0.0,0.0,0.0,0.0,0.0,0.0,0.0,0.0,0.0,0.0,0.0,0.0,0.0,0.0,0.0,0.0,0.0,0.0,0.0,0.0,0.0,0.0,0.0,0.0,0.0,0.0,0.0,0.0,0.0,0.0,0.0,0.0,0.0,0.0,0.0,0.0,0.0,0.0,0.0,0.0,0.0,0.0,0.0,0.0,0.0,0.0,0.0,0.0,0.0,0.0,0.0,0.0,0.0,0.0,0.0,0.0,0.0,0.0,0.0,0.0,0.0,0.0,0.0,0.0,0.0,0.0,0.0,0.0,0.0,0.0,0.0,0.0,0.0,0.0,0.0,0.0,0.0,0.0,0.0,0.0,0.0,0.0,0.0,0.0,0.0,0.0,0.0,0.0,0.0,0.0,0.0,0.0,0.0,0.0,0.0,0.0,0.0,0.0,0.0,0.0,0.0,0.0,0.0,0.0,0.0,0.0,0.0,0.0,0.0,0.0,0.0,0.0,0.0,0.0,0.0,0.0,0.0,0.0,0.0,0.0,0.0,0.0,0.0,0.0,0.0,0.0,0.0,0.0,0.0,0.0,0.0,0.0,0.0,0.0,0.0,0.0,0.0,0.0,0.0,0.0,0.0,0.0,0.0,0.0,0.0,0.0,0.0,0.0,0.0,0.0,0.0,0.0,0.0,0.0,0.0,0.0,0.0,0.0,0.0,0.0,0.0,0.0,0.0,0.0,0.0,0.0,0.0,0.0,0.0,0.0,0.0,0.0,0.0,0.0,0.0,0.0,0.0,0.0,0.0,0.0,0.0,0.0,0.0,0.0,0.0,0.0,0.0,0.0,0.0,0.0,0.0,0.0,0.0,0.0,0.0,0.0,0.0,0.0,0.0,0.0,0.0,0.0,0.0,0.0,0.0,0.0,0.0,0.0,0.0,0.0,0.0,0.0,0.0,0.0,0.0,0.0,0.0,0.0,0.0,0.0,0.0,0.0,0.0,0.0,0.0,0.0,0.0,0.0,0.0,0.0,0.0,0.0,0.0,0.0,0.0,0.0,0.0,0.0,0.0,0.0,0.0,0.0,0.0,0.0,0.0,0.0,0.0,0.0,0.0,0.0,0.0,0.0,0.0,0.0,0.0,0.0,0.0,0.0,0.0,0.0,0.0,0.0,0.0,0.0,0.0,0.0,0.0,0.0,0.0,0.0,0.0,0.0,0.0,0.0,0.0,0.0,0.0,0.0,0.0,0.0,0.0,0.0,0.0,0.0,0.0,0.0,0.0,0.0,0.0,0.0,0.0,0.0,0.0,0.0,0.0,0.0,0.0,0.0,0.0,0.0,0.0,0.0,0.0,0.0,0.0,0.0,0.0,0.0,0.0,0.0,0.0,0.0,0.0,0.0,0.0,0.0,0.0,0.0,0.0,0.0,0.0,0.0,0.0,0.0,0.0,0.0,0.0,0.0,0.0,0.0,0.0,0.0,0.0,0.0,0.0,0.0,0.0,0.0,0.0,0.0,0.0,0.0,0.0,0.0,0.0,0.0,0.0,0.0,0.0,0.0,0.0,0.0,0.0,0.0,0.0,0.0,0.0,0.0,0.0,0.0,0.0,0.0,0.0,0.0,0.0,0.0,0.0,0.0,0.0,0.0,0.0,0.0,0.0,0.0,0.0,0.0,0.0,0.0,0.0,0.0,0.0,0.0,0.0,0.0,0.0,0.0,0.0,0.0,0.0,0.0,0.0,0.0,0.0,0.0,0.0,0.0,0.0,0.0,0.0,0.0,0.0,0.0,0.0,0.0,0.0,0.0,0.0,0.0,0.0,0.0,0.0,0.0,0.0,0.0,0.0,0.0,0.0,0.0,0.0,0.0,0.0,0.0,0.0,0.0,0.0,0.0,0.0,0.0,0.0,0.0,0.0]}]]]